GFSSGP_prec_pwat_036.txt.gz
Precipitable_Water
1.11 1.11 1.11 0.87 0.55 0.48 0.35 0.32 0.39 0.38 0.35 0.41 0.43 0.40 0.41 0.50 0.63 0.59 1.29 1.39 1.41 1.31 1.31 1.33 1.38 1.36 1.50 1.58 1.46 1.44 1.49 1.52 1.47 1.39 1.29 1.22 1.18 1.09 0.96 1.06 1.38 1.39 1.44 1.33 1.19 1.02 0.88 0.83 0.81
1.16 1.15 1.02 0.81 0.52 0.41 0.38 0.45 0.39 0.39 0.45 0.46 0.40 0.35 0.38 0.66 0.89 1.04 1.19 1.39 1.47 1.36 1.30 1.35 1.40 1.47 1.47 1.48 1.52 1.50 1.48 1.44 1.37 1.31 1.22 1.11 1.05 0.94 0.90 1.22 1.35 1.37 1.37 1.23 1.09 0.91 0.77 0.76 0.77
1.21 1.17 0.87 0.68 0.56 0.43 0.45 0.48 0.46 0.48 0.48 0.45 0.41 0.37 0.43 0.75 1.03 1.12 1.37 1.35 1.45 1.35 1.31 1.37 1.38 1.42 1.46 1.46 1.52 1.50 1.46 1.41 1.35 1.27 1.14 1.03 0.91 0.85 1.00 1.16 1.23 1.23 1.24 1.18 1.04 0.83 0.81 0.85 0.87
1.16 1.00 0.87 0.65 0.52 0.52 0.56 0.53 0.51 0.50 0.47 0.48 0.51 0.42 0.72 1.09 1.02 1.16 1.30 1.41 1.40 1.34 1.39 1.37 1.35 1.32 1.35 1.37 1.41 1.43 1.47 1.40 1.33 1.27 1.11 0.95 0.92 0.95 0.99 1.01 1.11 1.11 1.07 0.99 0.87 0.90 0.95 0.97 0.96
1.22 0.98 0.66 0.57 0.57 0.60 0.62 0.59 0.55 0.53 0.51 0.48 0.50 0.57 0.73 0.97 1.15 1.20 1.25 1.38 1.35 1.39 1.50 1.42 1.33 1.35 1.30 1.29 1.30 1.41 1.46 1.43 1.32 1.23 1.07 0.96 0.99 1.01 1.00 1.05 1.05 1.06 1.01 0.96 1.00 1.01 0.98 0.94 0.93
0.99 0.92 0.65 0.53 0.54 0.61 0.64 0.63 0.58 0.56 0.54 0.52 0.51 0.67 0.87 1.12 1.16 1.22 1.34 1.38 1.44 1.44 1.48 1.40 1.32 1.32 1.31 1.28 1.30 1.37 1.44 1.45 1.34 1.19 1.06 1.03 1.00 0.97 1.02 1.06 1.07 1.04 1.03 1.09 1.09 1.01 0.94 0.92 0.93
0.84 0.80 0.64 0.66 0.57 0.59 0.59 0.67 0.58 0.51 0.54 0.50 0.58 0.55 0.96 1.06 1.21 1.30 1.36 1.41 1.43 1.47 1.43 1.33 1.30 1.31 1.32 1.31 1.30 1.37 1.41 1.40 1.33 1.21 1.05 1.01 1.04 1.00 1.00 1.04 1.03 1.05 1.14 1.21 1.06 0.97 0.91 0.90 0.93
0.89 0.82 0.69 0.69 0.64 0.59 0.65 0.65 0.65 0.53 0.48 0.61 0.60 0.60 0.91 1.05 1.21 1.33 1.37 1.35 1.37 1.39 1.42 1.38 1.32 1.25 1.19 1.23 1.27 1.29 1.38 1.40 1.34 1.25 1.13 0.98 0.97 1.03 1.10 1.10 1.13 1.14 1.24 1.23 1.10 0.98 0.91 0.91 0.89
0.99 0.70 0.62 0.65 0.66 0.67 0.70 0.64 0.67 0.62 0.52 0.54 0.57 0.73 1.16 1.26 1.16 1.20 1.23 1.23 1.30 1.32 1.36 1.36 1.33 1.19 1.15 1.11 1.17 1.24 1.31 1.40 1.34 1.25 1.22 1.01 0.98 0.98 1.08 1.18 1.21 1.20 1.26 1.22 1.11 0.99 0.91 0.90 0.88
0.79 0.66 0.64 0.79 0.81 0.75 0.71 0.70 0.66 0.55 0.47 0.46 0.53 0.76 1.02 1.06 0.99 1.00 1.03 1.03 1.13 1.17 1.23 1.30 1.28 1.25 1.22 1.26 1.17 1.14 1.24 1.37 1.36 1.27 1.23 1.08 1.06 1.03 1.06 1.16 1.20 1.24 1.27 1.20 1.13 1.00 0.91 0.89 0.86
0.71 0.59 0.74 0.80 0.89 0.81 0.75 0.70 0.69 0.56 0.46 0.45 0.45 0.63 0.83 0.88 0.90 0.88 0.91 0.92 0.99 1.12 1.21 1.26 1.26 1.24 1.23 1.27 1.28 1.21 1.31 1.34 1.30 1.26 1.22 1.13 1.13 1.19 1.18 1.16 1.19 1.22 1.24 1.17 1.13 1.03 0.93 0.87 0.83
0.56 0.62 0.68 0.75 0.83 0.80 0.70 0.71 0.60 0.55 0.54 0.55 0.52 0.63 0.76 0.78 0.81 0.82 0.87 0.94 0.98 1.04 1.11 1.24 1.28 1.25 1.22 1.26 1.23 1.20 1.22 1.29 1.32 1.37 1.35 1.26 1.18 1.22 1.22 1.21 1.20 1.13 1.17 1.14 1.10 1.01 0.94 0.86 0.81
0.57 0.64 0.62 0.64 0.71 0.70 0.71 0.63 0.57 0.54 0.61 0.66 0.65 0.60 0.57 0.68 0.85 0.90 0.92 1.01 1.06 1.02 1.11 1.18 1.24 1.24 1.22 1.20 1.21 1.27 1.28 1.27 1.28 1.29 1.36 1.37 1.29 1.28 1.27 1.31 1.29 1.24 1.26 1.23 1.17 1.07 0.94 0.85 0.81
0.59 0.64 0.66 0.63 0.64 0.66 0.59 0.58 0.57 0.55 0.63 0.61 0.60 0.58 0.57 0.57 0.62 0.83 0.95 0.96 1.04 1.12 1.12 1.17 1.19 1.21 1.25 1.23 1.25 1.27 1.35 1.30 1.27 1.26 1.28 1.33 1.35 1.33 1.32 1.31 1.36 1.35 1.34 1.33 1.25 1.16 1.01 0.91 0.82
0.64 0.55 0.63 0.62 0.64 0.62 0.63 0.52 0.47 0.55 0.61 0.57 0.56 0.56 0.53 0.52 0.54 0.58 0.67 0.89 1.10 1.16 1.20 1.15 1.15 1.17 1.18 1.21 1.27 1.29 1.30 1.32 1.22 1.19 1.19 1.21 1.25 1.29 1.30 1.29 1.28 1.35 1.41 1.39 1.35 1.22 1.10 0.97 0.90
0.55 0.54 0.47 0.59 0.62 0.63 0.61 0.41 0.50 0.56 0.57 0.55 0.55 0.54 0.52 0.52 0.50 0.50 0.53 0.62 0.73 0.91 1.05 1.24 1.22 1.19 1.18 1.17 1.24 1.26 1.28 1.29 1.29 1.28 1.24 1.19 1.19 1.22 1.22 1.21 1.24 1.34 1.38 1.44 1.38 1.26 1.11 0.98 0.92
0.51 0.36 0.40 0.47 0.59 0.58 0.58 0.46 0.55 0.58 0.56 0.53 0.54 0.54 0.52 0.51 0.51 0.51 0.49 0.48 0.60 0.64 0.70 0.78 0.93 1.16 1.14 1.19 1.25 1.26 1.28 1.33 1.33 1.31 1.28 1.24 1.20 1.20 1.20 1.20 1.24 1.30 1.30 1.32 1.33 1.26 1.18 1.03 0.97
0.33 0.35 0.37 0.35 0.49 0.53 0.53 0.49 0.52 0.54 0.51 0.47 0.47 0.49 0.50 0.50 0.50 0.53 0.54 0.52 0.50 0.54 0.57 0.60 0.67 0.73 0.84 1.18 1.24 1.24 1.20 1.26 1.32 1.31 1.30 1.28 1.22 1.17 1.17 1.19 1.22 1.27 1.24 1.24 1.26 1.19 1.15 1.05 0.97
0.38 0.37 0.35 0.34 0.45 0.45 0.44 0.51 0.51 0.51 0.49 0.47 0.46 0.46 0.44 0.44 0.48 0.50 0.53 0.54 0.53 0.50 0.50 0.50 0.53 0.60 0.64 0.67 0.85 1.07 1.03 1.06 1.11 1.21 1.27 1.32 1.35 1.28 1.17 1.16 1.16 1.26 1.19 1.19 1.23 1.20 1.10 1.02 1.00
0.38 0.35 0.32 0.37 0.42 0.43 0.41 0.41 0.49 0.47 0.45 0.44 0.42 0.40 0.40 0.41 0.42 0.46 0.47 0.47 0.48 0.47 0.46 0.46 0.47 0.52 0.56 0.60 0.63 0.74 0.96 1.01 0.96 0.97 1.01 1.17 1.25 1.31 1.33 1.23 1.16 1.17 1.21 1.19 1.21 1.13 1.06 1.03 0.99
0.37 0.35 0.32 0.34 0.41 0.42 0.38 0.32 0.39 0.46 0.45 0.40 0.39 0.38 0.38 0.38 0.39 0.41 0.43 0.47 0.48 0.47 0.47 0.47 0.48 0.49 0.50 0.51 0.53 0.55 0.60 0.78 0.94 0.93 0.89 0.89 0.98 1.21 1.26 1.30 1.32 1.27 1.24 1.21 1.18 1.17 1.09 0.99 1.02
0.33 0.42 0.38 0.36 0.34 0.25 0.34 0.18 0.27 0.35 0.37 0.36 0.34 0.33 0.33 0.34 0.37 0.40 0.44 0.46 0.50 0.51 0.53 0.52 0.51 0.51 0.50 0.51 0.52 0.52 0.52 0.52 0.65 0.87 0.96 0.97 1.01 0.97 1.01 1.14 1.25 1.27 1.30 1.26 1.22 1.19 1.13 1.07 0.95
0.38 0.44 0.40 0.38 0.33 0.32 0.32 0.26 0.24 0.35 0.34 0.34 0.32 0.34 0.35 0.39 0.41 0.43 0.46 0.47 0.54 0.55 0.54 0.54 0.53 0.51 0.53 0.53 0.49 0.46 0.46 0.51 0.57 0.68 0.88 0.96 1.01 1.02 1.03 1.05 1.05 1.19 1.26 1.29 1.30 1.26 1.12 1.06 1.00
0.55 0.47 0.41 0.39 0.33 0.21 0.26 0.28 0.24 0.27 0.28 0.35 0.37 0.38 0.39 0.41 0.45 0.49 0.52 0.53 0.54 0.56 0.55 0.55 0.52 0.51 0.51 0.50 0.50 0.49 0.45 0.44 0.45 0.53 0.67 0.81 0.91 0.98 1.03 1.10 1.08 1.10 1.15 1.20 1.25 1.26 1.25 1.11 1.02
0.51 0.41 0.28 0.23 0.21 0.19 0.27 0.26 0.25 0.30 0.31 0.32 0.34 0.40 0.43 0.46 0.50 0.51 0.50 0.51 0.53 0.53 0.54 0.53 0.52 0.50 0.52 0.51 0.48 0.48 0.49 0.52 0.49 0.48 0.58 0.74 0.91 1.02 1.06 1.09 1.04 1.08 1.13 1.16 1.19 1.23 1.22 1.17 1.07
0.44 0.39 0.28 0.17 0.18 0.20 0.29 0.21 0.26 0.33 0.33 0.34 0.37 0.41 0.44 0.46 0.50 0.50 0.50 0.51 0.51 0.52 0.54 0.54 0.54 0.54 0.57 0.59 0.59 0.58 0.56 0.56 0.57 0.63 0.65 0.63 0.76 0.90 0.99 1.02 0.96 0.93 0.99 1.02 1.06 1.09 1.11 1.19 1.11
0.45 0.36 0.41 0.29 0.27 0.24 0.24 0.23 0.29 0.32 0.33 0.36 0.35 0.37 0.41 0.44 0.48 0.49 0.51 0.52 0.53 0.54 0.54 0.56 0.57 0.58 0.59 0.59 0.62 0.64 0.65 0.64 0.61 0.60 0.65 0.74 0.82 0.83 0.84 0.85 0.88 0.89 0.92 0.96 0.96 0.96 0.99 1.04 1.04
0.48 0.49 0.33 0.31 0.20 0.17 0.21 0.20 0.19 0.25 0.27 0.30 0.33 0.33 0.42 0.47 0.51 0.51 0.52 0.54 0.57 0.58 0.58 0.58 0.58 0.56 0.57 0.58 0.57 0.56 0.58 0.60 0.62 0.63 0.60 0.62 0.73 0.78 0.77 0.75 0.73 0.78 0.86 0.95 0.96 0.96 1.01 1.01 1.03
0.41 0.39 0.40 0.37 0.30 0.22 0.18 0.19 0.26 0.25 0.27 0.28 0.31 0.38 0.42 0.47 0.53 0.54 0.54 0.57 0.59 0.61 0.60 0.59 0.59 0.59 0.58 0.57 0.57 0.57 0.58 0.63 0.66 0.67 0.70 0.72 0.73 0.77 0.75 0.73 0.72 0.72 0.74 0.78 0.80 0.82 0.85 0.89 0.96
0.54 0.46 0.44 0.34 0.29 0.27 0.26 0.24 0.34 0.32 0.33 0.37 0.37 0.41 0.46 0.51 0.56 0.57 0.57 0.58 0.59 0.59 0.59 0.59 0.59 0.59 0.59 0.59 0.59 0.60 0.63 0.66 0.68 0.71 0.74 0.75 0.74 0.75 0.73 0.71 0.71 0.70 0.72 0.74 0.76 0.80 0.81 0.80 0.79

GFSSGP_prec_pwat_039.txt.gz
Precipitable_Water
1.08 0.99 1.03 0.81 0.47 0.44 0.27 0.31 0.39 0.34 0.34 0.40 0.44 0.44 0.61 0.71 0.68 0.54 1.27 1.39 1.41 1.34 1.36 1.26 1.30 1.35 1.40 1.42 1.43 1.43 1.43 1.42 1.37 1.30 1.23 1.18 1.11 1.00 1.05 1.26 1.36 1.42 1.35 1.19 1.03 0.87 0.82 0.80 0.78
1.12 1.02 0.97 0.73 0.46 0.33 0.29 0.39 0.35 0.38 0.43 0.42 0.40 0.44 0.57 0.66 0.90 1.01 1.13 1.46 1.47 1.37 1.35 1.30 1.30 1.41 1.52 1.40 1.42 1.48 1.46 1.39 1.29 1.20 1.17 1.06 0.96 0.89 1.29 1.34 1.37 1.37 1.27 1.06 0.94 0.75 0.73 0.72 0.71
1.15 1.09 0.81 0.64 0.50 0.38 0.35 0.43 0.42 0.44 0.45 0.42 0.38 0.42 0.64 0.72 1.01 1.08 1.28 1.44 1.49 1.33 1.34 1.36 1.37 1.42 1.43 1.46 1.46 1.49 1.45 1.36 1.24 1.17 1.05 0.93 0.85 0.94 1.24 1.23 1.25 1.24 1.18 1.09 0.88 0.83 0.86 0.86 0.83
1.09 1.02 0.86 0.61 0.48 0.49 0.52 0.54 0.51 0.47 0.47 0.45 0.43 0.40 0.80 1.04 1.01 1.22 1.34 1.42 1.41 1.35 1.33 1.35 1.42 1.39 1.41 1.52 1.46 1.47 1.43 1.38 1.28 1.18 1.03 0.87 0.92 1.02 1.11 1.18 1.14 1.11 1.07 0.95 0.84 0.90 0.92 0.92 0.92
1.13 0.97 0.69 0.58 0.54 0.57 0.67 0.61 0.55 0.49 0.46 0.46 0.49 0.53 0.67 1.02 1.10 1.18 1.33 1.38 1.33 1.36 1.33 1.32 1.35 1.35 1.35 1.42 1.41 1.44 1.44 1.37 1.26 1.18 0.98 0.98 1.00 1.00 1.01 1.04 1.11 1.07 0.98 0.92 0.98 0.98 0.95 0.93 0.92
0.90 0.98 0.66 0.53 0.56 0.64 0.72 0.64 0.61 0.57 0.56 0.51 0.60 0.72 0.82 1.12 1.05 1.19 1.34 1.36 1.39 1.36 1.39 1.40 1.34 1.32 1.32 1.35 1.37 1.41 1.42 1.37 1.25 1.18 1.00 0.99 1.03 1.03 1.04 1.05 1.06 1.03 0.99 1.03 1.02 0.94 0.90 0.91 0.95
0.82 0.79 0.67 0.66 0.60 0.63 0.70 0.69 0.60 0.57 0.56 0.51 0.61 0.72 0.94 1.10 1.21 1.32 1.38 1.41 1.44 1.46 1.45 1.42 1.31 1.28 1.26 1.28 1.33 1.42 1.38 1.38 1.25 1.19 1.06 0.99 0.96 1.03 1.11 1.08 1.03 1.04 1.14 1.12 1.01 0.95 0.90 0.90 0.89
0.88 0.79 0.70 0.70 0.61 0.61 0.77 0.73 0.66 0.61 0.55 0.62 0.69 0.74 0.84 1.13 1.32 1.38 1.39 1.38 1.41 1.45 1.42 1.31 1.25 1.26 1.26 1.25 1.27 1.35 1.40 1.33 1.26 1.22 1.12 1.01 0.97 0.97 1.03 1.06 1.09 1.14 1.24 1.13 1.01 0.94 0.93 0.93 0.90
1.02 0.67 0.62 0.67 0.67 0.65 0.86 0.77 0.69 0.69 0.58 0.62 0.79 0.88 1.10 1.31 1.38 1.26 1.28 1.28 1.29 1.32 1.37 1.35 1.23 1.20 1.22 1.21 1.22 1.25 1.31 1.31 1.26 1.20 1.15 1.00 0.99 1.01 1.04 1.10 1.13 1.19 1.26 1.18 1.06 0.95 0.91 0.90 0.87
0.86 0.67 0.63 0.75 0.78 0.78 0.84 0.81 0.70 0.63 0.56 0.59 0.70 1.00 1.26 1.27 1.27 1.15 1.09 1.09 1.15 1.17 1.25 1.33 1.32 1.20 1.11 1.12 1.15 1.19 1.26 1.26 1.23 1.19 1.18 1.06 0.96 0.97 1.04 1.12 1.15 1.18 1.24 1.22 1.14 0.99 0.90 0.88 0.84
0.82 0.61 0.73 0.77 0.85 0.93 0.89 0.83 0.81 0.67 0.56 0.55 0.57 0.71 0.90 1.02 1.14 1.12 1.11 1.14 1.15 1.20 1.24 1.22 1.21 1.21 1.16 1.19 1.14 1.13 1.18 1.22 1.23 1.19 1.16 1.15 1.03 1.09 1.06 1.07 1.14 1.17 1.23 1.20 1.16 1.05 0.94 0.89 0.86
0.65 0.73 0.75 0.79 0.93 0.92 0.86 0.86 0.75 0.69 0.63 0.60 0.65 0.71 0.81 0.85 0.90 0.98 1.01 0.98 1.08 1.13 1.20 1.25 1.21 1.13 1.14 1.20 1.18 1.15 1.12 1.22 1.24 1.24 1.24 1.21 1.11 1.14 1.18 1.17 1.16 1.16 1.16 1.14 1.13 1.09 1.03 0.94 0.88
0.60 0.65 0.73 0.80 0.85 0.84 0.91 0.81 0.73 0.69 0.71 0.68 0.73 0.78 0.73 0.80 0.88 0.93 0.95 1.00 1.02 1.00 1.13 1.19 1.24 1.19 1.15 1.13 1.16 1.15 1.16 1.23 1.28 1.30 1.35 1.35 1.25 1.20 1.23 1.23 1.23 1.21 1.21 1.16 1.15 1.11 1.01 0.93 0.88
0.60 0.64 0.68 0.70 0.74 0.76 0.78 0.76 0.77 0.67 0.71 0.65 0.68 0.64 0.63 0.67 0.78 0.93 0.99 0.95 0.98 1.05 1.05 1.17 1.20 1.23 1.22 1.14 1.13 1.13 1.14 1.18 1.22 1.25 1.28 1.30 1.28 1.23 1.20 1.23 1.25 1.27 1.30 1.29 1.23 1.21 1.14 1.01 0.94
0.61 0.51 0.62 0.67 0.67 0.66 0.72 0.63 0.65 0.69 0.66 0.62 0.61 0.62 0.60 0.60 0.62 0.71 0.88 0.97 1.06 1.10 1.15 1.15 1.14 1.23 1.22 1.18 1.19 1.19 1.23 1.22 1.18 1.20 1.19 1.19 1.21 1.20 1.19 1.19 1.20 1.21 1.25 1.27 1.28 1.27 1.21 1.08 1.00
0.53 0.52 0.45 0.59 0.65 0.66 0.62 0.45 0.56 0.65 0.61 0.56 0.57 0.58 0.58 0.58 0.55 0.57 0.65 0.79 0.99 1.11 1.16 1.21 1.25 1.24 1.18 1.19 1.21 1.22 1.26 1.27 1.27 1.20 1.18 1.16 1.16 1.16 1.16 1.15 1.14 1.23 1.26 1.27 1.26 1.22 1.16 1.10 1.01
0.54 0.37 0.42 0.47 0.59 0.60 0.57 0.45 0.53 0.57 0.55 0.52 0.55 0.56 0.55 0.55 0.56 0.57 0.56 0.57 0.63 0.77 0.97 1.06 1.15 1.12 1.16 1.22 1.24 1.23 1.28 1.28 1.27 1.29 1.23 1.19 1.18 1.19 1.18 1.17 1.15 1.19 1.21 1.22 1.24 1.24 1.17 1.06 0.97
0.29 0.32 0.39 0.38 0.51 0.56 0.52 0.49 0.55 0.58 0.56 0.53 0.54 0.54 0.53 0.53 0.53 0.56 0.58 0.59 0.58 0.60 0.67 0.74 0.87 1.05 1.06 1.06 1.13 1.20 1.24 1.24 1.29 1.30 1.31 1.34 1.31 1.28 1.24 1.20 1.21 1.23 1.19 1.20 1.24 1.19 1.22 1.12 1.04
0.38 0.38 0.37 0.43 0.49 0.49 0.45 0.50 0.52 0.58 0.55 0.51 0.50 0.50 0.51 0.52 0.54 0.56 0.57 0.59 0.58 0.58 0.59 0.60 0.60 0.65 0.73 0.91 0.96 0.98 0.97 1.10 1.21 1.29 1.27 1.32 1.33 1.34 1.26 1.24 1.25 1.29 1.23 1.18 1.21 1.22 1.20 1.14 1.12
0.40 0.36 0.35 0.41 0.46 0.46 0.43 0.43 0.52 0.55 0.55 0.52 0.49 0.49 0.49 0.49 0.50 0.51 0.52 0.54 0.56 0.57 0.58 0.58 0.58 0.57 0.58 0.61 0.64 0.79 0.94 1.01 1.04 1.06 1.10 1.13 1.17 1.22 1.24 1.25 1.24 1.21 1.24 1.24 1.25 1.25 1.20 1.19 1.14
0.36 0.31 0.33 0.34 0.44 0.48 0.39 0.35 0.40 0.48 0.53 0.53 0.52 0.48 0.48 0.46 0.44 0.46 0.49 0.52 0.54 0.54 0.55 0.55 0.55 0.54 0.53 0.53 0.55 0.57 0.61 0.73 0.79 0.83 0.88 0.93 0.99 1.00 1.06 1.11 1.18 1.21 1.28 1.19 1.22 1.26 1.16 1.07 1.11
0.30 0.37 0.37 0.35 0.34 0.30 0.39 0.21 0.27 0.34 0.38 0.46 0.48 0.45 0.42 0.42 0.45 0.48 0.50 0.50 0.52 0.54 0.54 0.54 0.54 0.53 0.53 0.53 0.52 0.51 0.50 0.52 0.58 0.68 0.82 0.86 0.93 0.99 1.02 1.01 1.05 1.09 1.18 1.14 1.16 1.20 1.17 1.21 1.05
0.34 0.41 0.39 0.38 0.34 0.33 0.33 0.25 0.25 0.32 0.32 0.36 0.43 0.42 0.41 0.40 0.43 0.45 0.47 0.50 0.54 0.54 0.53 0.53 0.53 0.52 0.53 0.53 0.53 0.50 0.47 0.48 0.50 0.54 0.59 0.67 0.83 0.97 0.98 1.01 0.99 1.03 1.06 1.10 1.14 1.17 1.16 1.12 1.17
0.46 0.40 0.40 0.40 0.37 0.25 0.28 0.27 0.23 0.27 0.27 0.33 0.40 0.43 0.44 0.40 0.43 0.46 0.50 0.53 0.53 0.56 0.55 0.55 0.54 0.54 0.56 0.55 0.53 0.50 0.48 0.49 0.48 0.46 0.46 0.51 0.62 0.79 0.92 0.98 1.06 1.10 1.09 1.13 1.14 1.21 1.18 1.16 1.23
0.45 0.35 0.26 0.24 0.24 0.18 0.26 0.24 0.25 0.31 0.36 0.35 0.37 0.41 0.45 0.44 0.46 0.48 0.49 0.51 0.53 0.54 0.56 0.57 0.57 0.55 0.58 0.58 0.56 0.54 0.52 0.51 0.50 0.51 0.52 0.51 0.57 0.77 0.94 1.02 1.10 1.05 1.10 1.07 1.04 1.05 1.05 1.09 1.06
0.42 0.38 0.26 0.18 0.18 0.19 0.27 0.19 0.23 0.29 0.37 0.39 0.39 0.41 0.45 0.50 0.53 0.53 0.53 0.53 0.54 0.55 0.57 0.57 0.57 0.55 0.57 0.57 0.56 0.59 0.59 0.59 0.59 0.59 0.60 0.64 0.68 0.71 0.88 0.91 0.90 0.94 0.92 0.93 0.90 0.94 0.95 0.96 0.96
0.42 0.36 0.43 0.33 0.29 0.25 0.22 0.24 0.30 0.32 0.33 0.39 0.38 0.40 0.42 0.48 0.52 0.51 0.53 0.54 0.56 0.57 0.58 0.57 0.56 0.56 0.56 0.56 0.57 0.58 0.61 0.63 0.65 0.66 0.66 0.63 0.69 0.76 0.79 0.81 0.82 0.88 0.89 0.82 0.84 0.85 0.88 0.93 0.92
0.49 0.52 0.37 0.36 0.23 0.19 0.23 0.22 0.19 0.25 0.28 0.35 0.38 0.39 0.41 0.47 0.50 0.51 0.54 0.55 0.57 0.58 0.59 0.59 0.58 0.56 0.56 0.56 0.57 0.57 0.59 0.61 0.63 0.63 0.61 0.64 0.68 0.78 0.82 0.82 0.79 0.73 0.72 0.75 0.77 0.76 0.80 0.81 0.85
0.47 0.42 0.42 0.38 0.34 0.23 0.19 0.20 0.29 0.28 0.30 0.32 0.36 0.39 0.41 0.50 0.50 0.53 0.57 0.58 0.59 0.60 0.60 0.59 0.59 0.58 0.57 0.58 0.60 0.60 0.61 0.63 0.63 0.63 0.65 0.69 0.73 0.76 0.76 0.76 0.73 0.69 0.70 0.72 0.70 0.70 0.71 0.69 0.70
0.53 0.46 0.42 0.31 0.29 0.29 0.26 0.23 0.32 0.31 0.32 0.33 0.33 0.38 0.46 0.51 0.55 0.58 0.59 0.59 0.59 0.59 0.60 0.59 0.59 0.59 0.59 0.59 0.60 0.61 0.62 0.63 0.63 0.65 0.67 0.72 0.73 0.74 0.72 0.72 0.68 0.68 0.67 0.67 0.69 0.69 0.71 0.70 0.70

GFSSGP_prec_pwat_042.txt.gz
Precipitable_Water
1.00 0.93 0.94 0.75 0.42 0.40 0.26 0.26 0.36 0.31 0.36 0.49 0.55 0.59 0.68 0.77 0.72 0.59 1.31 1.35 1.42 1.36 1.32 1.30 1.41 1.39 1.46 1.45 1.45 1.41 1.32 1.29 1.28 1.19 1.17 1.09 1.01 0.99 1.15 1.32 1.39 1.31 1.15 1.01 0.86 0.81 0.80 0.81 0.85
1.05 0.91 0.86 0.66 0.40 0.26 0.24 0.38 0.35 0.35 0.38 0.45 0.50 0.59 0.64 0.71 1.02 1.10 1.18 1.39 1.39 1.35 1.31 1.31 1.36 1.41 1.43 1.44 1.47 1.47 1.41 1.30 1.19 1.15 1.11 0.99 0.89 1.26 1.28 1.31 1.37 1.27 1.09 0.93 0.74 0.72 0.71 0.69 0.71
1.07 0.97 0.68 0.57 0.45 0.29 0.27 0.42 0.41 0.42 0.43 0.39 0.40 0.61 0.68 0.75 1.00 1.10 1.34 1.39 1.43 1.34 1.31 1.30 1.32 1.49 1.43 1.41 1.46 1.47 1.44 1.33 1.20 1.12 0.99 0.88 0.90 1.27 1.28 1.29 1.26 1.19 1.09 0.92 0.79 0.82 0.83 0.79 0.77
0.96 0.91 0.77 0.52 0.41 0.44 0.46 0.50 0.48 0.44 0.46 0.45 0.45 0.46 0.79 1.03 1.02 1.18 1.39 1.45 1.36 1.32 1.31 1.31 1.41 1.52 1.40 1.43 1.47 1.46 1.40 1.31 1.27 1.13 0.93 0.88 1.00 1.19 1.20 1.19 1.16 1.12 1.06 0.86 0.88 0.89 0.89 0.87 0.85
1.01 0.87 0.62 0.51 0.46 0.54 0.60 0.59 0.53 0.45 0.46 0.44 0.47 0.50 0.67 1.03 1.19 1.26 1.32 1.38 1.33 1.34 1.38 1.40 1.35 1.41 1.48 1.46 1.47 1.43 1.40 1.32 1.28 1.14 0.94 0.97 1.04 1.08 1.14 1.11 1.08 1.03 0.94 0.93 0.97 0.95 0.94 0.93 0.94
0.84 0.86 0.59 0.50 0.49 0.61 0.66 0.66 0.58 0.49 0.48 0.54 0.56 0.56 0.73 1.07 1.06 1.17 1.31 1.38 1.43 1.33 1.33 1.34 1.34 1.34 1.44 1.43 1.43 1.42 1.39 1.32 1.22 1.13 1.00 1.01 1.04 1.06 1.08 1.08 1.07 1.01 0.95 1.00 0.98 0.92 0.90 0.90 0.91
0.77 0.71 0.63 0.62 0.58 0.60 0.69 0.74 0.59 0.55 0.51 0.51 0.76 0.60 0.82 0.96 1.09 1.22 1.27 1.40 1.45 1.43 1.34 1.30 1.28 1.28 1.37 1.38 1.34 1.41 1.41 1.31 1.20 1.15 1.04 1.02 0.98 1.01 1.08 1.12 1.12 1.06 1.07 1.04 0.96 0.92 0.91 0.92 0.93
0.86 0.75 0.63 0.67 0.61 0.61 0.78 0.75 0.70 0.59 0.55 0.68 0.83 0.66 0.73 1.04 1.22 1.30 1.38 1.37 1.38 1.41 1.40 1.37 1.34 1.27 1.29 1.30 1.32 1.35 1.38 1.32 1.21 1.13 1.02 0.99 0.99 1.04 1.05 1.05 1.04 1.15 1.21 1.09 1.01 0.93 0.92 0.92 0.89
1.01 0.68 0.59 0.65 0.67 0.69 0.85 0.78 0.77 0.71 0.64 0.70 0.82 0.89 1.06 1.24 1.31 1.30 1.32 1.35 1.36 1.38 1.38 1.35 1.25 1.22 1.20 1.24 1.28 1.33 1.33 1.29 1.24 1.17 1.07 0.96 0.95 1.00 1.02 1.02 1.05 1.17 1.21 1.16 1.06 0.98 0.96 0.93 0.88
0.82 0.61 0.60 0.73 0.77 0.78 0.86 0.86 0.81 0.70 0.64 0.69 0.80 1.06 1.23 1.27 1.22 1.16 1.20 1.19 1.22 1.27 1.32 1.30 1.21 1.16 1.19 1.21 1.22 1.27 1.28 1.27 1.22 1.16 1.13 1.01 0.97 1.00 1.02 1.07 1.10 1.16 1.21 1.20 1.13 1.01 0.96 0.93 0.88
0.79 0.58 0.71 0.76 0.83 0.91 0.89 0.87 0.89 0.74 0.60 0.66 0.68 0.94 1.17 1.19 1.21 1.20 1.20 1.22 1.19 1.26 1.27 1.30 1.29 1.25 1.15 1.14 1.16 1.17 1.22 1.21 1.19 1.17 1.14 1.12 0.98 1.00 1.06 1.11 1.14 1.15 1.16 1.18 1.16 1.07 0.95 0.91 0.89
0.70 0.79 0.78 0.81 0.91 0.87 0.86 0.96 0.82 0.77 0.68 0.72 0.75 0.81 0.98 1.08 1.12 1.13 1.18 1.21 1.23 1.22 1.23 1.26 1.25 1.18 1.16 1.15 1.13 1.10 1.11 1.17 1.19 1.19 1.17 1.12 1.05 1.03 1.08 1.08 1.09 1.10 1.12 1.11 1.12 1.08 1.04 0.94 0.90
0.68 0.73 0.83 0.89 0.90 0.91 0.93 0.88 0.87 0.78 0.79 0.77 0.85 0.83 0.76 0.89 1.01 1.14 1.22 1.27 1.28 1.20 1.18 1.18 1.22 1.14 1.13 1.13 1.11 1.09 1.10 1.08 1.16 1.24 1.26 1.27 1.21 1.13 1.20 1.24 1.26 1.26 1.23 1.17 1.08 1.05 1.05 1.00 0.94
0.70 0.73 0.77 0.84 0.85 0.88 0.85 0.81 0.89 0.77 0.78 0.81 0.84 0.83 0.80 0.80 0.87 0.95 0.97 1.01 1.09 1.19 1.18 1.20 1.19 1.19 1.12 1.10 1.09 1.06 1.08 1.12 1.20 1.26 1.27 1.28 1.27 1.19 1.18 1.20 1.21 1.26 1.30 1.28 1.24 1.18 1.13 1.07 0.99
0.59 0.60 0.69 0.70 0.73 0.73 0.84 0.74 0.76 0.79 0.78 0.78 0.76 0.70 0.70 0.74 0.89 0.87 0.98 1.02 1.06 1.06 1.10 1.17 1.21 1.25 1.20 1.15 1.14 1.10 1.11 1.17 1.18 1.22 1.26 1.24 1.21 1.17 1.11 1.09 1.08 1.13 1.20 1.21 1.21 1.21 1.21 1.17 1.11
0.49 0.51 0.47 0.58 0.65 0.72 0.72 0.54 0.76 0.79 0.75 0.69 0.69 0.68 0.64 0.64 0.64 0.74 0.88 0.93 1.02 1.11 1.15 1.23 1.25 1.25 1.26 1.24 1.22 1.17 1.17 1.15 1.15 1.15 1.18 1.21 1.20 1.19 1.15 1.11 1.09 1.15 1.17 1.18 1.16 1.13 1.09 1.06 1.02
0.45 0.32 0.38 0.47 0.62 0.64 0.62 0.54 0.72 0.75 0.75 0.66 0.66 0.65 0.64 0.62 0.62 0.62 0.64 0.81 0.88 0.96 1.02 1.11 1.23 1.24 1.26 1.30 1.30 1.27 1.26 1.22 1.23 1.23 1.18 1.15 1.18 1.20 1.21 1.20 1.20 1.25 1.24 1.22 1.20 1.17 1.14 1.07 1.03
0.24 0.29 0.33 0.38 0.53 0.58 0.55 0.55 0.63 0.63 0.59 0.59 0.64 0.64 0.59 0.59 0.59 0.62 0.62 0.62 0.63 0.70 0.85 1.00 1.09 1.12 1.17 1.23 1.22 1.21 1.22 1.24 1.29 1.25 1.23 1.28 1.30 1.30 1.31 1.32 1.31 1.31 1.27 1.25 1.28 1.23 1.24 1.20 1.15
0.38 0.37 0.36 0.43 0.54 0.51 0.50 0.52 0.58 0.60 0.56 0.53 0.53 0.53 0.53 0.54 0.57 0.59 0.61 0.62 0.62 0.63 0.64 0.71 0.77 0.87 1.02 1.10 1.09 1.06 1.00 1.07 1.13 1.22 1.29 1.33 1.36 1.37 1.34 1.29 1.22 1.20 1.19 1.18 1.22 1.28 1.22 1.22 1.25
0.39 0.36 0.37 0.44 0.50 0.49 0.48 0.45 0.54 0.57 0.56 0.55 0.53 0.53 0.53 0.54 0.54 0.56 0.58 0.61 0.62 0.63 0.64 0.64 0.65 0.67 0.68 0.72 0.81 0.97 1.01 1.03 1.07 1.10 1.13 1.18 1.20 1.21 1.17 1.17 1.17 1.18 1.18 1.22 1.21 1.22 1.13 1.19 1.23
0.36 0.33 0.36 0.36 0.44 0.49 0.43 0.39 0.44 0.50 0.55 0.58 0.57 0.55 0.53 0.51 0.51 0.53 0.57 0.60 0.63 0.62 0.63 0.63 0.63 0.63 0.64 0.64 0.64 0.63 0.64 0.72 0.83 0.88 0.94 0.97 1.02 1.08 1.12 1.09 1.06 1.06 1.06 1.00 1.06 1.13 1.17 1.06 1.13
0.30 0.40 0.38 0.37 0.36 0.29 0.41 0.26 0.32 0.39 0.42 0.49 0.54 0.54 0.53 0.51 0.49 0.53 0.54 0.57 0.59 0.60 0.61 0.61 0.61 0.60 0.60 0.62 0.61 0.57 0.53 0.49 0.54 0.60 0.66 0.71 0.83 0.89 0.96 1.01 1.02 0.99 1.01 1.01 1.03 1.08 1.11 1.09 0.98
0.35 0.40 0.36 0.36 0.34 0.33 0.34 0.29 0.30 0.33 0.30 0.35 0.43 0.49 0.50 0.52 0.51 0.51 0.53 0.56 0.59 0.60 0.58 0.57 0.56 0.55 0.57 0.57 0.55 0.52 0.50 0.53 0.55 0.55 0.54 0.57 0.61 0.70 0.76 0.92 0.96 0.97 0.99 0.98 1.01 1.03 1.03 1.05 1.06
0.46 0.40 0.39 0.39 0.35 0.23 0.28 0.28 0.25 0.28 0.26 0.30 0.37 0.43 0.47 0.52 0.54 0.56 0.55 0.57 0.56 0.59 0.58 0.56 0.54 0.54 0.56 0.55 0.54 0.52 0.49 0.48 0.48 0.50 0.51 0.53 0.53 0.54 0.63 0.75 0.82 0.92 1.04 1.07 1.11 1.15 1.13 1.05 1.05
0.42 0.34 0.24 0.22 0.22 0.17 0.30 0.28 0.25 0.31 0.33 0.33 0.35 0.39 0.45 0.50 0.52 0.54 0.53 0.52 0.53 0.53 0.54 0.55 0.55 0.54 0.57 0.56 0.56 0.55 0.54 0.53 0.51 0.51 0.51 0.51 0.52 0.55 0.59 0.75 0.89 0.99 1.02 1.09 1.09 0.98 0.97 0.91 0.89
0.37 0.32 0.21 0.15 0.16 0.18 0.29 0.20 0.22 0.30 0.32 0.37 0.42 0.44 0.45 0.48 0.53 0.53 0.54 0.53 0.52 0.53 0.54 0.56 0.56 0.55 0.57 0.56 0.56 0.58 0.59 0.59 0.60 0.59 0.59 0.59 0.60 0.69 0.77 0.81 0.88 0.96 0.94 0.89 0.88 0.87 0.88 0.84 0.85
0.39 0.30 0.37 0.26 0.26 0.21 0.22 0.23 0.27 0.31 0.28 0.32 0.38 0.42 0.40 0.45 0.51 0.54 0.57 0.54 0.54 0.56 0.58 0.59 0.58 0.58 0.58 0.57 0.57 0.58 0.60 0.61 0.62 0.65 0.67 0.67 0.69 0.70 0.79 0.81 0.79 0.81 0.85 0.90 0.88 0.81 0.76 0.80 0.81
0.44 0.45 0.30 0.32 0.20 0.17 0.21 0.22 0.20 0.25 0.26 0.31 0.34 0.37 0.43 0.48 0.51 0.53 0.55 0.57 0.60 0.61 0.61 0.62 0.61 0.59 0.59 0.59 0.59 0.59 0.60 0.61 0.62 0.63 0.62 0.65 0.67 0.70 0.75 0.77 0.79 0.80 0.76 0.73 0.74 0.72 0.71 0.69 0.70
0.40 0.37 0.39 0.38 0.32 0.22 0.20 0.20 0.30 0.29 0.30 0.31 0.35 0.40 0.48 0.50 0.49 0.50 0.54 0.59 0.60 0.61 0.61 0.61 0.60 0.59 0.58 0.59 0.60 0.60 0.61 0.62 0.63 0.63 0.64 0.67 0.68 0.70 0.72 0.75 0.77 0.74 0.71 0.70 0.68 0.67 0.65 0.64 0.65
0.48 0.41 0.41 0.32 0.29 0.32 0.28 0.24 0.34 0.33 0.34 0.37 0.38 0.42 0.47 0.52 0.53 0.55 0.57 0.60 0.60 0.60 0.61 0.61 0.60 0.59 0.60 0.60 0.60 0.60 0.60 0.62 0.63 0.64 0.66 0.67 0.67 0.70 0.71 0.73 0.71 0.69 0.67 0.67 0.65 0.62 0.64 0.64 0.63

GFSSGP_prec_pwat_045.txt.gz
Precipitable_Water
1.09 0.97 0.91 0.72 0.41 0.40 0.25 0.25 0.35 0.37 0.46 0.54 0.60 0.59 0.60 0.81 0.74 0.61 1.32 1.30 1.36 1.30 1.31 1.41 1.36 1.42 1.44 1.54 1.48 1.41 1.33 1.28 1.23 1.11 1.08 1.02 0.98 1.10 1.24 1.37 1.24 1.10 0.99 0.85 0.80 0.83 0.87 0.93 0.93
1.11 0.94 0.83 0.62 0.38 0.27 0.25 0.31 0.29 0.35 0.47 0.67 0.69 0.72 0.68 0.71 1.07 1.17 1.19 1.41 1.42 1.28 1.27 1.43 1.39 1.39 1.41 1.44 1.49 1.45 1.38 1.25 1.12 1.09 1.02 0.93 1.03 1.15 1.26 1.34 1.26 1.13 0.97 0.77 0.73 0.72 0.71 0.75 0.84
1.13 0.96 0.65 0.53 0.41 0.28 0.26 0.35 0.39 0.40 0.45 0.49 0.54 0.78 0.76 0.74 1.06 1.19 1.41 1.46 1.44 1.31 1.23 1.41 1.37 1.45 1.39 1.42 1.44 1.43 1.41 1.28 1.17 1.08 0.94 0.87 1.23 1.23 1.23 1.27 1.20 1.08 0.96 0.76 0.78 0.78 0.77 0.80 0.86
1.01 0.87 0.72 0.49 0.38 0.40 0.43 0.46 0.49 0.44 0.46 0.47 0.56 0.57 0.88 1.08 1.08 1.29 1.48 1.46 1.36 1.30 1.25 1.35 1.36 1.41 1.40 1.44 1.46 1.45 1.36 1.29 1.24 1.10 0.88 0.94 1.24 1.24 1.22 1.19 1.16 1.09 0.97 0.85 0.89 0.89 0.86 0.85 0.91
1.03 0.84 0.55 0.47 0.43 0.47 0.57 0.58 0.55 0.47 0.47 0.47 0.53 0.53 0.70 1.03 1.27 1.37 1.43 1.41 1.28 1.25 1.27 1.31 1.36 1.42 1.39 1.46 1.48 1.43 1.33 1.25 1.25 1.10 0.95 1.06 1.20 1.20 1.20 1.14 1.09 1.03 0.90 0.92 0.93 0.92 0.91 0.90 0.96
0.84 0.82 0.53 0.43 0.44 0.52 0.62 0.66 0.59 0.50 0.48 0.57 0.53 0.57 0.71 1.11 1.14 1.30 1.41 1.39 1.38 1.24 1.26 1.33 1.45 1.39 1.41 1.48 1.48 1.43 1.38 1.28 1.18 1.05 0.99 1.07 1.15 1.17 1.18 1.17 1.11 1.00 0.94 0.99 0.97 0.95 0.94 0.94 0.97
0.80 0.70 0.58 0.55 0.49 0.53 0.62 0.72 0.62 0.52 0.47 0.52 0.72 0.53 0.75 0.92 1.17 1.29 1.38 1.44 1.43 1.37 1.31 1.30 1.31 1.38 1.43 1.47 1.46 1.44 1.39 1.30 1.18 1.06 0.98 1.08 1.05 1.05 1.08 1.09 1.09 1.04 1.09 1.08 1.00 0.95 0.93 0.96 0.97
0.90 0.79 0.63 0.62 0.52 0.54 0.71 0.71 0.75 0.62 0.49 0.74 0.86 0.60 0.59 0.88 1.20 1.31 1.36 1.39 1.40 1.38 1.33 1.27 1.24 1.28 1.38 1.44 1.40 1.41 1.38 1.33 1.22 1.11 1.00 0.97 0.98 1.03 1.08 1.08 1.06 1.04 1.09 1.03 1.00 0.98 0.99 1.00 0.99
1.00 0.68 0.56 0.58 0.56 0.60 0.78 0.71 0.80 0.76 0.63 0.76 0.88 0.85 0.95 1.07 1.20 1.20 1.17 1.21 1.28 1.36 1.37 1.35 1.30 1.22 1.32 1.36 1.35 1.35 1.36 1.31 1.27 1.17 1.03 0.98 0.99 1.03 1.05 1.06 1.04 1.14 1.15 1.08 1.00 0.95 0.96 0.96 0.94
0.82 0.68 0.60 0.69 0.69 0.68 0.77 0.79 0.80 0.70 0.62 0.69 0.82 1.00 1.14 1.15 1.15 1.09 1.09 1.11 1.18 1.22 1.29 1.33 1.32 1.22 1.24 1.28 1.30 1.31 1.33 1.29 1.26 1.21 1.10 0.96 0.95 1.00 1.03 1.03 1.06 1.16 1.19 1.18 1.11 1.00 0.96 0.94 0.88
0.83 0.66 0.73 0.76 0.78 0.82 0.77 0.83 0.90 0.75 0.60 0.70 0.78 0.87 1.05 1.12 1.12 1.13 1.17 1.23 1.21 1.30 1.33 1.30 1.26 1.23 1.19 1.21 1.27 1.29 1.28 1.26 1.23 1.20 1.14 1.09 0.95 0.98 1.00 1.03 1.08 1.11 1.15 1.13 1.13 1.08 0.95 0.89 0.89
0.64 0.78 0.78 0.81 0.82 0.81 0.78 0.91 0.86 0.82 0.74 0.78 0.85 1.16 1.05 1.03 1.09 1.11 1.16 1.22 1.21 1.24 1.27 1.31 1.31 1.22 1.16 1.17 1.17 1.20 1.21 1.20 1.17 1.16 1.16 1.10 1.04 0.94 0.95 0.99 1.07 1.10 1.13 1.08 1.10 1.09 1.05 0.95 0.89
0.68 0.72 0.81 0.85 0.84 0.87 0.89 0.85 0.89 0.82 0.86 0.82 0.79 1.07 1.04 1.05 1.13 1.21 1.26 1.27 1.27 1.22 1.26 1.28 1.30 1.25 1.21 1.16 1.16 1.12 1.12 1.14 1.13 1.14 1.16 1.16 1.13 1.09 1.04 1.11 1.17 1.20 1.26 1.21 1.17 1.14 1.08 1.04 0.98
0.73 0.76 0.80 0.85 0.81 0.87 0.81 0.84 0.92 0.83 0.89 0.83 0.87 0.94 0.97 0.99 1.08 1.16 1.22 1.21 1.22 1.25 1.26 1.29 1.27 1.26 1.20 1.14 1.15 1.13 1.15 1.14 1.11 1.14 1.21 1.22 1.22 1.20 1.13 1.14 1.16 1.18 1.23 1.25 1.22 1.17 1.13 1.11 1.10
0.68 0.65 0.76 0.78 0.78 0.81 0.89 0.76 0.79 0.87 0.88 0.83 0.85 0.98 0.91 0.94 1.04 1.06 1.14 1.18 1.23 1.25 1.29 1.23 1.23 1.26 1.18 1.17 1.20 1.18 1.16 1.16 1.13 1.18 1.26 1.26 1.22 1.17 1.14 1.09 1.08 1.11 1.16 1.17 1.18 1.18 1.17 1.13 1.14
0.52 0.60 0.53 0.71 0.76 0.80 0.79 0.56 0.81 0.92 0.84 0.81 0.83 0.88 0.88 0.88 0.89 0.95 1.03 1.07 1.12 1.16 1.19 1.21 1.25 1.24 1.23 1.19 1.21 1.23 1.21 1.15 1.14 1.17 1.23 1.26 1.26 1.25 1.18 1.10 1.08 1.14 1.18 1.19 1.17 1.17 1.15 1.14 1.14
0.45 0.33 0.44 0.54 0.69 0.67 0.66 0.57 0.72 0.86 0.83 0.77 0.77 0.74 0.73 0.72 0.70 0.71 0.84 0.98 1.02 1.07 1.16 1.21 1.25 1.24 1.27 1.29 1.29 1.27 1.24 1.18 1.17 1.19 1.20 1.23 1.24 1.24 1.21 1.15 1.17 1.26 1.29 1.25 1.25 1.23 1.22 1.14 1.16
0.24 0.27 0.36 0.40 0.55 0.63 0.60 0.57 0.67 0.80 0.81 0.73 0.73 0.73 0.71 0.69 0.69 0.69 0.68 0.73 0.93 0.94 1.00 1.08 1.20 1.28 1.30 1.31 1.31 1.30 1.27 1.23 1.24 1.21 1.21 1.22 1.20 1.21 1.26 1.35 1.36 1.36 1.33 1.28 1.23 1.16 1.20 1.19 1.18
0.33 0.32 0.33 0.43 0.53 0.54 0.57 0.56 0.62 0.73 0.77 0.68 0.68 0.68 0.69 0.69 0.69 0.69 0.69 0.68 0.68 0.71 0.78 0.89 0.97 1.03 1.15 1.14 1.10 1.11 1.06 1.14 1.18 1.22 1.25 1.28 1.32 1.33 1.31 1.32 1.25 1.23 1.17 1.19 1.23 1.20 1.19 1.20 1.25
0.33 0.30 0.31 0.42 0.48 0.51 0.54 0.53 0.60 0.66 0.67 0.68 0.61 0.59 0.62 0.65 0.65 0.63 0.64 0.66 0.67 0.66 0.68 0.70 0.75 0.78 0.84 0.94 1.06 1.14 1.12 1.13 1.11 1.10 1.12 1.16 1.19 1.21 1.19 1.20 1.26 1.23 1.16 1.12 1.09 1.06 1.00 1.05 1.14
0.34 0.28 0.31 0.32 0.43 0.51 0.49 0.45 0.50 0.56 0.62 0.66 0.62 0.61 0.60 0.60 0.57 0.57 0.60 0.63 0.66 0.66 0.67 0.68 0.68 0.68 0.69 0.68 0.70 0.71 0.76 0.80 0.87 0.94 0.97 1.05 1.13 1.14 1.16 1.13 1.10 1.07 1.07 0.99 1.00 1.02 0.99 0.91 0.99
0.30 0.40 0.39 0.38 0.38 0.31 0.47 0.29 0.38 0.45 0.50 0.55 0.58 0.58 0.57 0.57 0.56 0.57 0.59 0.61 0.64 0.67 0.70 0.70 0.68 0.66 0.66 0.65 0.62 0.59 0.56 0.55 0.60 0.64 0.67 0.67 0.71 0.76 0.85 0.91 0.94 0.96 0.98 0.96 0.96 0.99 0.96 0.97 0.88
0.34 0.40 0.38 0.38 0.35 0.34 0.34 0.32 0.32 0.38 0.36 0.43 0.46 0.52 0.58 0.58 0.56 0.57 0.60 0.61 0.65 0.66 0.65 0.66 0.66 0.65 0.65 0.63 0.60 0.56 0.54 0.57 0.59 0.59 0.57 0.57 0.59 0.62 0.65 0.73 0.76 0.82 0.95 0.94 0.94 0.97 0.97 1.01 0.98
0.45 0.39 0.37 0.37 0.33 0.23 0.29 0.29 0.24 0.29 0.31 0.35 0.35 0.40 0.51 0.55 0.57 0.60 0.65 0.66 0.63 0.64 0.64 0.64 0.62 0.60 0.60 0.58 0.57 0.56 0.54 0.53 0.51 0.52 0.52 0.55 0.59 0.61 0.61 0.63 0.72 0.75 0.82 0.89 0.98 1.05 1.06 1.06 1.07
0.42 0.34 0.24 0.21 0.21 0.18 0.28 0.26 0.20 0.29 0.33 0.35 0.36 0.35 0.40 0.47 0.53 0.58 0.62 0.63 0.63 0.62 0.59 0.59 0.58 0.55 0.56 0.55 0.56 0.56 0.56 0.56 0.55 0.55 0.54 0.53 0.53 0.55 0.62 0.67 0.72 0.80 0.93 1.00 1.07 0.99 1.01 0.98 0.85
0.40 0.36 0.24 0.16 0.17 0.20 0.28 0.18 0.19 0.29 0.34 0.37 0.39 0.38 0.40 0.45 0.51 0.56 0.60 0.61 0.60 0.61 0.58 0.56 0.55 0.53 0.55 0.56 0.56 0.58 0.59 0.59 0.59 0.61 0.60 0.61 0.61 0.63 0.74 0.80 0.82 0.83 0.91 1.02 1.02 0.96 0.90 0.89 0.87
0.39 0.32 0.38 0.25 0.25 0.19 0.20 0.21 0.24 0.27 0.29 0.32 0.32 0.36 0.38 0.44 0.51 0.54 0.58 0.60 0.61 0.60 0.59 0.56 0.56 0.56 0.56 0.57 0.59 0.58 0.60 0.60 0.59 0.62 0.66 0.67 0.70 0.71 0.72 0.80 0.81 0.80 0.80 0.81 0.86 0.89 0.88 0.84 0.77
0.42 0.43 0.29 0.29 0.17 0.14 0.17 0.18 0.16 0.23 0.26 0.31 0.33 0.32 0.39 0.46 0.52 0.53 0.55 0.59 0.62 0.61 0.63 0.61 0.59 0.58 0.60 0.61 0.61 0.60 0.60 0.61 0.62 0.64 0.65 0.67 0.69 0.70 0.70 0.72 0.75 0.74 0.76 0.77 0.75 0.72 0.72 0.69 0.68
0.39 0.37 0.36 0.34 0.28 0.18 0.15 0.17 0.27 0.27 0.30 0.31 0.34 0.37 0.40 0.44 0.49 0.52 0.56 0.58 0.59 0.63 0.64 0.64 0.62 0.61 0.62 0.63 0.63 0.62 0.62 0.64 0.64 0.64 0.64 0.66 0.67 0.69 0.70 0.71 0.72 0.73 0.72 0.73 0.70 0.68 0.67 0.64 0.63
0.49 0.40 0.39 0.27 0.24 0.27 0.24 0.20 0.34 0.35 0.33 0.35 0.37 0.41 0.45 0.49 0.52 0.55 0.57 0.58 0.59 0.61 0.63 0.63 0.65 0.63 0.64 0.65 0.64 0.63 0.63 0.62 0.62 0.62 0.62 0.65 0.67 0.70 0.70 0.71 0.71 0.71 0.71 0.70 0.65 0.62 0.63 0.61 0.57

GFSSGP_prec_pwat_048.txt.gz
Precipitable_Water
1.23 1.04 0.96 0.74 0.40 0.38 0.27 0.30 0.46 0.50 0.54 0.58 0.65 0.61 0.61 0.75 0.73 0.60 1.36 1.31 1.30 1.28 1.38 1.34 1.36 1.32 1.34 1.39 1.40 1.35 1.28 1.23 1.16 1.05 1.01 0.99 1.05 1.15 1.31 1.17 1.05 0.95 0.84 0.78 0.85 0.90 0.96 0.96 1.02
1.27 1.02 0.87 0.63 0.39 0.27 0.26 0.33 0.34 0.46 0.57 0.76 0.73 0.73 0.70 0.73 1.01 1.13 1.17 1.38 1.36 1.33 1.33 1.37 1.32 1.38 1.41 1.43 1.44 1.40 1.36 1.27 1.12 1.06 0.97 0.94 1.04 1.17 1.28 1.21 1.12 1.01 0.83 0.77 0.77 0.79 0.85 0.91 0.96
1.16 1.03 0.69 0.53 0.41 0.30 0.26 0.35 0.38 0.47 0.55 0.71 0.66 0.83 0.80 0.79 1.15 1.19 1.34 1.44 1.47 1.30 1.36 1.38 1.35 1.36 1.41 1.44 1.43 1.41 1.39 1.29 1.19 1.05 0.93 1.11 1.17 1.22 1.28 1.24 1.14 1.04 0.81 0.80 0.80 0.79 0.80 0.86 0.92
1.00 0.90 0.76 0.49 0.38 0.40 0.39 0.45 0.46 0.45 0.47 0.58 0.62 0.64 0.92 1.15 1.16 1.36 1.45 1.50 1.45 1.28 1.39 1.46 1.37 1.37 1.38 1.45 1.42 1.45 1.36 1.31 1.25 1.05 0.93 1.24 1.25 1.27 1.26 1.18 1.12 1.03 0.84 0.88 0.90 0.88 0.90 0.93 0.95
1.05 0.81 0.57 0.47 0.44 0.46 0.50 0.54 0.56 0.46 0.45 0.47 0.67 0.59 0.72 1.10 1.31 1.48 1.43 1.50 1.39 1.30 1.39 1.43 1.42 1.38 1.37 1.44 1.47 1.43 1.34 1.27 1.22 1.04 0.99 1.28 1.27 1.26 1.24 1.19 1.12 1.01 0.90 0.94 0.95 0.94 0.91 0.94 0.99
0.81 0.78 0.53 0.44 0.44 0.50 0.56 0.61 0.60 0.53 0.46 0.52 0.61 0.65 0.76 1.21 1.27 1.41 1.49 1.44 1.42 1.28 1.35 1.38 1.41 1.38 1.37 1.48 1.50 1.42 1.34 1.27 1.17 1.01 0.99 1.25 1.27 1.21 1.19 1.16 1.11 1.00 1.00 1.01 0.98 0.95 0.95 0.96 1.01
0.74 0.64 0.53 0.55 0.47 0.45 0.56 0.69 0.60 0.56 0.48 0.50 0.81 0.59 0.79 1.04 1.30 1.42 1.43 1.44 1.40 1.34 1.30 1.31 1.42 1.39 1.37 1.49 1.49 1.44 1.39 1.32 1.17 1.03 1.00 1.01 1.06 1.17 1.21 1.15 1.07 0.98 1.03 1.01 0.97 0.96 0.99 1.01 1.01
0.90 0.72 0.59 0.60 0.51 0.44 0.63 0.70 0.73 0.61 0.51 0.73 0.91 0.61 0.58 0.96 1.26 1.36 1.40 1.42 1.41 1.34 1.28 1.31 1.36 1.38 1.39 1.48 1.46 1.43 1.39 1.32 1.20 1.11 1.04 1.04 1.03 1.03 1.06 1.09 1.08 1.01 1.06 1.00 0.97 0.96 0.96 0.99 1.00
1.05 0.65 0.54 0.57 0.57 0.53 0.69 0.67 0.80 0.76 0.63 0.71 0.96 0.90 0.94 1.10 1.20 1.20 1.21 1.29 1.35 1.34 1.30 1.28 1.25 1.33 1.37 1.42 1.43 1.41 1.35 1.31 1.28 1.16 1.03 1.02 1.01 1.06 1.10 1.09 1.08 1.12 1.12 1.03 0.98 0.93 0.95 0.96 0.95
0.81 0.65 0.59 0.70 0.71 0.65 0.70 0.73 0.77 0.68 0.62 0.68 0.77 0.98 1.20 1.17 1.10 1.02 1.04 1.05 1.19 1.26 1.30 1.34 1.31 1.27 1.29 1.38 1.41 1.34 1.32 1.32 1.31 1.23 1.10 0.94 0.95 1.01 1.05 1.05 1.05 1.12 1.18 1.14 1.07 0.96 0.92 0.89 0.85
0.83 0.59 0.74 0.75 0.77 0.80 0.73 0.75 0.85 0.72 0.59 0.66 0.66 0.73 1.05 1.19 1.11 1.07 1.09 1.13 1.15 1.24 1.29 1.34 1.33 1.31 1.25 1.31 1.35 1.31 1.28 1.29 1.27 1.23 1.16 1.06 0.92 0.95 0.98 0.96 1.00 1.08 1.15 1.12 1.11 1.07 0.98 0.87 0.83
0.63 0.79 0.78 0.81 0.84 0.78 0.73 0.82 0.77 0.80 0.73 0.82 0.77 0.82 0.97 1.12 1.10 1.09 1.11 1.17 1.19 1.23 1.26 1.27 1.26 1.24 1.23 1.30 1.30 1.30 1.27 1.25 1.20 1.20 1.18 1.09 1.03 0.94 0.92 0.93 1.01 1.05 1.11 1.12 1.12 1.09 1.09 1.02 0.95
0.65 0.70 0.76 0.86 0.86 0.84 0.85 0.78 0.79 0.81 0.86 0.87 0.82 0.87 0.96 1.12 1.18 1.22 1.25 1.30 1.28 1.23 1.26 1.29 1.30 1.22 1.20 1.17 1.20 1.23 1.21 1.19 1.16 1.16 1.16 1.13 1.07 1.05 1.03 0.98 1.07 1.15 1.20 1.21 1.17 1.17 1.16 1.13 1.09
0.66 0.73 0.75 0.83 0.84 0.85 0.77 0.77 0.82 0.83 0.90 0.84 0.82 0.85 1.01 1.11 1.18 1.25 1.24 1.21 1.23 1.25 1.26 1.30 1.29 1.30 1.27 1.19 1.17 1.16 1.15 1.16 1.15 1.10 1.12 1.17 1.18 1.18 1.17 1.08 1.10 1.15 1.18 1.19 1.17 1.14 1.13 1.12 1.12
0.68 0.63 0.72 0.75 0.80 0.78 0.84 0.68 0.70 0.86 0.92 0.84 0.81 0.85 0.91 1.08 1.17 1.20 1.28 1.24 1.24 1.25 1.28 1.27 1.29 1.32 1.27 1.24 1.22 1.21 1.20 1.20 1.16 1.14 1.17 1.21 1.24 1.20 1.16 1.13 1.09 1.11 1.15 1.15 1.17 1.20 1.21 1.17 1.19
0.56 0.62 0.54 0.67 0.77 0.81 0.76 0.53 0.74 0.87 0.89 0.82 0.84 0.84 0.84 0.97 1.05 1.18 1.30 1.31 1.33 1.32 1.28 1.33 1.36 1.34 1.32 1.26 1.25 1.25 1.26 1.23 1.22 1.20 1.18 1.19 1.22 1.23 1.19 1.15 1.13 1.16 1.16 1.17 1.21 1.23 1.21 1.21 1.20
0.47 0.36 0.46 0.58 0.74 0.72 0.67 0.58 0.73 0.84 0.90 0.83 0.85 0.84 0.83 0.85 0.89 1.01 1.14 1.19 1.20 1.23 1.25 1.27 1.34 1.31 1.32 1.31 1.29 1.27 1.27 1.26 1.25 1.24 1.20 1.21 1.24 1.24 1.19 1.17 1.18 1.23 1.24 1.29 1.31 1.28 1.26 1.16 1.15
0.28 0.29 0.38 0.42 0.60 0.64 0.58 0.57 0.67 0.78 0.85 0.83 0.84 0.81 0.78 0.77 0.77 0.80 0.80 0.87 1.08 1.11 1.17 1.23 1.25 1.25 1.29 1.33 1.35 1.35 1.34 1.29 1.28 1.22 1.19 1.22 1.23 1.24 1.23 1.21 1.24 1.33 1.34 1.31 1.28 1.22 1.21 1.18 1.14
0.32 0.31 0.33 0.44 0.58 0.58 0.56 0.58 0.62 0.73 0.79 0.85 0.81 0.76 0.73 0.72 0.77 0.77 0.77 0.77 0.78 0.92 0.95 1.01 1.08 1.14 1.17 1.15 1.11 1.11 1.08 1.18 1.22 1.26 1.26 1.24 1.22 1.22 1.23 1.22 1.22 1.26 1.22 1.19 1.20 1.17 1.12 1.08 1.11
0.34 0.28 0.30 0.40 0.50 0.53 0.53 0.54 0.63 0.66 0.66 0.81 0.79 0.74 0.71 0.71 0.72 0.74 0.75 0.77 0.76 0.75 0.77 0.81 0.88 0.97 1.07 1.18 1.20 1.21 1.18 1.19 1.21 1.23 1.23 1.24 1.22 1.20 1.18 1.16 1.15 1.12 1.11 1.13 1.13 1.06 0.99 0.99 1.01
0.34 0.29 0.31 0.32 0.44 0.50 0.47 0.47 0.54 0.61 0.66 0.70 0.79 0.77 0.72 0.69 0.67 0.70 0.73 0.75 0.75 0.73 0.74 0.74 0.76 0.79 0.82 0.85 0.88 0.88 0.91 0.94 0.97 1.05 1.12 1.15 1.16 1.20 1.20 1.19 1.14 1.12 1.11 1.02 1.01 1.01 0.97 0.88 0.94
0.27 0.39 0.36 0.34 0.33 0.28 0.44 0.28 0.41 0.49 0.52 0.63 0.65 0.75 0.68 0.68 0.66 0.66 0.68 0.69 0.69 0.71 0.73 0.73 0.73 0.73 0.74 0.74 0.69 0.65 0.61 0.58 0.62 0.64 0.68 0.71 0.74 0.75 0.77 0.82 0.88 0.91 0.94 0.92 0.93 0.99 0.96 0.94 0.82
0.35 0.42 0.37 0.38 0.36 0.35 0.36 0.33 0.33 0.41 0.41 0.46 0.58 0.61 0.64 0.66 0.66 0.64 0.67 0.69 0.70 0.71 0.70 0.71 0.71 0.71 0.72 0.71 0.67 0.63 0.59 0.59 0.59 0.59 0.59 0.63 0.66 0.68 0.68 0.64 0.65 0.71 0.75 0.77 0.87 0.96 0.92 0.93 0.89
0.44 0.39 0.40 0.38 0.35 0.24 0.32 0.31 0.25 0.31 0.34 0.40 0.46 0.55 0.58 0.62 0.63 0.63 0.67 0.70 0.70 0.71 0.69 0.68 0.66 0.65 0.66 0.66 0.64 0.61 0.57 0.55 0.52 0.53 0.53 0.54 0.56 0.58 0.62 0.66 0.67 0.69 0.73 0.76 0.78 0.94 0.92 0.94 1.01
0.40 0.32 0.22 0.20 0.20 0.19 0.29 0.26 0.24 0.32 0.36 0.38 0.39 0.43 0.49 0.47 0.55 0.61 0.65 0.67 0.68 0.69 0.70 0.70 0.68 0.64 0.63 0.62 0.61 0.60 0.58 0.57 0.56 0.57 0.56 0.56 0.55 0.56 0.59 0.69 0.70 0.73 0.77 0.82 0.90 0.91 0.97 1.06 1.02
0.36 0.31 0.20 0.13 0.15 0.18 0.26 0.15 0.20 0.30 0.33 0.37 0.38 0.40 0.45 0.47 0.45 0.54 0.63 0.67 0.67 0.69 0.70 0.69 0.66 0.63 0.62 0.60 0.59 0.60 0.60 0.59 0.60 0.61 0.61 0.61 0.62 0.64 0.69 0.75 0.80 0.82 0.85 0.90 0.95 0.99 1.08 1.04 0.92
0.36 0.31 0.34 0.23 0.23 0.17 0.19 0.19 0.22 0.25 0.26 0.30 0.33 0.35 0.38 0.43 0.47 0.52 0.59 0.62 0.65 0.67 0.67 0.66 0.64 0.62 0.62 0.60 0.60 0.60 0.60 0.60 0.59 0.62 0.65 0.67 0.68 0.69 0.71 0.73 0.76 0.80 0.81 0.82 0.83 0.83 0.84 0.87 0.87
0.39 0.40 0.27 0.27 0.16 0.14 0.16 0.15 0.15 0.19 0.23 0.28 0.31 0.33 0.36 0.41 0.49 0.53 0.58 0.61 0.63 0.65 0.66 0.65 0.64 0.63 0.64 0.63 0.61 0.61 0.61 0.62 0.62 0.63 0.63 0.65 0.68 0.71 0.73 0.73 0.74 0.75 0.76 0.75 0.74 0.73 0.75 0.73 0.72
0.39 0.36 0.37 0.35 0.28 0.17 0.13 0.14 0.24 0.25 0.28 0.28 0.29 0.34 0.38 0.42 0.48 0.55 0.58 0.60 0.62 0.62 0.61 0.62 0.64 0.64 0.64 0.64 0.63 0.62 0.63 0.64 0.64 0.63 0.64 0.66 0.68 0.70 0.70 0.71 0.72 0.72 0.72 0.74 0.73 0.73 0.72 0.69 0.66
0.46 0.39 0.36 0.26 0.23 0.26 0.23 0.17 0.31 0.31 0.33 0.34 0.32 0.35 0.40 0.47 0.50 0.53 0.56 0.59 0.60 0.58 0.60 0.61 0.63 0.65 0.66 0.65 0.64 0.63 0.64 0.66 0.65 0.64 0.64 0.65 0.65 0.66 0.67 0.70 0.71 0.71 0.72 0.72 0.70 0.68 0.66 0.62 0.60

GFSSGP_prec_pwat_051.txt.gz
Precipitable_Water
1.27 1.14 1.01 0.76 0.40 0.40 0.32 0.37 0.52 0.57 0.62 0.68 0.71 0.66 0.71 0.85 0.74 0.60 1.34 1.31 1.32 1.30 1.41 1.38 1.37 1.38 1.39 1.36 1.36 1.33 1.26 1.21 1.12 1.03 1.03 1.06 1.14 1.29 1.10 1.07 0.98 0.85 0.81 0.87 0.93 0.97 1.00 1.04 1.04
1.24 1.08 0.90 0.68 0.39 0.27 0.29 0.40 0.44 0.54 0.68 0.78 0.74 0.79 0.74 0.71 1.07 1.14 1.18 1.36 1.37 1.37 1.37 1.36 1.36 1.35 1.40 1.42 1.40 1.37 1.31 1.17 1.05 1.00 1.00 1.06 1.15 1.28 1.21 1.15 1.02 0.82 0.78 0.79 0.84 0.91 0.98 0.99 0.98
1.12 1.04 0.72 0.56 0.44 0.30 0.26 0.38 0.47 0.57 0.64 0.76 0.69 0.91 0.87 0.83 1.14 1.17 1.33 1.42 1.44 1.39 1.37 1.45 1.36 1.40 1.41 1.42 1.40 1.40 1.36 1.20 1.08 0.99 0.99 1.11 1.19 1.29 1.24 1.15 1.04 0.83 0.82 0.81 0.81 0.84 0.90 0.94 0.97
0.99 0.88 0.78 0.52 0.41 0.43 0.38 0.42 0.48 0.52 0.57 0.70 0.73 0.74 1.03 1.21 1.23 1.33 1.40 1.42 1.41 1.38 1.46 1.43 1.45 1.44 1.46 1.44 1.41 1.38 1.32 1.23 1.13 0.98 1.19 1.25 1.23 1.29 1.23 1.13 1.04 0.87 0.88 0.89 0.86 0.89 0.92 0.94 0.95
0.99 0.82 0.56 0.50 0.47 0.49 0.51 0.53 0.51 0.47 0.51 0.63 0.71 0.70 0.87 1.22 1.42 1.53 1.41 1.40 1.35 1.37 1.52 1.47 1.49 1.42 1.44 1.45 1.45 1.41 1.31 1.24 1.11 0.98 1.32 1.31 1.30 1.28 1.19 1.15 1.08 0.91 0.95 0.96 0.95 0.92 0.95 0.97 1.00
0.77 0.79 0.51 0.45 0.48 0.53 0.55 0.60 0.54 0.50 0.48 0.60 0.70 0.73 0.86 1.31 1.34 1.47 1.51 1.43 1.35 1.37 1.57 1.49 1.49 1.39 1.43 1.45 1.48 1.43 1.32 1.24 1.09 0.98 1.23 1.33 1.27 1.22 1.18 1.13 1.07 0.96 1.01 1.01 0.99 0.97 0.97 1.00 1.01
0.69 0.66 0.53 0.50 0.50 0.51 0.53 0.65 0.57 0.53 0.48 0.55 0.82 0.64 0.86 1.14 1.36 1.46 1.48 1.49 1.42 1.38 1.49 1.47 1.51 1.39 1.42 1.49 1.51 1.42 1.36 1.29 1.13 1.02 1.19 1.20 1.13 1.14 1.17 1.13 1.04 0.98 1.05 1.02 1.00 1.00 1.02 1.03 1.04
0.83 0.70 0.57 0.56 0.50 0.50 0.63 0.65 0.67 0.61 0.55 0.77 0.95 0.66 0.71 1.14 1.42 1.47 1.49 1.43 1.37 1.39 1.39 1.39 1.44 1.38 1.40 1.53 1.49 1.46 1.41 1.33 1.19 1.08 1.05 1.12 1.12 1.12 1.15 1.14 1.07 1.04 1.07 0.99 0.96 0.95 0.98 1.00 0.99
0.97 0.62 0.52 0.55 0.56 0.58 0.69 0.63 0.72 0.77 0.70 0.84 0.91 0.87 1.05 1.26 1.39 1.36 1.34 1.34 1.32 1.31 1.32 1.36 1.38 1.38 1.39 1.49 1.47 1.46 1.39 1.35 1.26 1.15 1.03 1.01 1.03 1.04 1.09 1.11 1.09 1.06 1.09 1.02 0.98 0.94 0.94 0.92 0.92
0.74 0.58 0.57 0.69 0.73 0.68 0.72 0.67 0.71 0.68 0.66 0.71 0.76 0.82 1.00 1.28 1.26 1.16 1.16 1.18 1.23 1.22 1.28 1.36 1.38 1.38 1.40 1.43 1.43 1.43 1.35 1.33 1.32 1.23 1.12 0.99 0.97 1.01 1.05 1.06 1.05 1.08 1.15 1.12 1.06 0.97 0.91 0.85 0.82
0.81 0.61 0.68 0.71 0.78 0.83 0.74 0.70 0.80 0.70 0.62 0.72 0.71 0.73 0.91 1.13 1.11 1.17 1.15 1.16 1.23 1.32 1.32 1.33 1.32 1.36 1.37 1.36 1.39 1.38 1.31 1.30 1.31 1.27 1.19 1.05 0.93 0.95 0.98 0.98 0.99 1.07 1.14 1.12 1.12 1.09 1.03 0.93 0.87
0.64 0.71 0.74 0.80 0.83 0.80 0.74 0.76 0.72 0.75 0.71 0.83 0.82 0.80 0.87 1.00 1.05 1.11 1.18 1.21 1.20 1.27 1.34 1.38 1.40 1.35 1.32 1.35 1.38 1.37 1.30 1.26 1.26 1.26 1.21 1.11 1.03 0.93 0.90 0.91 0.94 0.98 1.06 1.10 1.14 1.12 1.10 1.08 1.04
0.60 0.71 0.78 0.87 0.84 0.83 0.84 0.74 0.72 0.73 0.81 0.85 0.86 0.81 0.84 0.97 1.09 1.20 1.29 1.33 1.31 1.25 1.27 1.29 1.29 1.30 1.25 1.25 1.33 1.36 1.32 1.28 1.26 1.23 1.20 1.15 1.06 1.00 1.01 0.95 0.97 1.07 1.14 1.18 1.20 1.17 1.15 1.13 1.12
0.61 0.66 0.69 0.78 0.81 0.84 0.77 0.76 0.76 0.74 0.85 0.81 0.82 0.82 0.86 0.91 1.11 1.18 1.24 1.30 1.35 1.36 1.31 1.33 1.31 1.30 1.25 1.21 1.24 1.23 1.27 1.25 1.23 1.18 1.14 1.15 1.14 1.14 1.16 1.14 1.05 1.08 1.16 1.18 1.17 1.14 1.12 1.14 1.18
0.60 0.55 0.67 0.70 0.75 0.74 0.86 0.68 0.64 0.80 0.84 0.78 0.80 0.83 0.88 0.88 1.08 1.14 1.25 1.28 1.36 1.42 1.40 1.34 1.34 1.36 1.31 1.27 1.22 1.21 1.24 1.24 1.21 1.20 1.18 1.18 1.21 1.20 1.19 1.15 1.13 1.13 1.14 1.16 1.16 1.15 1.18 1.19 1.22
0.46 0.54 0.47 0.70 0.75 0.79 0.77 0.53 0.71 0.83 0.81 0.76 0.80 0.82 0.86 0.87 0.89 1.16 1.33 1.34 1.40 1.45 1.38 1.39 1.38 1.35 1.34 1.31 1.29 1.27 1.28 1.27 1.26 1.26 1.26 1.22 1.20 1.22 1.20 1.17 1.17 1.22 1.20 1.16 1.15 1.17 1.22 1.23 1.21
0.43 0.32 0.42 0.59 0.74 0.73 0.66 0.54 0.72 0.80 0.81 0.75 0.80 0.83 0.85 0.85 0.86 0.92 1.17 1.37 1.40 1.48 1.42 1.34 1.36 1.36 1.35 1.38 1.36 1.33 1.29 1.27 1.30 1.30 1.28 1.27 1.24 1.23 1.20 1.18 1.19 1.24 1.22 1.22 1.22 1.25 1.27 1.20 1.19
0.30 0.31 0.40 0.50 0.65 0.67 0.60 0.57 0.69 0.73 0.77 0.76 0.78 0.83 0.85 0.84 0.86 0.87 0.93 1.09 1.33 1.39 1.40 1.38 1.34 1.39 1.39 1.39 1.38 1.35 1.30 1.31 1.33 1.30 1.27 1.27 1.25 1.25 1.23 1.22 1.23 1.25 1.23 1.23 1.26 1.23 1.25 1.21 1.14
0.40 0.36 0.37 0.49 0.63 0.63 0.57 0.57 0.62 0.68 0.70 0.73 0.78 0.80 0.82 0.84 0.86 0.84 0.84 0.87 0.94 1.17 1.20 1.24 1.25 1.28 1.30 1.27 1.20 1.19 1.14 1.20 1.21 1.24 1.25 1.26 1.25 1.26 1.22 1.18 1.18 1.23 1.17 1.15 1.15 1.13 1.09 1.06 1.13
0.37 0.34 0.34 0.43 0.53 0.56 0.57 0.54 0.58 0.64 0.64 0.70 0.73 0.80 0.81 0.83 0.82 0.79 0.80 0.80 0.80 0.84 0.99 1.03 1.11 1.16 1.19 1.17 1.16 1.15 1.13 1.15 1.19 1.24 1.26 1.30 1.28 1.26 1.22 1.16 1.13 1.13 1.11 1.10 1.08 1.09 1.01 0.96 0.99
0.34 0.28 0.31 0.31 0.42 0.52 0.50 0.45 0.48 0.58 0.65 0.68 0.71 0.81 0.83 0.81 0.79 0.77 0.77 0.79 0.80 0.81 0.85 0.87 0.87 0.92 0.98 1.06 1.09 1.09 1.10 1.09 1.05 1.08 1.13 1.15 1.13 1.21 1.26 1.25 1.24 1.22 1.19 1.08 1.08 1.06 1.00 0.87 0.94
0.29 0.37 0.33 0.31 0.32 0.25 0.42 0.24 0.35 0.46 0.51 0.59 0.63 0.75 0.82 0.80 0.80 0.77 0.75 0.77 0.81 0.84 0.86 0.85 0.84 0.83 0.84 0.83 0.82 0.80 0.76 0.70 0.70 0.70 0.71 0.73 0.75 0.75 0.77 0.80 0.86 0.88 0.91 0.89 0.90 0.95 0.93 0.91 0.81
0.33 0.41 0.36 0.34 0.31 0.31 0.32 0.28 0.30 0.39 0.39 0.48 0.59 0.68 0.79 0.81 0.79 0.76 0.75 0.76 0.81 0.83 0.81 0.80 0.79 0.79 0.79 0.79 0.76 0.72 0.68 0.68 0.68 0.67 0.65 0.65 0.66 0.69 0.73 0.75 0.71 0.67 0.69 0.71 0.71 0.74 0.79 0.88 0.88
0.43 0.35 0.36 0.36 0.33 0.22 0.28 0.30 0.24 0.31 0.34 0.42 0.52 0.57 0.69 0.78 0.82 0.78 0.76 0.77 0.77 0.79 0.78 0.76 0.74 0.73 0.74 0.73 0.72 0.69 0.66 0.65 0.63 0.61 0.57 0.56 0.57 0.59 0.62 0.65 0.68 0.70 0.70 0.69 0.72 0.77 0.75 0.87 0.93
0.42 0.33 0.23 0.21 0.20 0.19 0.29 0.27 0.25 0.36 0.39 0.39 0.41 0.49 0.59 0.64 0.68 0.73 0.72 0.73 0.74 0.75 0.76 0.75 0.74 0.71 0.72 0.70 0.68 0.67 0.64 0.62 0.60 0.59 0.57 0.57 0.57 0.59 0.62 0.65 0.70 0.72 0.75 0.78 0.79 0.80 0.86 0.91 0.95
0.37 0.32 0.21 0.14 0.15 0.18 0.27 0.19 0.23 0.34 0.38 0.40 0.43 0.45 0.46 0.52 0.59 0.58 0.66 0.71 0.72 0.73 0.74 0.74 0.72 0.71 0.71 0.70 0.67 0.67 0.65 0.61 0.61 0.62 0.61 0.61 0.61 0.62 0.67 0.69 0.73 0.77 0.81 0.86 0.90 0.90 0.95 0.95 0.95
0.37 0.29 0.33 0.22 0.22 0.17 0.19 0.23 0.26 0.28 0.28 0.32 0.34 0.37 0.38 0.41 0.47 0.57 0.60 0.61 0.67 0.73 0.75 0.74 0.71 0.69 0.69 0.68 0.67 0.66 0.66 0.64 0.61 0.62 0.63 0.64 0.65 0.66 0.70 0.72 0.71 0.75 0.78 0.81 0.83 0.82 0.83 0.85 0.87
0.40 0.41 0.25 0.24 0.13 0.10 0.14 0.15 0.15 0.22 0.26 0.29 0.30 0.31 0.35 0.39 0.42 0.48 0.57 0.65 0.66 0.68 0.71 0.70 0.68 0.66 0.67 0.68 0.68 0.67 0.66 0.66 0.63 0.63 0.62 0.63 0.65 0.68 0.70 0.72 0.73 0.74 0.76 0.77 0.78 0.75 0.76 0.75 0.76
0.35 0.33 0.34 0.31 0.24 0.14 0.11 0.14 0.26 0.25 0.29 0.29 0.30 0.31 0.34 0.39 0.42 0.47 0.54 0.63 0.67 0.68 0.67 0.66 0.65 0.64 0.65 0.66 0.66 0.66 0.66 0.66 0.66 0.63 0.63 0.65 0.67 0.68 0.69 0.70 0.72 0.72 0.73 0.75 0.75 0.73 0.73 0.71 0.70
0.42 0.33 0.33 0.24 0.21 0.24 0.22 0.20 0.31 0.31 0.30 0.31 0.34 0.36 0.37 0.40 0.45 0.52 0.58 0.62 0.65 0.63 0.63 0.63 0.63 0.63 0.64 0.65 0.65 0.64 0.65 0.65 0.65 0.65 0.66 0.67 0.67 0.68 0.68 0.70 0.70 0.69 0.71 0.73 0.72 0.71 0.72 0.69 0.64

GFSSGP_prec_pwat_054.txt.gz
Precipitable_Water
1.23 1.13 1.05 0.79 0.46 0.44 0.40 0.44 0.57 0.64 0.61 0.77 0.77 0.83 0.90 0.92 0.74 0.67 1.30 1.30 1.31 1.34 1.37 1.42 1.48 1.50 1.47 1.43 1.37 1.33 1.26 1.22 1.11 1.11 1.10 1.17 1.24 1.05 1.05 0.96 0.84 0.83 0.94 1.00 1.01 1.05 1.06 1.04 1.00
1.17 1.02 0.95 0.71 0.41 0.33 0.35 0.47 0.46 0.64 0.71 0.78 0.84 0.83 0.87 0.87 1.10 1.16 1.18 1.36 1.37 1.38 1.37 1.38 1.43 1.44 1.45 1.45 1.40 1.31 1.23 1.12 1.06 1.06 1.07 1.17 1.28 1.19 1.13 0.99 0.80 0.79 0.84 0.90 0.96 0.99 0.98 0.97 0.96
1.08 0.99 0.73 0.61 0.45 0.34 0.32 0.44 0.52 0.59 0.80 0.77 0.78 0.95 0.93 0.95 1.20 1.27 1.37 1.40 1.43 1.42 1.42 1.44 1.40 1.41 1.50 1.44 1.40 1.36 1.25 1.09 1.03 1.03 1.07 1.14 1.30 1.23 1.15 1.02 0.83 0.82 0.83 0.84 0.89 0.94 0.95 0.97 0.94
0.96 0.86 0.73 0.55 0.46 0.45 0.42 0.47 0.54 0.54 0.58 0.84 0.81 0.84 1.07 1.29 1.26 1.43 1.43 1.43 1.45 1.44 1.48 1.53 1.40 1.44 1.43 1.46 1.41 1.37 1.26 1.14 1.00 1.06 1.18 1.21 1.34 1.25 1.13 1.02 0.85 0.86 0.87 0.86 0.88 0.91 0.93 0.93 0.96
0.95 0.77 0.54 0.51 0.50 0.53 0.52 0.52 0.53 0.52 0.55 0.65 0.85 0.84 0.97 1.28 1.48 1.53 1.43 1.45 1.44 1.43 1.57 1.54 1.53 1.45 1.44 1.44 1.43 1.36 1.27 1.16 0.99 1.27 1.28 1.27 1.34 1.26 1.17 1.09 0.95 0.94 0.94 0.91 0.89 0.92 0.94 0.97 0.98
0.73 0.74 0.48 0.45 0.50 0.60 0.59 0.60 0.54 0.50 0.54 0.70 0.75 0.89 0.99 1.43 1.46 1.54 1.52 1.43 1.48 1.47 1.55 1.59 1.63 1.50 1.46 1.47 1.45 1.37 1.29 1.16 0.99 1.33 1.42 1.44 1.33 1.21 1.19 1.11 1.01 1.02 1.02 1.00 0.99 0.98 1.00 1.03 1.02
0.69 0.60 0.50 0.50 0.53 0.56 0.61 0.67 0.57 0.48 0.49 0.65 0.82 0.81 1.06 1.29 1.52 1.64 1.56 1.47 1.42 1.52 1.53 1.63 1.56 1.50 1.46 1.47 1.48 1.39 1.29 1.18 1.01 1.25 1.30 1.29 1.22 1.21 1.21 1.12 1.00 1.03 1.03 0.99 0.99 1.00 1.01 1.02 1.02
0.77 0.66 0.56 0.56 0.54 0.54 0.66 0.68 0.69 0.57 0.51 0.82 1.01 0.77 0.86 1.24 1.56 1.63 1.60 1.51 1.37 1.54 1.60 1.57 1.53 1.47 1.47 1.47 1.49 1.41 1.36 1.26 1.13 1.11 1.22 1.21 1.17 1.16 1.20 1.15 1.04 1.06 1.03 0.96 0.94 0.95 0.99 0.99 0.98
0.92 0.58 0.50 0.59 0.56 0.60 0.73 0.65 0.74 0.77 0.66 0.71 0.77 0.79 0.95 1.35 1.50 1.46 1.44 1.45 1.38 1.41 1.51 1.50 1.52 1.45 1.47 1.54 1.48 1.47 1.40 1.33 1.21 1.09 1.08 1.11 1.14 1.10 1.10 1.14 1.05 1.07 1.04 0.99 0.95 0.94 0.94 0.91 0.89
0.72 0.55 0.52 0.71 0.74 0.68 0.74 0.71 0.71 0.70 0.64 0.67 0.68 0.78 1.05 1.28 1.37 1.31 1.27 1.23 1.29 1.32 1.37 1.45 1.45 1.42 1.45 1.50 1.46 1.45 1.40 1.38 1.34 1.22 1.07 1.05 1.05 1.07 1.10 1.07 1.05 1.07 1.11 1.06 1.01 0.95 0.91 0.86 0.84
0.69 0.55 0.69 0.68 0.77 0.81 0.75 0.74 0.77 0.69 0.64 0.70 0.67 0.72 0.91 1.16 1.24 1.27 1.32 1.33 1.31 1.33 1.34 1.41 1.44 1.44 1.46 1.43 1.44 1.40 1.36 1.36 1.37 1.33 1.24 1.07 0.98 0.99 1.02 1.03 0.99 1.05 1.09 1.12 1.10 1.09 1.04 0.97 0.90
0.57 0.70 0.71 0.70 0.81 0.83 0.75 0.81 0.74 0.75 0.78 0.83 0.84 0.83 0.88 0.98 1.08 1.17 1.26 1.34 1.36 1.38 1.38 1.42 1.41 1.40 1.41 1.49 1.41 1.37 1.33 1.31 1.33 1.32 1.28 1.16 1.04 0.96 0.95 0.94 0.95 0.98 1.06 1.09 1.11 1.12 1.11 1.09 1.06
0.61 0.69 0.75 0.75 0.78 0.82 0.86 0.76 0.75 0.76 0.86 0.88 0.86 0.87 0.85 0.94 1.04 1.15 1.28 1.36 1.42 1.38 1.42 1.46 1.47 1.43 1.40 1.38 1.39 1.37 1.34 1.31 1.33 1.31 1.29 1.22 1.11 1.04 1.01 0.93 0.93 0.99 1.08 1.10 1.18 1.19 1.15 1.14 1.11
0.71 0.76 0.74 0.73 0.79 0.79 0.76 0.80 0.80 0.73 0.87 0.85 0.84 0.82 0.85 0.89 1.01 1.11 1.16 1.20 1.30 1.44 1.41 1.41 1.38 1.44 1.42 1.30 1.30 1.35 1.36 1.36 1.35 1.30 1.25 1.22 1.16 1.12 1.11 1.13 1.06 1.03 1.12 1.17 1.17 1.16 1.13 1.11 1.13
0.61 0.55 0.65 0.70 0.71 0.67 0.78 0.68 0.69 0.81 0.85 0.81 0.81 0.83 0.84 0.89 0.93 1.09 1.18 1.19 1.34 1.44 1.48 1.42 1.35 1.30 1.22 1.18 1.22 1.29 1.33 1.35 1.27 1.25 1.22 1.17 1.20 1.19 1.18 1.17 1.16 1.16 1.14 1.14 1.15 1.15 1.14 1.12 1.19
0.48 0.53 0.44 0.63 0.72 0.74 0.75 0.47 0.66 0.84 0.79 0.77 0.80 0.82 0.85 0.88 0.90 0.91 1.15 1.23 1.35 1.39 1.45 1.56 1.51 1.40 1.36 1.34 1.31 1.26 1.27 1.27 1.27 1.29 1.28 1.25 1.24 1.25 1.22 1.18 1.19 1.21 1.19 1.17 1.14 1.12 1.11 1.15 1.21
0.44 0.37 0.43 0.54 0.71 0.70 0.66 0.56 0.71 0.82 0.79 0.74 0.77 0.80 0.83 0.88 0.92 0.89 0.94 1.24 1.30 1.36 1.42 1.48 1.54 1.46 1.41 1.42 1.39 1.35 1.33 1.31 1.31 1.31 1.31 1.32 1.31 1.30 1.25 1.21 1.22 1.25 1.20 1.18 1.17 1.17 1.20 1.21 1.23
0.28 0.33 0.41 0.45 0.59 0.68 0.63 0.61 0.64 0.73 0.76 0.73 0.75 0.77 0.80 0.85 0.91 0.91 0.91 1.00 1.30 1.36 1.42 1.47 1.51 1.50 1.48 1.43 1.42 1.39 1.35 1.35 1.35 1.32 1.34 1.36 1.35 1.34 1.29 1.25 1.25 1.28 1.23 1.20 1.21 1.20 1.24 1.22 1.19
0.38 0.36 0.37 0.45 0.59 0.62 0.60 0.61 0.61 0.68 0.71 0.70 0.73 0.74 0.78 0.83 0.93 0.91 0.88 0.93 1.05 1.30 1.37 1.38 1.41 1.47 1.47 1.39 1.35 1.34 1.29 1.35 1.35 1.37 1.37 1.34 1.32 1.29 1.25 1.23 1.22 1.23 1.15 1.14 1.20 1.18 1.12 1.09 1.14
0.39 0.35 0.35 0.46 0.57 0.63 0.61 0.57 0.61 0.62 0.64 0.67 0.70 0.75 0.78 0.82 0.89 0.88 0.86 0.87 0.93 1.05 1.23 1.26 1.29 1.36 1.40 1.40 1.37 1.33 1.28 1.28 1.29 1.31 1.32 1.33 1.32 1.33 1.30 1.25 1.21 1.20 1.17 1.16 1.16 1.15 1.09 1.06 1.09
0.38 0.34 0.35 0.34 0.45 0.58 0.51 0.45 0.50 0.59 0.62 0.62 0.66 0.72 0.81 0.80 0.84 0.86 0.86 0.83 0.87 0.87 0.94 1.07 1.14 1.21 1.28 1.34 1.31 1.25 1.24 1.18 1.13 1.17 1.20 1.16 1.13 1.14 1.19 1.21 1.19 1.20 1.23 1.15 1.17 1.16 1.10 0.96 1.02
0.29 0.40 0.38 0.34 0.29 0.23 0.40 0.23 0.37 0.46 0.50 0.50 0.58 0.66 0.71 0.83 0.87 0.85 0.84 0.82 0.84 0.86 0.88 0.92 0.98 1.03 1.06 1.11 1.11 1.07 1.02 0.95 0.93 0.92 0.87 0.85 0.84 0.81 0.80 0.78 0.82 0.89 0.95 0.92 0.92 0.95 0.93 0.92 0.79
0.37 0.39 0.35 0.33 0.29 0.30 0.29 0.25 0.26 0.38 0.36 0.44 0.51 0.60 0.65 0.78 0.87 0.83 0.83 0.83 0.86 0.88 0.88 0.91 0.91 0.91 0.90 0.90 0.91 0.85 0.79 0.76 0.76 0.74 0.72 0.72 0.73 0.73 0.73 0.75 0.75 0.71 0.71 0.72 0.72 0.72 0.73 0.77 0.75
0.46 0.40 0.37 0.36 0.33 0.21 0.27 0.26 0.23 0.29 0.33 0.37 0.45 0.55 0.60 0.75 0.82 0.86 0.86 0.86 0.86 0.89 0.91 0.90 0.88 0.87 0.88 0.86 0.84 0.81 0.76 0.73 0.72 0.69 0.66 0.67 0.67 0.67 0.68 0.68 0.71 0.72 0.73 0.71 0.71 0.71 0.73 0.75 0.76
0.43 0.34 0.23 0.21 0.21 0.18 0.28 0.23 0.23 0.33 0.38 0.39 0.42 0.45 0.55 0.68 0.81 0.85 0.83 0.83 0.84 0.83 0.84 0.85 0.84 0.80 0.80 0.79 0.76 0.75 0.74 0.72 0.69 0.68 0.67 0.65 0.65 0.67 0.69 0.70 0.70 0.73 0.75 0.76 0.78 0.78 0.78 0.80 0.81
0.38 0.33 0.23 0.15 0.16 0.19 0.26 0.20 0.23 0.33 0.37 0.40 0.43 0.46 0.47 0.51 0.63 0.73 0.86 0.90 0.87 0.85 0.83 0.83 0.80 0.78 0.78 0.78 0.77 0.78 0.76 0.73 0.71 0.69 0.68 0.66 0.65 0.67 0.70 0.71 0.72 0.72 0.75 0.80 0.85 0.85 0.84 0.85 0.90
0.41 0.30 0.33 0.23 0.24 0.19 0.21 0.23 0.27 0.30 0.30 0.32 0.34 0.38 0.41 0.46 0.53 0.59 0.69 0.82 0.86 0.91 0.85 0.82 0.80 0.79 0.80 0.79 0.78 0.75 0.74 0.71 0.69 0.70 0.71 0.70 0.69 0.68 0.70 0.71 0.70 0.71 0.74 0.79 0.83 0.82 0.82 0.85 0.88
0.43 0.44 0.27 0.26 0.15 0.12 0.16 0.16 0.16 0.23 0.27 0.30 0.31 0.33 0.37 0.41 0.43 0.46 0.56 0.67 0.73 0.74 0.80 0.81 0.79 0.78 0.77 0.76 0.74 0.71 0.70 0.70 0.70 0.70 0.69 0.69 0.69 0.68 0.69 0.69 0.70 0.72 0.75 0.78 0.79 0.78 0.78 0.77 0.78
0.37 0.35 0.33 0.31 0.25 0.16 0.12 0.14 0.23 0.25 0.29 0.30 0.32 0.36 0.38 0.40 0.43 0.46 0.50 0.56 0.65 0.72 0.73 0.72 0.73 0.74 0.74 0.72 0.70 0.69 0.69 0.70 0.70 0.68 0.69 0.69 0.70 0.70 0.67 0.69 0.71 0.72 0.73 0.76 0.76 0.74 0.73 0.71 0.71
0.43 0.35 0.33 0.24 0.23 0.25 0.21 0.17 0.28 0.30 0.33 0.34 0.34 0.37 0.40 0.43 0.44 0.47 0.51 0.54 0.57 0.63 0.68 0.73 0.73 0.70 0.69 0.70 0.68 0.67 0.68 0.68 0.65 0.64 0.66 0.68 0.68 0.70 0.70 0.70 0.70 0.70 0.71 0.72 0.70 0.69 0.72 0.71 0.68

GFSSGP_prec_pwat_057.txt.gz
Precipitable_Water
1.20 1.14 1.03 0.89 0.50 0.47 0.48 0.54 0.59 0.71 0.67 0.78 0.81 0.91 0.90 0.97 0.80 0.85 1.29 1.29 1.33 1.39 1.40 1.41 1.38 1.42 1.40 1.41 1.38 1.33 1.27 1.20 1.16 1.14 1.28 1.17 1.04 1.04 0.91 0.80 0.85 0.97 1.01 1.03 1.05 1.06 1.04 0.97 0.91
1.26 1.01 0.93 0.77 0.47 0.35 0.41 0.58 0.54 0.66 0.71 0.83 0.88 0.94 0.95 1.02 1.19 1.21 1.22 1.36 1.36 1.39 1.41 1.43 1.45 1.45 1.41 1.38 1.33 1.30 1.23 1.09 1.10 1.12 1.25 1.28 1.18 1.10 0.95 0.80 0.82 0.87 0.93 0.98 1.01 0.98 0.98 0.96 0.91
1.13 1.00 0.74 0.60 0.50 0.35 0.37 0.54 0.55 0.66 0.85 0.78 0.80 1.01 1.05 1.17 1.29 1.30 1.39 1.40 1.43 1.41 1.47 1.51 1.49 1.44 1.41 1.40 1.37 1.28 1.15 1.06 1.07 1.10 1.19 1.34 1.25 1.16 1.01 0.83 0.81 0.81 0.85 0.94 0.98 0.98 0.98 0.93 0.93
0.96 0.85 0.77 0.55 0.46 0.43 0.45 0.54 0.57 0.64 0.71 0.84 0.85 0.86 1.19 1.51 1.42 1.55 1.44 1.43 1.45 1.44 1.52 1.51 1.47 1.44 1.40 1.37 1.37 1.33 1.16 1.05 1.00 1.08 1.17 1.36 1.30 1.18 1.05 0.88 0.86 0.83 0.83 0.85 0.89 0.93 0.93 0.94 0.95
0.99 0.76 0.52 0.48 0.50 0.52 0.52 0.66 0.65 0.58 0.61 0.78 0.84 0.99 1.12 1.40 1.60 1.64 1.46 1.46 1.46 1.48 1.64 1.54 1.54 1.51 1.43 1.40 1.35 1.27 1.18 1.02 1.08 1.21 1.24 1.39 1.32 1.20 1.12 0.97 0.96 0.95 0.92 0.92 0.94 0.95 0.98 0.98 0.96
0.71 0.71 0.48 0.41 0.47 0.56 0.62 0.66 0.58 0.57 0.61 0.75 0.88 0.96 1.19 1.50 1.52 1.59 1.55 1.50 1.54 1.52 1.59 1.54 1.60 1.54 1.47 1.43 1.38 1.28 1.20 0.98 1.27 1.35 1.35 1.43 1.29 1.16 1.13 1.03 0.99 1.01 1.01 0.98 0.96 0.98 1.01 1.01 0.98
0.68 0.59 0.46 0.46 0.49 0.56 0.64 0.74 0.57 0.54 0.58 0.71 0.94 0.91 1.25 1.36 1.56 1.66 1.55 1.58 1.55 1.64 1.55 1.59 1.67 1.64 1.56 1.49 1.41 1.32 1.20 1.00 1.27 1.42 1.49 1.36 1.24 1.20 1.16 1.06 0.98 1.00 0.97 0.96 0.97 0.99 1.00 1.01 0.98
0.77 0.67 0.53 0.52 0.49 0.58 0.72 0.73 0.71 0.57 0.60 0.94 0.99 0.92 1.10 1.31 1.59 1.63 1.63 1.55 1.55 1.61 1.64 1.63 1.61 1.60 1.55 1.52 1.45 1.34 1.28 1.08 1.18 1.30 1.29 1.23 1.19 1.18 1.15 1.09 1.02 1.06 1.00 0.96 0.95 0.95 0.96 0.94 0.92
0.91 0.62 0.52 0.53 0.53 0.63 0.77 0.65 0.75 0.76 0.70 0.75 0.82 0.88 1.04 1.47 1.58 1.52 1.52 1.47 1.51 1.59 1.59 1.64 1.54 1.51 1.54 1.54 1.47 1.41 1.34 1.22 1.10 1.15 1.20 1.17 1.18 1.11 1.13 1.16 1.05 1.05 1.02 0.99 0.96 0.94 0.92 0.89 0.87
0.73 0.58 0.56 0.71 0.69 0.69 0.73 0.71 0.70 0.70 0.68 0.67 0.69 0.87 1.17 1.35 1.47 1.45 1.40 1.36 1.35 1.49 1.56 1.62 1.60 1.50 1.58 1.58 1.48 1.43 1.35 1.34 1.24 1.12 1.01 1.10 1.14 1.13 1.16 1.12 1.03 1.02 1.06 1.02 0.97 0.93 0.88 0.85 0.87
0.72 0.55 0.66 0.74 0.80 0.80 0.74 0.73 0.75 0.73 0.69 0.72 0.64 0.75 1.05 1.19 1.33 1.35 1.37 1.42 1.39 1.44 1.54 1.54 1.59 1.52 1.58 1.57 1.49 1.44 1.35 1.36 1.37 1.32 1.18 1.08 1.05 1.06 1.01 1.06 0.99 1.00 1.03 1.11 1.08 1.06 1.01 0.96 0.94
0.67 0.65 0.73 0.78 0.83 0.75 0.73 0.77 0.75 0.77 0.81 0.82 0.79 0.79 0.92 1.08 1.20 1.31 1.36 1.36 1.39 1.39 1.39 1.39 1.50 1.52 1.54 1.58 1.45 1.43 1.33 1.30 1.32 1.35 1.31 1.17 1.03 1.00 1.01 1.00 0.99 1.00 1.08 1.09 1.11 1.10 1.13 1.12 1.10
0.68 0.66 0.73 0.80 0.77 0.79 0.83 0.74 0.75 0.77 0.86 0.89 0.82 0.83 0.80 0.97 1.12 1.26 1.42 1.48 1.49 1.42 1.45 1.47 1.53 1.49 1.50 1.55 1.49 1.42 1.39 1.30 1.29 1.33 1.33 1.27 1.16 1.08 1.01 0.95 0.94 0.95 1.00 1.04 1.09 1.18 1.17 1.15 1.14
0.75 0.74 0.72 0.78 0.79 0.77 0.73 0.76 0.78 0.77 0.86 0.85 0.84 0.82 0.82 0.86 1.05 1.15 1.25 1.32 1.42 1.50 1.50 1.56 1.52 1.52 1.49 1.45 1.45 1.41 1.41 1.35 1.29 1.31 1.33 1.32 1.26 1.16 1.08 1.07 1.01 0.98 1.04 1.14 1.15 1.17 1.17 1.14 1.13
0.69 0.57 0.71 0.67 0.69 0.68 0.73 0.65 0.64 0.81 0.86 0.81 0.83 0.83 0.83 0.87 0.91 1.12 1.20 1.24 1.34 1.43 1.52 1.54 1.54 1.55 1.54 1.47 1.43 1.37 1.37 1.34 1.29 1.32 1.36 1.26 1.22 1.19 1.15 1.17 1.17 1.17 1.14 1.14 1.15 1.16 1.15 1.11 1.13
0.59 0.64 0.50 0.60 0.67 0.70 0.61 0.45 0.63 0.81 0.84 0.80 0.83 0.82 0.85 0.86 0.89 0.93 1.09 1.24 1.29 1.37 1.36 1.42 1.49 1.42 1.36 1.31 1.28 1.26 1.28 1.29 1.33 1.37 1.31 1.25 1.21 1.25 1.25 1.22 1.22 1.24 1.22 1.17 1.15 1.13 1.10 1.09 1.12
0.49 0.44 0.49 0.52 0.65 0.63 0.54 0.46 0.66 0.74 0.74 0.75 0.79 0.81 0.83 0.86 0.90 0.94 0.94 1.18 1.27 1.35 1.35 1.36 1.42 1.45 1.43 1.38 1.31 1.27 1.28 1.33 1.32 1.34 1.35 1.34 1.31 1.28 1.26 1.26 1.27 1.29 1.24 1.19 1.17 1.14 1.15 1.12 1.16
0.35 0.33 0.41 0.44 0.57 0.60 0.54 0.52 0.63 0.72 0.74 0.71 0.77 0.80 0.81 0.82 0.87 0.95 0.95 0.98 1.29 1.35 1.37 1.37 1.43 1.48 1.51 1.54 1.47 1.38 1.33 1.33 1.37 1.37 1.39 1.40 1.38 1.38 1.36 1.34 1.30 1.28 1.25 1.21 1.22 1.21 1.26 1.25 1.20
0.36 0.30 0.39 0.47 0.61 0.58 0.53 0.58 0.63 0.69 0.67 0.68 0.73 0.77 0.78 0.80 0.88 0.95 0.98 0.93 0.99 1.33 1.35 1.35 1.35 1.42 1.45 1.46 1.40 1.33 1.28 1.34 1.38 1.41 1.42 1.42 1.41 1.40 1.34 1.29 1.26 1.28 1.23 1.21 1.19 1.17 1.13 1.12 1.17
0.36 0.30 0.38 0.52 0.62 0.59 0.56 0.59 0.65 0.67 0.66 0.64 0.67 0.71 0.74 0.79 0.83 0.92 0.91 0.93 0.95 1.07 1.32 1.36 1.37 1.39 1.40 1.45 1.46 1.46 1.47 1.46 1.49 1.50 1.47 1.44 1.39 1.37 1.34 1.30 1.28 1.28 1.25 1.22 1.21 1.18 1.17 1.20 1.27
0.40 0.32 0.36 0.42 0.51 0.57 0.55 0.51 0.55 0.62 0.67 0.65 0.67 0.71 0.75 0.76 0.81 0.89 0.90 0.88 0.92 0.96 1.15 1.35 1.39 1.39 1.42 1.47 1.47 1.46 1.44 1.37 1.30 1.31 1.30 1.32 1.23 1.24 1.26 1.27 1.25 1.21 1.20 1.11 1.11 1.15 1.13 1.02 1.08
0.33 0.42 0.45 0.42 0.39 0.31 0.45 0.31 0.42 0.49 0.55 0.57 0.60 0.65 0.70 0.75 0.84 0.89 0.89 0.86 0.88 0.92 1.00 1.14 1.23 1.24 1.25 1.31 1.28 1.22 1.18 1.16 1.23 1.16 1.10 1.09 1.05 0.99 0.95 0.89 0.85 0.83 0.89 0.89 0.88 0.92 0.93 0.93 0.82
0.38 0.43 0.42 0.39 0.36 0.30 0.35 0.31 0.31 0.43 0.41 0.49 0.58 0.57 0.65 0.72 0.81 0.89 0.90 0.87 0.89 0.92 0.92 0.95 0.99 1.03 1.09 1.14 1.18 1.17 1.13 1.07 1.02 0.98 0.91 0.86 0.83 0.82 0.80 0.79 0.79 0.77 0.74 0.71 0.72 0.76 0.77 0.80 0.74
0.49 0.39 0.39 0.37 0.33 0.23 0.28 0.26 0.23 0.29 0.36 0.38 0.47 0.53 0.58 0.67 0.70 0.85 0.96 0.91 0.88 0.93 0.94 0.95 0.94 0.95 0.99 1.00 1.00 0.99 0.93 0.89 0.84 0.82 0.81 0.79 0.77 0.76 0.76 0.74 0.71 0.74 0.74 0.75 0.77 0.77 0.75 0.75 0.77
0.44 0.36 0.26 0.23 0.24 0.21 0.29 0.25 0.26 0.34 0.35 0.37 0.39 0.44 0.48 0.59 0.64 0.71 0.78 0.87 0.88 0.91 0.91 0.90 0.89 0.89 0.94 0.92 0.93 0.89 0.87 0.84 0.82 0.81 0.78 0.77 0.75 0.74 0.75 0.77 0.73 0.74 0.78 0.80 0.78 0.77 0.76 0.77 0.77
0.39 0.35 0.25 0.18 0.18 0.21 0.30 0.21 0.24 0.32 0.33 0.35 0.39 0.42 0.44 0.47 0.53 0.67 0.78 0.82 0.88 0.91 0.92 0.90 0.87 0.88 0.93 0.94 0.90 0.89 0.85 0.82 0.80 0.80 0.78 0.76 0.74 0.75 0.78 0.76 0.75 0.74 0.76 0.78 0.82 0.84 0.83 0.85 0.85
0.39 0.34 0.40 0.30 0.28 0.23 0.25 0.24 0.27 0.29 0.29 0.30 0.30 0.34 0.37 0.43 0.48 0.54 0.69 0.84 0.89 0.93 0.94 0.93 0.90 0.87 0.87 0.87 0.87 0.84 0.83 0.82 0.80 0.79 0.79 0.78 0.79 0.77 0.76 0.78 0.77 0.76 0.77 0.78 0.80 0.80 0.82 0.85 0.86
0.46 0.47 0.31 0.30 0.18 0.14 0.19 0.18 0.19 0.23 0.27 0.29 0.32 0.33 0.37 0.40 0.44 0.49 0.56 0.65 0.80 0.87 0.93 0.99 0.96 0.91 0.89 0.88 0.86 0.84 0.83 0.83 0.82 0.79 0.75 0.75 0.76 0.76 0.76 0.78 0.78 0.77 0.76 0.76 0.77 0.78 0.81 0.80 0.81
0.42 0.38 0.38 0.35 0.27 0.20 0.15 0.17 0.26 0.26 0.29 0.30 0.34 0.37 0.38 0.40 0.43 0.47 0.50 0.54 0.61 0.70 0.81 0.85 0.88 0.87 0.91 0.91 0.86 0.83 0.82 0.81 0.78 0.73 0.71 0.71 0.72 0.73 0.73 0.75 0.76 0.76 0.75 0.75 0.77 0.77 0.77 0.75 0.73
0.46 0.38 0.37 0.26 0.24 0.23 0.22 0.21 0.29 0.30 0.31 0.33 0.35 0.38 0.41 0.42 0.43 0.46 0.49 0.53 0.55 0.59 0.62 0.71 0.77 0.79 0.81 0.79 0.78 0.78 0.76 0.74 0.72 0.71 0.70 0.69 0.68 0.69 0.69 0.72 0.74 0.75 0.75 0.75 0.75 0.73 0.74 0.71 0.69

GFSSGP_prec_pwat_063.txt.gz
Precipitable_Water
1.20 1.16 1.17 0.97 0.58 0.58 0.52 0.54 0.73 0.87 0.86 0.91 0.90 0.97 1.09 1.11 0.94 0.75 1.44 1.48 1.51 1.32 1.32 1.31 1.35 1.40 1.39 1.35 1.30 1.22 1.13 1.18 1.39 1.06 0.98 0.89 0.81 0.87 0.99 1.15 1.27 1.26 1.18 1.02 0.93 0.87 0.86 0.85 0.80
1.19 1.20 0.99 0.82 0.54 0.42 0.47 0.58 0.62 0.79 0.95 0.90 0.92 1.09 1.13 1.10 1.28 1.32 1.37 1.57 1.39 1.30 1.30 1.32 1.39 1.36 1.33 1.29 1.22 1.15 1.07 1.16 1.20 1.10 1.04 0.94 0.83 0.86 0.95 1.00 0.99 0.98 0.96 0.96 0.93 0.91 0.92 0.90 0.82
1.21 1.24 0.74 0.63 0.53 0.42 0.43 0.56 0.69 0.80 0.90 0.89 0.90 1.18 1.34 1.19 1.41 1.39 1.57 1.62 1.38 1.33 1.38 1.40 1.40 1.35 1.31 1.23 1.15 1.03 1.03 1.15 1.26 1.19 1.15 1.01 0.87 0.85 0.87 0.94 0.98 0.95 0.97 0.96 0.92 0.93 0.92 0.90 0.84
1.11 1.00 0.80 0.51 0.44 0.47 0.48 0.56 0.63 0.76 0.83 0.92 0.94 1.02 1.46 1.67 1.55 1.57 1.66 1.61 1.37 1.41 1.48 1.52 1.47 1.41 1.32 1.23 1.09 0.99 1.02 1.09 1.26 1.26 1.16 1.06 0.92 0.87 0.84 0.85 0.90 0.92 0.92 0.92 0.93 0.93 0.94 0.93 0.89
1.13 0.86 0.58 0.46 0.42 0.49 0.54 0.65 0.69 0.68 0.73 0.79 0.90 1.06 1.22 1.69 1.76 1.68 1.63 1.59 1.40 1.49 1.57 1.61 1.56 1.46 1.40 1.30 1.15 1.04 1.02 1.04 1.22 1.30 1.21 1.13 0.99 0.89 0.90 0.87 0.90 0.93 0.94 0.95 0.98 0.97 0.95 0.98 0.95
0.79 0.80 0.49 0.40 0.39 0.51 0.63 0.72 0.68 0.67 0.69 0.76 0.84 0.96 1.21 1.69 1.71 1.69 1.69 1.63 1.60 1.55 1.60 1.65 1.59 1.51 1.43 1.34 1.17 1.07 1.07 1.13 1.24 1.41 1.27 1.18 1.07 0.94 0.93 0.93 0.93 0.93 0.94 0.95 0.96 0.98 0.95 0.93 0.93
0.73 0.65 0.47 0.42 0.42 0.47 0.66 0.71 0.66 0.68 0.73 0.80 0.96 0.92 1.20 1.37 1.70 1.76 1.73 1.74 1.72 1.68 1.62 1.59 1.60 1.56 1.50 1.34 1.20 1.03 1.22 1.25 1.32 1.45 1.33 1.17 1.10 1.04 0.95 0.96 0.96 0.96 0.94 0.93 0.94 0.94 0.94 0.90 0.87
0.82 0.72 0.52 0.49 0.44 0.49 0.63 0.68 0.75 0.74 0.84 1.01 1.02 0.86 0.97 1.32 1.68 1.73 1.81 1.78 1.76 1.75 1.65 1.55 1.61 1.58 1.52 1.43 1.26 1.07 1.26 1.28 1.34 1.45 1.32 1.19 1.13 1.10 1.00 1.00 0.98 0.94 0.92 0.92 0.93 0.92 0.90 0.88 0.85
0.96 0.65 0.51 0.51 0.50 0.57 0.67 0.65 0.76 0.88 0.82 0.92 1.04 1.07 1.18 1.37 1.44 1.71 1.66 1.69 1.75 1.74 1.67 1.59 1.57 1.56 1.53 1.45 1.36 1.13 1.21 1.33 1.38 1.40 1.30 1.20 1.13 1.06 1.05 0.99 0.98 0.96 0.91 0.89 0.88 0.87 0.85 0.83 0.82
0.79 0.63 0.55 0.66 0.68 0.59 0.63 0.64 0.70 0.76 0.76 0.82 0.92 1.24 1.37 1.43 1.25 1.27 1.54 1.48 1.65 1.64 1.68 1.61 1.64 1.59 1.55 1.43 1.35 1.31 1.11 1.16 1.27 1.27 1.19 1.17 1.23 1.16 1.12 1.10 1.01 0.92 0.90 0.88 0.87 0.86 0.83 0.84 0.84
0.71 0.65 0.68 0.71 0.78 0.72 0.67 0.69 0.78 0.73 0.66 0.73 0.76 0.93 1.21 1.28 1.27 1.20 1.42 1.62 1.59 1.71 1.72 1.66 1.66 1.66 1.57 1.46 1.38 1.31 1.28 1.11 1.05 1.02 1.01 1.17 1.19 1.21 1.14 1.09 1.01 0.91 0.90 0.90 0.97 0.97 0.96 0.92 0.94
0.65 0.74 0.74 0.80 0.85 0.75 0.69 0.76 0.71 0.76 0.72 0.82 0.91 0.96 1.01 1.15 1.17 1.26 1.26 1.44 1.70 1.65 1.74 1.68 1.73 1.69 1.65 1.57 1.46 1.39 1.32 1.28 1.21 1.17 1.06 1.06 1.10 1.10 1.05 1.04 1.04 0.95 1.01 0.99 1.02 0.98 1.02 1.07 1.09
0.69 0.77 0.80 0.82 0.88 0.80 0.77 0.71 0.72 0.75 0.83 0.88 0.94 0.97 0.99 1.05 1.20 1.29 1.40 1.42 1.55 1.62 1.70 1.63 1.69 1.76 1.71 1.65 1.59 1.50 1.38 1.36 1.33 1.26 1.25 1.13 1.07 1.00 1.05 1.07 1.06 0.98 0.98 1.00 1.02 1.05 1.06 1.06 1.06
0.76 0.73 0.84 0.81 0.84 0.86 0.71 0.70 0.73 0.78 0.84 0.84 0.84 0.83 1.02 1.06 1.20 1.28 1.41 1.39 1.47 1.67 1.67 1.65 1.66 1.78 1.82 1.69 1.58 1.48 1.44 1.42 1.40 1.35 1.28 1.22 1.14 1.08 1.04 1.05 0.98 0.96 0.97 0.99 1.00 1.02 1.07 1.09 1.09
0.75 0.65 0.73 0.83 0.84 0.79 0.79 0.61 0.62 0.77 0.81 0.77 0.78 0.82 0.85 1.01 1.16 1.18 1.34 1.45 1.55 1.57 1.68 1.62 1.62 1.67 1.66 1.58 1.55 1.51 1.40 1.45 1.39 1.38 1.34 1.26 1.20 1.15 1.16 1.06 1.05 1.05 1.02 1.03 1.08 1.11 1.12 1.09 1.09
0.65 0.66 0.52 0.70 0.76 0.80 0.73 0.50 0.67 0.76 0.70 0.69 0.74 0.79 0.82 0.86 0.99 1.19 1.28 1.39 1.55 1.61 1.56 1.66 1.69 1.66 1.62 1.59 1.56 1.53 1.50 1.45 1.43 1.40 1.37 1.29 1.22 1.22 1.17 1.16 1.19 1.21 1.19 1.16 1.16 1.15 1.10 1.11 1.11
0.55 0.43 0.49 0.53 0.73 0.76 0.66 0.55 0.69 0.74 0.72 0.69 0.70 0.77 0.80 0.84 0.88 0.93 1.18 1.34 1.38 1.45 1.54 1.55 1.59 1.60 1.61 1.61 1.60 1.56 1.54 1.45 1.42 1.43 1.35 1.30 1.29 1.20 1.21 1.23 1.27 1.33 1.30 1.26 1.22 1.16 1.14 1.10 1.10
0.35 0.38 0.45 0.48 0.62 0.68 0.63 0.57 0.63 0.67 0.65 0.62 0.64 0.70 0.75 0.80 0.84 0.91 0.97 1.22 1.31 1.46 1.47 1.50 1.53 1.55 1.55 1.52 1.47 1.44 1.43 1.40 1.44 1.41 1.36 1.38 1.32 1.25 1.24 1.28 1.32 1.35 1.32 1.28 1.24 1.18 1.20 1.17 1.09
0.47 0.43 0.40 0.51 0.62 0.64 0.60 0.59 0.57 0.61 0.60 0.56 0.57 0.62 0.69 0.75 0.88 0.91 0.94 1.03 1.25 1.32 1.38 1.45 1.45 1.43 1.42 1.34 1.24 1.17 1.13 1.23 1.27 1.36 1.42 1.45 1.42 1.38 1.35 1.33 1.35 1.38 1.29 1.25 1.25 1.20 1.15 1.09 1.14
0.44 0.40 0.39 0.47 0.58 0.62 0.59 0.55 0.55 0.59 0.58 0.59 0.60 0.61 0.66 0.71 0.79 0.87 0.89 0.94 1.05 1.17 1.29 1.36 1.40 1.44 1.47 1.42 1.39 1.35 1.31 1.30 1.36 1.43 1.49 1.53 1.55 1.55 1.48 1.45 1.38 1.34 1.27 1.25 1.23 1.21 1.12 1.08 1.09
0.46 0.38 0.36 0.40 0.53 0.61 0.54 0.48 0.50 0.55 0.61 0.64 0.65 0.65 0.67 0.70 0.74 0.80 0.87 0.87 0.92 1.03 1.19 1.31 1.37 1.42 1.46 1.48 1.46 1.45 1.46 1.44 1.41 1.41 1.44 1.45 1.50 1.49 1.48 1.48 1.42 1.38 1.34 1.22 1.21 1.17 1.09 0.92 0.97
0.35 0.47 0.46 0.49 0.50 0.39 0.54 0.31 0.40 0.45 0.50 0.57 0.61 0.63 0.65 0.67 0.72 0.76 0.79 0.83 0.86 0.91 1.07 1.30 1.36 1.41 1.46 1.50 1.48 1.41 1.30 1.23 1.34 1.41 1.44 1.49 1.45 1.39 1.37 1.33 1.31 1.29 1.21 1.13 1.07 1.04 0.94 0.88 0.75
0.40 0.44 0.43 0.51 0.43 0.40 0.40 0.34 0.35 0.46 0.44 0.49 0.55 0.61 0.65 0.68 0.71 0.74 0.78 0.81 0.85 0.90 0.97 1.14 1.33 1.37 1.43 1.50 1.51 1.45 1.37 1.41 1.39 1.37 1.33 1.33 1.36 1.32 1.22 1.14 1.00 0.94 0.93 0.90 0.86 0.85 0.83 0.87 0.82
0.52 0.47 0.53 0.50 0.45 0.30 0.37 0.34 0.28 0.36 0.40 0.44 0.52 0.58 0.61 0.64 0.71 0.75 0.79 0.83 0.86 0.91 0.94 1.01 1.13 1.27 1.34 1.38 1.41 1.41 1.34 1.27 1.25 1.23 1.20 1.18 1.17 1.11 0.99 0.94 0.91 0.88 0.88 0.88 0.89 0.89 0.86 0.84 0.83
0.48 0.40 0.33 0.30 0.28 0.25 0.35 0.31 0.30 0.37 0.42 0.43 0.43 0.46 0.57 0.62 0.66 0.68 0.71 0.77 0.83 0.87 0.90 0.93 0.96 1.01 1.17 1.26 1.28 1.29 1.29 1.22 1.16 1.13 1.09 1.08 1.01 0.92 0.93 0.96 0.92 0.90 0.90 0.90 0.89 0.88 0.84 0.81 0.78
0.40 0.38 0.27 0.20 0.20 0.23 0.32 0.24 0.28 0.38 0.41 0.42 0.41 0.40 0.44 0.48 0.55 0.61 0.70 0.74 0.79 0.86 0.89 0.88 0.89 0.91 0.95 1.01 1.07 1.09 1.07 1.07 1.07 1.04 1.03 1.03 1.00 0.99 0.97 0.97 0.96 0.93 0.91 0.88 0.88 0.87 0.87 0.86 0.84
0.37 0.32 0.38 0.28 0.28 0.22 0.26 0.28 0.33 0.35 0.35 0.35 0.36 0.36 0.38 0.40 0.46 0.50 0.60 0.69 0.75 0.81 0.83 0.85 0.85 0.86 0.92 0.95 0.96 0.95 0.96 0.97 0.99 0.99 0.98 0.94 0.97 0.95 0.95 0.96 0.94 0.91 0.90 0.88 0.88 0.84 0.83 0.85 0.86
0.41 0.43 0.29 0.31 0.20 0.18 0.24 0.24 0.24 0.29 0.31 0.31 0.31 0.33 0.36 0.39 0.41 0.43 0.46 0.57 0.69 0.73 0.79 0.81 0.86 0.87 0.89 0.93 0.96 0.95 0.94 0.92 0.91 0.91 0.88 0.89 0.91 0.92 0.91 0.93 0.91 0.89 0.86 0.86 0.84 0.82 0.84 0.82 0.84
0.40 0.35 0.36 0.35 0.32 0.24 0.20 0.22 0.33 0.34 0.34 0.32 0.33 0.37 0.39 0.41 0.42 0.43 0.45 0.47 0.51 0.63 0.69 0.74 0.83 0.88 0.88 0.92 0.94 0.96 0.94 0.92 0.90 0.89 0.92 0.93 0.95 0.96 0.93 0.91 0.85 0.84 0.80 0.78 0.77 0.79 0.80 0.79 0.79
0.47 0.40 0.39 0.29 0.26 0.30 0.27 0.25 0.39 0.38 0.36 0.35 0.35 0.39 0.43 0.46 0.47 0.48 0.48 0.49 0.50 0.53 0.59 0.61 0.68 0.82 0.88 0.89 0.89 0.89 0.87 0.86 0.86 0.90 0.93 0.92 0.91 0.91 0.90 0.90 0.88 0.79 0.76 0.74 0.74 0.76 0.77 0.76 0.76

GFSSGP_prec_pwat_066.txt.gz
Precipitable_Water
1.32 1.29 1.19 1.00 0.59 0.63 0.49 0.58 0.74 0.80 0.86 0.92 0.94 0.96 1.07 1.10 0.86 0.74 1.47 1.45 1.48 1.33 1.44 1.43 1.44 1.48 1.45 1.37 1.26 1.13 1.37 1.44 1.11 0.90 0.80 0.84 1.10 1.32 1.49 1.53 1.42 1.25 1.06 0.88 0.82 0.82 0.84 0.98 1.02
1.33 1.21 1.08 0.82 0.51 0.45 0.47 0.59 0.64 0.81 0.98 0.99 1.01 1.08 1.10 1.12 1.33 1.38 1.41 1.63 1.52 1.34 1.41 1.41 1.43 1.42 1.36 1.31 1.20 1.11 1.44 1.24 1.02 0.93 0.80 0.82 0.92 1.01 1.19 1.21 1.11 0.99 0.92 0.87 0.88 0.87 0.84 0.97 0.97
1.33 1.24 0.78 0.65 0.51 0.40 0.43 0.55 0.70 0.80 0.99 0.97 0.94 1.29 1.24 1.19 1.42 1.39 1.66 1.70 1.50 1.34 1.38 1.40 1.41 1.36 1.30 1.23 1.14 1.07 1.27 1.13 1.07 0.97 0.84 0.84 0.90 0.96 1.00 0.98 0.94 0.94 0.91 0.90 0.90 0.88 0.84 0.89 0.95
1.15 1.06 0.85 0.55 0.42 0.45 0.49 0.54 0.70 0.83 0.99 1.03 1.03 0.99 1.38 1.72 1.49 1.62 1.78 1.61 1.38 1.35 1.40 1.43 1.40 1.34 1.24 1.15 1.05 1.07 1.26 1.20 1.17 1.03 0.89 0.85 0.88 0.93 0.97 0.95 0.94 0.92 0.89 0.91 0.91 0.91 0.89 0.90 0.91
1.10 0.94 0.61 0.49 0.44 0.48 0.57 0.62 0.73 0.81 0.87 0.97 0.97 1.00 1.30 1.63 1.72 1.77 1.73 1.51 1.37 1.41 1.48 1.48 1.43 1.35 1.26 1.14 1.02 1.07 1.24 1.23 1.19 1.09 0.97 0.87 0.86 0.86 0.90 0.92 0.93 0.93 0.95 0.96 0.94 0.94 0.94 0.90 0.89
0.82 0.86 0.55 0.41 0.39 0.49 0.57 0.66 0.70 0.72 0.81 0.91 0.88 1.01 1.22 1.75 1.73 1.75 1.75 1.50 1.52 1.47 1.58 1.58 1.52 1.40 1.28 1.17 1.08 1.09 1.18 1.29 1.28 1.17 1.08 0.97 0.91 0.91 0.91 0.93 0.95 0.95 0.95 0.96 0.95 0.91 0.90 0.89 0.85
0.77 0.68 0.55 0.44 0.42 0.48 0.57 0.64 0.72 0.69 0.78 0.85 1.00 0.86 1.19 1.65 1.76 1.81 1.78 1.69 1.55 1.59 1.63 1.66 1.57 1.49 1.37 1.18 1.08 1.11 1.19 1.34 1.44 1.29 1.19 1.08 0.98 0.97 0.95 0.93 0.92 0.94 0.95 0.96 0.96 0.94 0.90 0.87 0.85
0.85 0.73 0.57 0.50 0.45 0.46 0.57 0.62 0.76 0.82 0.80 1.01 1.12 0.88 0.96 1.27 1.61 1.80 1.78 1.77 1.70 1.59 1.64 1.61 1.57 1.53 1.43 1.27 1.07 1.18 1.22 1.35 1.47 1.36 1.17 1.12 1.08 0.99 1.01 0.98 0.97 0.94 0.93 0.92 0.92 0.90 0.88 0.85 0.82
0.95 0.59 0.52 0.50 0.49 0.51 0.61 0.60 0.75 0.85 0.89 0.92 1.01 1.10 1.16 1.37 1.60 1.65 1.75 1.74 1.74 1.69 1.64 1.57 1.56 1.55 1.46 1.33 1.20 1.29 1.27 1.33 1.44 1.38 1.23 1.18 1.12 1.07 1.00 1.00 0.97 0.94 0.90 0.88 0.87 0.85 0.83 0.81 0.79
0.77 0.56 0.59 0.62 0.58 0.56 0.61 0.61 0.70 0.75 0.89 0.92 0.97 1.18 1.31 1.39 1.41 1.42 1.49 1.61 1.63 1.61 1.64 1.63 1.58 1.55 1.49 1.38 1.25 1.31 1.36 1.33 1.40 1.36 1.25 1.17 1.15 1.10 1.08 1.01 0.95 0.94 0.90 0.87 0.84 0.83 0.82 0.82 0.81
0.78 0.55 0.71 0.71 0.73 0.69 0.66 0.64 0.74 0.74 0.73 0.91 0.90 0.97 1.12 1.17 1.14 1.13 1.24 1.59 1.67 1.73 1.67 1.65 1.61 1.61 1.52 1.41 1.34 1.24 1.29 1.39 1.38 1.30 1.19 1.16 1.20 1.17 1.14 1.10 1.02 0.92 0.90 0.88 0.92 0.91 0.88 0.88 0.92
0.65 0.70 0.79 0.76 0.79 0.72 0.67 0.73 0.70 0.75 0.74 0.92 1.09 1.14 1.07 1.12 1.05 1.00 1.07 1.34 1.65 1.79 1.75 1.70 1.63 1.63 1.62 1.54 1.41 1.34 1.24 1.15 1.15 1.12 1.12 1.09 1.09 1.12 1.09 1.05 1.03 0.91 0.94 0.89 0.98 0.97 0.97 1.01 1.05
0.63 0.66 0.75 0.83 0.84 0.79 0.79 0.70 0.69 0.74 0.83 0.95 0.98 1.09 1.12 1.16 1.15 1.11 1.13 1.33 1.37 1.53 1.74 1.78 1.75 1.62 1.63 1.58 1.56 1.51 1.39 1.32 1.28 1.25 1.16 1.12 1.09 1.07 1.05 1.05 1.09 1.01 1.01 0.98 0.99 1.01 1.03 1.05 1.04
0.75 0.70 0.70 0.85 0.85 0.84 0.74 0.70 0.73 0.77 0.86 0.88 0.85 0.89 1.07 1.13 1.23 1.25 1.21 1.22 1.33 1.39 1.58 1.84 1.72 1.75 1.70 1.63 1.62 1.58 1.52 1.44 1.41 1.37 1.32 1.24 1.17 1.09 1.03 1.01 1.09 1.03 1.02 1.03 1.04 1.05 1.06 1.06 1.07
0.78 0.64 0.71 0.72 0.82 0.78 0.82 0.65 0.66 0.80 0.83 0.79 0.79 0.85 1.00 1.06 1.23 1.24 1.27 1.29 1.41 1.54 1.58 1.68 1.75 1.82 1.75 1.77 1.70 1.62 1.55 1.51 1.44 1.41 1.38 1.31 1.25 1.16 1.08 1.01 1.02 1.04 1.06 1.05 1.07 1.09 1.13 1.11 1.10
0.64 0.64 0.51 0.67 0.79 0.83 0.79 0.54 0.70 0.79 0.77 0.75 0.77 0.78 0.82 0.99 1.10 1.23 1.34 1.34 1.45 1.45 1.53 1.64 1.62 1.75 1.75 1.74 1.72 1.67 1.59 1.49 1.45 1.43 1.41 1.37 1.31 1.22 1.17 1.09 1.07 1.16 1.16 1.14 1.11 1.13 1.10 1.08 1.10
0.55 0.43 0.48 0.55 0.73 0.77 0.68 0.60 0.72 0.78 0.74 0.72 0.73 0.74 0.77 0.84 0.98 1.15 1.28 1.35 1.41 1.49 1.50 1.44 1.57 1.63 1.68 1.68 1.64 1.61 1.62 1.54 1.51 1.51 1.44 1.40 1.35 1.29 1.21 1.17 1.20 1.28 1.26 1.26 1.22 1.20 1.15 1.07 1.08
0.34 0.44 0.49 0.48 0.64 0.68 0.64 0.66 0.72 0.76 0.72 0.69 0.69 0.72 0.73 0.76 0.82 0.93 1.09 1.30 1.40 1.47 1.50 1.54 1.62 1.69 1.69 1.69 1.69 1.67 1.63 1.58 1.53 1.47 1.42 1.43 1.38 1.37 1.29 1.21 1.25 1.30 1.28 1.28 1.28 1.20 1.20 1.17 1.14
0.45 0.48 0.48 0.57 0.67 0.62 0.61 0.64 0.69 0.71 0.67 0.64 0.62 0.63 0.67 0.70 0.80 0.90 0.95 1.10 1.30 1.40 1.46 1.49 1.54 1.57 1.56 1.50 1.47 1.46 1.37 1.39 1.39 1.40 1.41 1.41 1.37 1.40 1.34 1.29 1.30 1.32 1.26 1.26 1.28 1.24 1.17 1.11 1.16
0.47 0.42 0.44 0.55 0.62 0.60 0.58 0.57 0.63 0.64 0.62 0.63 0.61 0.61 0.62 0.67 0.72 0.80 0.87 0.95 1.15 1.21 1.33 1.40 1.48 1.55 1.54 1.47 1.46 1.41 1.35 1.34 1.35 1.34 1.37 1.36 1.43 1.45 1.44 1.43 1.42 1.45 1.36 1.26 1.27 1.25 1.17 1.17 1.18
0.45 0.40 0.40 0.40 0.50 0.59 0.58 0.52 0.55 0.59 0.65 0.63 0.63 0.63 0.63 0.62 0.64 0.71 0.76 0.86 1.00 1.13 1.17 1.25 1.32 1.40 1.44 1.50 1.54 1.53 1.47 1.44 1.35 1.35 1.36 1.45 1.51 1.50 1.52 1.52 1.51 1.46 1.42 1.35 1.32 1.28 1.19 1.04 1.08
0.39 0.48 0.47 0.42 0.41 0.35 0.54 0.32 0.45 0.53 0.53 0.56 0.59 0.61 0.63 0.66 0.67 0.70 0.73 0.78 0.88 0.99 1.13 1.22 1.29 1.34 1.42 1.48 1.49 1.46 1.41 1.35 1.42 1.43 1.49 1.45 1.48 1.46 1.46 1.41 1.37 1.34 1.31 1.31 1.25 1.28 1.16 1.06 0.83
0.42 0.52 0.48 0.48 0.45 0.45 0.44 0.38 0.37 0.46 0.42 0.46 0.53 0.59 0.63 0.67 0.67 0.68 0.71 0.77 0.83 0.91 1.00 1.18 1.30 1.33 1.40 1.45 1.45 1.42 1.39 1.46 1.46 1.46 1.41 1.50 1.52 1.53 1.50 1.47 1.38 1.29 1.23 1.08 0.94 0.88 0.86 0.88 0.85
0.54 0.48 0.49 0.51 0.48 0.34 0.40 0.38 0.30 0.38 0.41 0.44 0.51 0.57 0.61 0.65 0.67 0.69 0.73 0.77 0.80 0.86 0.90 1.00 1.18 1.25 1.31 1.37 1.42 1.41 1.41 1.40 1.36 1.37 1.38 1.39 1.36 1.35 1.35 1.29 1.17 0.99 0.92 0.90 0.92 0.94 0.92 0.89 0.88
0.49 0.40 0.30 0.27 0.30 0.28 0.41 0.36 0.33 0.41 0.47 0.47 0.48 0.54 0.58 0.62 0.63 0.66 0.70 0.75 0.81 0.82 0.87 0.94 1.07 1.12 1.23 1.27 1.31 1.36 1.38 1.37 1.35 1.33 1.34 1.23 1.20 1.23 1.18 1.11 0.96 0.94 0.95 1.00 1.01 0.98 0.95 0.89 0.84
0.43 0.39 0.31 0.22 0.23 0.28 0.40 0.27 0.31 0.41 0.44 0.47 0.47 0.47 0.48 0.52 0.58 0.63 0.69 0.72 0.78 0.83 0.87 0.90 0.93 0.96 1.06 1.15 1.21 1.30 1.36 1.33 1.29 1.26 1.25 1.22 1.16 1.11 1.08 1.02 1.05 1.07 1.06 1.03 0.99 0.98 0.93 0.91 0.88
0.41 0.34 0.43 0.33 0.31 0.25 0.30 0.33 0.36 0.38 0.38 0.41 0.42 0.42 0.42 0.43 0.46 0.51 0.58 0.69 0.74 0.79 0.83 0.86 0.87 0.89 0.92 0.92 0.96 1.06 1.18 1.25 1.18 1.15 1.12 1.09 1.05 1.01 0.99 0.99 0.96 0.96 0.95 0.96 0.97 0.95 0.91 0.87 0.87
0.42 0.45 0.32 0.31 0.21 0.18 0.24 0.24 0.24 0.29 0.32 0.36 0.35 0.37 0.39 0.41 0.41 0.44 0.46 0.52 0.66 0.74 0.80 0.84 0.84 0.85 0.86 0.88 0.90 0.93 0.96 0.99 1.01 0.98 0.93 0.95 0.99 1.02 0.96 0.95 0.97 0.99 0.99 0.99 0.95 0.89 0.88 0.84 0.85
0.35 0.32 0.33 0.33 0.29 0.20 0.18 0.22 0.31 0.32 0.36 0.34 0.35 0.38 0.41 0.42 0.43 0.45 0.47 0.49 0.51 0.55 0.64 0.70 0.73 0.76 0.79 0.87 0.90 0.87 0.91 0.95 0.99 1.00 1.00 0.96 0.89 0.89 0.90 0.92 0.94 0.94 0.94 0.95 0.93 0.91 0.88 0.81 0.80
0.44 0.36 0.34 0.25 0.25 0.28 0.24 0.23 0.37 0.39 0.39 0.39 0.39 0.42 0.45 0.45 0.46 0.47 0.48 0.50 0.51 0.52 0.54 0.55 0.60 0.63 0.69 0.80 0.86 0.87 0.89 0.89 0.92 0.92 0.91 0.90 0.89 0.91 0.91 0.90 0.89 0.85 0.84 0.83 0.81 0.84 0.84 0.81 0.78

GFSSGP_prec_pwat_069.txt.gz
Precipitable_Water
1.29 1.37 1.28 1.00 0.64 0.60 0.54 0.57 0.76 0.81 0.88 0.96 1.00 0.99 0.99 1.06 0.80 0.67 1.50 1.39 1.34 1.38 1.45 1.45 1.48 1.53 1.53 1.38 1.13 1.15 1.50 1.30 0.87 0.85 1.15 1.46 1.62 1.67 1.63 1.60 1.51 1.26 0.88 0.79 0.83 0.95 1.00 1.00 1.01
1.30 1.32 1.13 0.85 0.54 0.44 0.46 0.59 0.64 0.84 0.99 1.04 1.01 1.12 1.06 1.04 1.26 1.34 1.33 1.50 1.39 1.42 1.46 1.46 1.50 1.52 1.44 1.26 1.10 1.32 1.39 1.01 0.84 0.79 1.00 1.26 1.47 1.55 1.45 1.29 1.11 0.87 0.84 0.86 0.86 0.94 0.96 0.97 1.03
1.28 1.27 0.85 0.67 0.56 0.39 0.40 0.58 0.62 0.79 0.95 1.02 0.97 1.20 1.19 1.17 1.40 1.35 1.57 1.64 1.47 1.43 1.46 1.48 1.48 1.44 1.34 1.18 1.18 1.36 1.18 0.96 0.85 0.81 0.86 1.01 1.15 1.22 1.16 1.06 0.95 0.90 0.90 0.88 0.83 0.93 0.96 0.96 1.00
1.09 0.97 0.90 0.60 0.49 0.45 0.44 0.56 0.62 0.77 0.96 1.06 1.04 0.97 1.40 1.66 1.50 1.55 1.73 1.70 1.48 1.42 1.45 1.48 1.50 1.38 1.27 1.14 1.15 1.29 1.10 1.04 0.89 0.83 0.88 0.96 1.02 0.99 0.96 0.97 0.95 0.90 0.90 0.90 0.88 0.88 0.92 0.92 0.93
1.04 0.86 0.63 0.56 0.50 0.49 0.51 0.58 0.67 0.70 0.81 0.96 1.04 0.96 1.20 1.62 1.78 1.78 1.73 1.68 1.44 1.42 1.47 1.47 1.47 1.35 1.22 1.11 1.10 1.28 1.16 1.12 0.99 0.88 0.89 0.94 0.96 0.99 0.95 0.96 0.93 0.93 0.93 0.91 0.89 0.87 0.87 0.86 0.86
0.76 0.82 0.52 0.49 0.48 0.50 0.53 0.61 0.65 0.71 0.81 0.92 0.99 1.00 1.12 1.71 1.73 1.79 1.77 1.62 1.51 1.43 1.51 1.50 1.45 1.34 1.21 1.09 1.13 1.30 1.25 1.16 1.06 0.92 0.88 0.89 0.93 0.98 0.99 0.98 0.96 0.97 0.96 0.92 0.90 0.89 0.87 0.85 0.85
0.67 0.65 0.52 0.47 0.51 0.50 0.53 0.63 0.64 0.68 0.76 0.82 1.02 0.91 1.17 1.44 1.86 1.82 1.75 1.60 1.51 1.53 1.53 1.51 1.47 1.37 1.20 1.10 1.12 1.27 1.33 1.27 1.17 1.06 0.96 0.93 0.91 0.92 0.94 0.96 0.97 1.00 1.01 1.00 0.96 0.92 0.89 0.86 0.81
0.66 0.67 0.54 0.52 0.53 0.46 0.55 0.59 0.68 0.69 0.76 0.86 0.96 0.90 0.98 1.36 1.69 1.86 1.77 1.61 1.56 1.61 1.60 1.55 1.53 1.43 1.29 1.17 1.16 1.23 1.38 1.45 1.35 1.22 1.09 1.00 1.00 1.00 0.98 0.97 0.97 0.97 0.96 0.96 0.94 0.92 0.88 0.84 0.80
0.76 0.53 0.47 0.51 0.54 0.52 0.59 0.57 0.73 0.92 0.83 0.91 0.90 1.04 1.19 1.35 1.45 1.77 1.67 1.60 1.57 1.63 1.65 1.61 1.53 1.47 1.33 1.20 1.16 1.23 1.33 1.51 1.44 1.31 1.15 1.12 1.05 1.03 1.03 1.01 0.98 0.96 0.94 0.92 0.91 0.89 0.85 0.80 0.76
0.56 0.49 0.45 0.68 0.64 0.60 0.60 0.59 0.66 0.77 0.87 0.87 0.92 1.13 1.28 1.27 1.30 1.44 1.56 1.57 1.61 1.55 1.61 1.62 1.52 1.46 1.37 1.26 1.25 1.33 1.31 1.48 1.46 1.32 1.24 1.17 1.13 1.06 1.02 1.03 0.99 0.95 0.91 0.88 0.86 0.85 0.82 0.82 0.80
0.50 0.47 0.56 0.71 0.74 0.75 0.63 0.65 0.68 0.73 0.77 0.87 0.87 1.05 1.19 1.20 1.26 1.20 1.48 1.67 1.63 1.72 1.70 1.69 1.58 1.52 1.41 1.28 1.26 1.39 1.37 1.41 1.46 1.37 1.25 1.19 1.16 1.13 1.11 1.05 1.00 0.97 0.93 0.87 0.87 0.87 0.85 0.85 0.88
0.46 0.62 0.59 0.69 0.81 0.76 0.66 0.69 0.67 0.72 0.72 0.99 1.08 1.25 1.07 1.13 1.15 1.08 1.20 1.36 1.34 1.63 1.78 1.79 1.73 1.57 1.50 1.40 1.28 1.27 1.38 1.42 1.45 1.42 1.32 1.14 1.17 1.15 1.13 1.10 1.05 0.95 0.93 0.88 0.94 0.95 0.96 0.98 1.05
0.51 0.58 0.66 0.75 0.83 0.82 0.77 0.70 0.65 0.70 0.82 1.01 1.20 1.27 1.12 1.18 1.17 1.28 1.35 1.40 1.45 1.29 1.69 1.76 1.81 1.70 1.58 1.48 1.41 1.34 1.28 1.26 1.35 1.35 1.27 1.16 1.13 1.14 1.12 1.06 1.08 1.05 0.98 1.00 1.01 1.01 1.03 1.07 1.07
0.51 0.65 0.64 0.81 0.78 0.84 0.70 0.72 0.71 0.76 0.89 0.90 1.09 1.11 1.16 1.24 1.26 1.24 1.31 1.35 1.38 1.22 1.31 1.49 1.63 1.80 1.73 1.55 1.51 1.49 1.45 1.36 1.28 1.27 1.25 1.24 1.21 1.18 1.16 1.05 1.04 1.07 1.07 1.08 1.08 1.06 1.09 1.11 1.11
0.52 0.55 0.64 0.76 0.79 0.78 0.79 0.65 0.65 0.78 0.88 0.85 0.89 1.01 1.06 1.11 1.24 1.17 1.21 1.25 1.22 1.31 1.39 1.38 1.49 1.84 1.77 1.72 1.62 1.58 1.57 1.53 1.47 1.42 1.39 1.35 1.32 1.25 1.18 1.10 1.02 1.07 1.08 1.08 1.11 1.11 1.13 1.11 1.13
0.48 0.54 0.51 0.69 0.72 0.82 0.77 0.53 0.71 0.81 0.82 0.77 0.83 0.88 0.96 1.06 1.13 1.21 1.30 1.28 1.38 1.40 1.49 1.55 1.56 1.48 1.67 1.73 1.75 1.78 1.69 1.60 1.53 1.54 1.50 1.43 1.35 1.31 1.19 1.14 1.03 1.05 1.08 1.09 1.09 1.11 1.11 1.13 1.12
0.46 0.40 0.47 0.53 0.72 0.69 0.69 0.60 0.74 0.80 0.79 0.74 0.78 0.81 0.86 0.95 1.09 1.17 1.28 1.29 1.40 1.39 1.51 1.63 1.59 1.44 1.45 1.57 1.71 1.69 1.77 1.72 1.63 1.54 1.50 1.47 1.43 1.38 1.25 1.20 1.15 1.17 1.15 1.16 1.17 1.19 1.18 1.10 1.07
0.35 0.40 0.50 0.47 0.61 0.65 0.65 0.63 0.72 0.77 0.75 0.74 0.76 0.80 0.81 0.84 0.93 1.11 1.23 1.32 1.42 1.46 1.47 1.50 1.56 1.46 1.52 1.57 1.64 1.64 1.66 1.70 1.65 1.58 1.59 1.60 1.53 1.48 1.37 1.28 1.26 1.25 1.21 1.21 1.21 1.17 1.20 1.17 1.16
0.47 0.43 0.45 0.56 0.66 0.60 0.60 0.65 0.67 0.74 0.72 0.71 0.73 0.75 0.77 0.80 0.88 0.92 0.98 1.20 1.36 1.44 1.46 1.50 1.53 1.57 1.62 1.61 1.59 1.63 1.55 1.60 1.60 1.62 1.62 1.56 1.51 1.46 1.40 1.37 1.32 1.34 1.28 1.24 1.26 1.22 1.19 1.21 1.24
0.48 0.42 0.45 0.56 0.64 0.57 0.60 0.60 0.70 0.72 0.71 0.71 0.71 0.70 0.72 0.75 0.78 0.83 0.88 0.91 1.21 1.34 1.40 1.45 1.51 1.57 1.55 1.57 1.52 1.59 1.58 1.59 1.54 1.50 1.49 1.49 1.49 1.50 1.39 1.37 1.36 1.37 1.38 1.39 1.35 1.26 1.19 1.19 1.25
0.45 0.39 0.44 0.47 0.57 0.59 0.57 0.52 0.59 0.72 0.77 0.71 0.69 0.68 0.67 0.66 0.67 0.72 0.77 0.85 0.91 1.10 1.28 1.38 1.42 1.44 1.50 1.47 1.48 1.57 1.55 1.51 1.45 1.44 1.45 1.50 1.53 1.56 1.51 1.51 1.48 1.46 1.50 1.41 1.40 1.36 1.29 1.17 1.17
0.38 0.48 0.46 0.47 0.42 0.35 0.53 0.34 0.48 0.61 0.66 0.64 0.65 0.64 0.64 0.65 0.67 0.69 0.72 0.76 0.81 0.89 1.11 1.28 1.35 1.43 1.47 1.53 1.53 1.49 1.41 1.34 1.43 1.43 1.48 1.45 1.51 1.51 1.59 1.59 1.56 1.52 1.49 1.39 1.34 1.33 1.28 1.20 1.02
0.43 0.51 0.45 0.46 0.44 0.42 0.42 0.39 0.40 0.53 0.48 0.52 0.57 0.59 0.61 0.64 0.67 0.69 0.72 0.76 0.81 0.83 0.90 1.11 1.25 1.31 1.42 1.41 1.40 1.42 1.41 1.46 1.53 1.50 1.50 1.48 1.53 1.54 1.59 1.58 1.51 1.42 1.32 1.30 1.32 1.19 1.01 0.94 0.88
0.56 0.50 0.52 0.50 0.43 0.30 0.40 0.39 0.32 0.40 0.46 0.51 0.54 0.56 0.61 0.65 0.69 0.72 0.75 0.77 0.77 0.81 0.85 0.95 1.08 1.19 1.28 1.28 1.33 1.29 1.31 1.34 1.41 1.42 1.47 1.43 1.44 1.48 1.55 1.50 1.43 1.36 1.31 1.28 1.06 0.93 0.94 0.94 0.95
0.50 0.43 0.32 0.30 0.31 0.29 0.46 0.39 0.37 0.43 0.48 0.51 0.50 0.51 0.56 0.60 0.64 0.68 0.70 0.72 0.76 0.79 0.82 0.87 0.95 1.03 1.18 1.23 1.27 1.31 1.33 1.32 1.33 1.36 1.48 1.38 1.40 1.43 1.39 1.39 1.33 1.25 1.19 1.02 0.98 1.00 0.99 0.98 0.97
0.43 0.39 0.29 0.20 0.25 0.30 0.45 0.31 0.34 0.45 0.52 0.50 0.49 0.52 0.56 0.57 0.60 0.66 0.70 0.72 0.74 0.79 0.85 0.89 0.92 0.96 1.06 1.13 1.20 1.24 1.31 1.33 1.35 1.37 1.42 1.38 1.44 1.38 1.35 1.29 1.25 1.14 0.98 0.99 1.00 1.00 1.00 1.00 0.97
0.42 0.34 0.40 0.31 0.34 0.31 0.34 0.32 0.36 0.43 0.45 0.46 0.46 0.47 0.46 0.49 0.51 0.55 0.62 0.72 0.75 0.78 0.81 0.87 0.91 0.92 0.93 0.94 0.97 1.02 1.11 1.16 1.21 1.32 1.40 1.34 1.33 1.30 1.24 1.14 1.02 1.03 1.05 1.04 1.02 1.01 0.99 1.01 0.99
0.44 0.44 0.31 0.31 0.23 0.20 0.29 0.28 0.27 0.33 0.36 0.40 0.42 0.44 0.46 0.49 0.48 0.49 0.50 0.54 0.65 0.75 0.82 0.85 0.86 0.86 0.89 0.90 0.91 0.91 0.94 0.99 1.07 1.16 1.21 1.22 1.19 1.08 1.02 1.00 1.00 0.99 0.97 0.96 0.96 0.95 0.98 0.98 0.98
0.37 0.35 0.36 0.35 0.30 0.22 0.20 0.25 0.36 0.36 0.38 0.38 0.40 0.43 0.44 0.45 0.46 0.47 0.48 0.51 0.54 0.57 0.59 0.65 0.73 0.77 0.80 0.80 0.83 0.84 0.88 0.92 0.95 0.97 0.99 0.97 1.03 1.05 1.02 0.99 0.89 0.88 0.90 0.93 0.91 0.88 0.87 0.84 0.84
0.43 0.36 0.34 0.25 0.24 0.28 0.25 0.25 0.40 0.40 0.42 0.42 0.41 0.43 0.45 0.47 0.47 0.48 0.49 0.50 0.50 0.52 0.55 0.57 0.59 0.59 0.62 0.66 0.69 0.75 0.83 0.88 0.87 0.88 0.92 0.95 0.99 0.98 0.94 0.89 0.89 0.90 0.87 0.87 0.83 0.78 0.76 0.75 0.77

GFSSGP_prec_pwat_075.txt.gz
Precipitable_Water
1.02 1.08 1.18 0.94 0.49 0.52 0.41 0.45 0.58 0.56 0.68 0.97 1.04 0.98 0.95 1.05 0.83 0.68 1.47 1.57 1.52 1.47 1.56 1.62 1.52 1.42 1.37 1.20 1.12 1.31 1.23 1.22 1.53 1.66 1.64 1.55 1.62 1.72 1.75 1.68 1.49 1.07 1.00 1.00 1.05 1.07 1.06 1.06 1.04
1.03 1.02 0.97 0.78 0.43 0.34 0.34 0.50 0.51 0.59 0.78 0.99 1.05 1.07 1.05 1.02 1.32 1.32 1.40 1.62 1.59 1.50 1.58 1.58 1.57 1.50 1.48 1.17 1.22 1.40 1.20 1.16 1.54 1.69 1.75 1.82 1.76 1.67 1.63 1.45 1.05 0.98 1.02 1.05 1.06 1.06 1.07 1.10 1.09
0.93 0.96 0.67 0.56 0.46 0.32 0.32 0.44 0.54 0.61 0.82 0.90 1.02 1.11 1.13 1.17 1.48 1.45 1.63 1.62 1.63 1.55 1.57 1.56 1.60 1.58 1.47 1.14 1.32 1.41 0.99 0.95 1.42 1.68 1.77 1.84 1.65 1.62 1.44 1.06 0.91 0.95 1.02 1.06 1.06 1.07 1.08 1.14 1.12
0.75 0.77 0.71 0.47 0.40 0.43 0.44 0.46 0.52 0.60 0.74 0.93 1.04 1.02 1.22 1.56 1.58 1.74 1.77 1.64 1.60 1.58 1.58 1.58 1.63 1.60 1.36 1.14 1.39 1.33 0.92 0.85 1.23 1.60 1.75 1.78 1.53 1.34 1.06 0.94 0.95 0.93 1.01 1.04 1.02 1.03 1.04 1.05 1.10
0.73 0.66 0.42 0.40 0.42 0.48 0.56 0.54 0.55 0.57 0.69 0.78 0.90 0.94 1.04 1.45 1.62 1.84 1.74 1.68 1.57 1.58 1.62 1.60 1.68 1.56 1.27 1.23 1.40 1.22 0.90 0.86 1.03 1.38 1.53 1.47 1.31 1.17 1.00 0.94 0.94 0.94 1.00 1.02 0.97 0.96 0.96 0.94 0.92
0.46 0.53 0.33 0.31 0.38 0.49 0.60 0.61 0.62 0.59 0.68 0.72 0.84 0.84 1.07 1.47 1.51 1.75 1.83 1.67 1.63 1.57 1.62 1.64 1.72 1.51 1.24 1.39 1.38 1.18 0.96 0.87 0.98 1.13 1.28 1.25 1.15 1.01 0.98 0.96 1.00 0.99 0.95 0.96 0.93 0.93 0.93 0.90 0.88
0.42 0.38 0.27 0.29 0.38 0.47 0.52 0.66 0.62 0.59 0.63 0.68 0.85 0.77 0.98 1.33 1.54 1.70 1.95 1.79 1.66 1.63 1.62 1.61 1.71 1.51 1.22 1.45 1.35 1.17 1.01 0.91 0.96 1.04 1.06 1.06 1.07 1.03 1.02 1.01 1.01 1.00 0.99 0.99 0.97 0.95 0.92 0.89 0.85
0.51 0.43 0.29 0.31 0.35 0.36 0.57 0.66 0.67 0.65 0.62 0.79 0.89 0.75 0.79 1.08 1.53 1.59 1.89 1.87 1.65 1.65 1.62 1.58 1.67 1.44 1.19 1.31 1.36 1.27 1.12 0.99 0.94 1.00 1.07 1.11 1.05 1.05 1.03 1.04 1.05 1.03 1.01 0.99 0.97 0.94 0.90 0.84 0.82
0.59 0.37 0.26 0.26 0.31 0.35 0.57 0.61 0.72 0.76 0.71 0.77 0.81 0.81 0.91 1.11 1.50 1.53 1.61 1.77 1.72 1.64 1.63 1.57 1.55 1.36 1.11 1.13 1.41 1.36 1.24 1.12 0.98 0.96 0.99 1.03 1.06 1.07 1.05 1.04 1.04 1.03 1.01 0.98 0.97 0.93 0.88 0.83 0.78
0.43 0.31 0.27 0.31 0.38 0.39 0.51 0.60 0.66 0.70 0.67 0.75 0.80 0.98 1.01 0.98 1.26 1.34 1.39 1.42 1.61 1.56 1.63 1.56 1.50 1.29 1.11 1.09 1.34 1.44 1.37 1.27 1.18 1.07 1.02 1.03 1.06 1.07 1.06 1.05 1.04 1.03 1.01 0.97 0.95 0.92 0.86 0.80 0.78
0.35 0.27 0.33 0.35 0.42 0.52 0.51 0.57 0.69 0.72 0.64 0.72 0.70 0.84 1.01 1.02 1.10 1.17 1.33 1.42 1.51 1.66 1.70 1.64 1.52 1.37 1.17 1.05 1.18 1.39 1.49 1.40 1.36 1.20 1.13 1.09 1.10 1.11 1.07 1.07 1.06 1.04 1.01 0.97 0.94 0.89 0.84 0.82 0.82
0.35 0.33 0.40 0.42 0.45 0.52 0.47 0.59 0.65 0.72 0.70 0.80 0.79 0.91 0.97 0.97 1.00 1.12 1.21 1.33 1.50 1.55 1.76 1.68 1.59 1.41 1.28 1.16 1.12 1.26 1.44 1.52 1.40 1.31 1.24 1.18 1.11 1.06 1.05 1.04 1.03 1.01 1.01 0.94 0.92 0.89 0.89 0.93 0.97
0.41 0.36 0.43 0.45 0.49 0.53 0.59 0.55 0.61 0.67 0.78 0.87 0.92 0.89 0.93 1.01 1.07 1.19 1.27 1.31 1.41 1.48 1.64 1.73 1.66 1.49 1.39 1.23 1.17 1.21 1.27 1.44 1.51 1.43 1.29 1.23 1.16 1.10 1.10 1.07 1.07 1.03 1.03 1.01 1.00 1.03 1.02 1.03 1.10
0.43 0.42 0.42 0.48 0.42 0.53 0.52 0.61 0.67 0.65 0.78 0.84 0.98 0.94 0.98 1.02 1.09 1.17 1.19 1.15 1.30 1.43 1.48 1.72 1.72 1.61 1.52 1.38 1.27 1.25 1.33 1.35 1.44 1.51 1.44 1.38 1.23 1.19 1.20 1.17 1.13 1.10 1.02 1.01 1.06 1.11 1.10 1.12 1.16
0.50 0.38 0.40 0.42 0.44 0.48 0.58 0.48 0.55 0.70 0.75 0.79 0.98 1.01 1.06 1.05 1.10 1.13 1.14 1.16 1.19 1.43 1.51 1.46 1.51 1.64 1.59 1.51 1.46 1.36 1.37 1.38 1.42 1.49 1.55 1.52 1.37 1.19 1.21 1.22 1.21 1.16 1.14 1.08 1.15 1.14 1.14 1.14 1.17
0.44 0.40 0.29 0.37 0.46 0.49 0.60 0.36 0.58 0.79 0.75 0.77 0.91 0.93 0.98 1.12 1.15 1.18 1.23 1.26 1.28 1.31 1.38 1.44 1.52 1.53 1.53 1.57 1.58 1.56 1.52 1.47 1.47 1.47 1.47 1.44 1.38 1.33 1.36 1.34 1.30 1.26 1.24 1.18 1.13 1.09 1.10 1.13 1.17
0.40 0.30 0.32 0.42 0.46 0.52 0.56 0.46 0.61 0.79 0.78 0.81 0.87 0.90 0.97 1.08 1.26 1.26 1.32 1.39 1.37 1.32 1.35 1.40 1.42 1.42 1.48 1.56 1.54 1.64 1.57 1.54 1.55 1.57 1.53 1.55 1.55 1.51 1.48 1.43 1.38 1.33 1.20 1.18 1.16 1.12 1.13 1.16 1.18
0.34 0.33 0.37 0.36 0.46 0.54 0.53 0.53 0.65 0.73 0.80 0.82 0.82 0.89 1.06 1.15 1.18 1.29 1.38 1.31 1.42 1.47 1.42 1.40 1.40 1.42 1.47 1.50 1.52 1.60 1.60 1.57 1.56 1.57 1.60 1.62 1.66 1.63 1.56 1.52 1.46 1.36 1.21 1.14 1.21 1.21 1.23 1.17 1.16
0.44 0.40 0.37 0.44 0.48 0.46 0.52 0.56 0.61 0.72 0.79 0.78 0.83 0.85 0.95 1.00 1.23 1.29 1.29 1.34 1.47 1.51 1.46 1.38 1.36 1.45 1.39 1.38 1.41 1.48 1.42 1.43 1.46 1.49 1.60 1.65 1.67 1.70 1.64 1.55 1.48 1.44 1.31 1.24 1.29 1.30 1.21 1.21 1.23
0.44 0.38 0.37 0.46 0.55 0.49 0.52 0.54 0.63 0.70 0.79 0.80 0.80 0.83 0.88 0.93 1.00 1.10 1.19 1.28 1.33 1.51 1.40 1.40 1.43 1.53 1.51 1.48 1.53 1.45 1.50 1.50 1.53 1.54 1.51 1.57 1.62 1.78 1.69 1.61 1.58 1.57 1.46 1.36 1.36 1.33 1.25 1.29 1.26
0.42 0.39 0.40 0.44 0.52 0.54 0.54 0.49 0.58 0.71 0.78 0.81 0.84 0.85 0.87 0.90 0.91 0.95 1.03 1.11 1.16 1.18 1.31 1.37 1.34 1.33 1.32 1.47 1.57 1.57 1.60 1.59 1.55 1.56 1.58 1.58 1.69 1.81 1.81 1.68 1.62 1.61 1.53 1.37 1.38 1.43 1.33 1.24 1.28
0.36 0.45 0.43 0.44 0.44 0.35 0.53 0.34 0.51 0.61 0.67 0.74 0.79 0.83 0.85 0.86 0.88 0.88 0.93 0.96 0.99 1.03 1.14 1.34 1.41 1.44 1.46 1.50 1.49 1.49 1.46 1.47 1.53 1.63 1.66 1.69 1.79 1.77 1.72 1.68 1.65 1.62 1.58 1.53 1.51 1.53 1.45 1.40 1.22
0.44 0.53 0.46 0.44 0.40 0.41 0.44 0.39 0.44 0.55 0.53 0.65 0.75 0.81 0.83 0.85 0.86 0.87 0.90 0.90 0.91 0.93 0.95 0.97 1.05 1.30 1.42 1.49 1.52 1.51 1.51 1.46 1.40 1.47 1.43 1.48 1.53 1.61 1.62 1.66 1.65 1.62 1.62 1.58 1.53 1.46 1.35 1.35 1.28
0.58 0.50 0.47 0.44 0.41 0.30 0.42 0.38 0.38 0.43 0.51 0.63 0.76 0.79 0.81 0.85 0.84 0.85 0.85 0.87 0.86 0.88 0.88 0.89 0.94 1.01 1.22 1.30 1.36 1.35 1.36 1.41 1.46 1.46 1.42 1.44 1.54 1.53 1.53 1.51 1.58 1.61 1.58 1.57 1.52 1.45 1.36 1.33 1.29
0.52 0.42 0.29 0.26 0.27 0.28 0.45 0.36 0.40 0.48 0.53 0.64 0.72 0.76 0.75 0.78 0.79 0.80 0.79 0.82 0.83 0.83 0.84 0.86 0.88 0.90 1.02 1.14 1.21 1.26 1.26 1.31 1.33 1.34 1.33 1.34 1.40 1.42 1.44 1.57 1.56 1.55 1.57 1.53 1.47 1.42 1.37 1.30 1.17
0.44 0.40 0.27 0.21 0.24 0.30 0.45 0.32 0.40 0.54 0.59 0.64 0.73 0.77 0.77 0.75 0.78 0.77 0.79 0.80 0.82 0.82 0.83 0.82 0.84 0.87 0.92 0.95 0.98 1.04 1.10 1.13 1.17 1.24 1.27 1.29 1.32 1.35 1.43 1.47 1.52 1.55 1.48 1.47 1.43 1.35 1.28 1.14 1.06
0.42 0.34 0.42 0.35 0.39 0.32 0.33 0.38 0.46 0.51 0.53 0.59 0.62 0.65 0.66 0.68 0.69 0.71 0.75 0.77 0.79 0.80 0.82 0.83 0.83 0.86 0.88 0.89 0.91 0.91 0.94 0.96 0.98 1.02 1.06 1.13 1.25 1.30 1.37 1.43 1.45 1.40 1.36 1.34 1.31 1.21 1.07 1.03 1.01
0.43 0.43 0.33 0.36 0.25 0.24 0.31 0.31 0.33 0.43 0.46 0.51 0.53 0.56 0.60 0.63 0.64 0.66 0.69 0.72 0.75 0.77 0.79 0.81 0.82 0.82 0.85 0.89 0.92 0.93 0.94 0.96 1.00 1.03 1.03 1.06 1.13 1.21 1.24 1.29 1.31 1.31 1.24 1.22 1.14 1.00 0.98 0.94 0.95
0.38 0.34 0.34 0.34 0.33 0.26 0.24 0.26 0.42 0.44 0.48 0.49 0.51 0.54 0.55 0.56 0.56 0.58 0.59 0.61 0.62 0.64 0.64 0.66 0.67 0.67 0.68 0.72 0.76 0.79 0.83 0.87 0.88 0.89 0.94 1.00 1.05 1.10 1.15 1.18 1.17 1.13 1.08 1.05 0.96 0.95 0.94 0.90 0.92
0.43 0.35 0.32 0.24 0.22 0.27 0.26 0.28 0.43 0.44 0.47 0.48 0.49 0.52 0.54 0.55 0.54 0.53 0.53 0.54 0.53 0.53 0.55 0.56 0.56 0.56 0.57 0.59 0.60 0.59 0.60 0.62 0.64 0.68 0.74 0.83 0.92 1.03 1.08 1.09 1.03 0.98 0.93 0.93 0.96 0.92 0.89 0.85 0.84

GFSSGP_prec_pwat_078.txt.gz
Precipitable_Water
1.02 1.03 1.10 0.88 0.46 0.42 0.30 0.36 0.54 0.49 0.62 0.82 0.84 0.82 0.86 1.02 0.85 0.77 1.48 1.54 1.59 1.53 1.60 1.61 1.70 1.48 1.40 1.29 1.22 1.19 1.26 1.30 1.10 1.00 1.13 1.29 1.43 1.54 1.78 1.75 1.46 1.12 1.14 1.13 1.10 1.08 1.08 1.06 1.09
0.96 0.94 0.90 0.68 0.38 0.26 0.29 0.44 0.46 0.51 0.67 0.82 0.87 0.89 0.94 0.96 1.30 1.37 1.39 1.61 1.64 1.61 1.65 1.63 1.69 1.44 1.36 1.25 1.19 1.25 1.22 1.51 1.49 1.22 1.38 1.48 1.66 1.74 1.74 1.57 1.15 1.10 1.10 1.11 1.07 1.08 1.08 1.07 1.09
0.82 0.90 0.60 0.49 0.38 0.27 0.30 0.41 0.49 0.56 0.76 0.76 0.79 0.97 1.00 1.11 1.42 1.50 1.67 1.69 1.70 1.65 1.68 1.67 1.62 1.52 1.43 1.22 1.25 1.29 1.16 1.60 1.78 1.77 1.76 1.81 1.82 1.70 1.59 1.21 1.11 1.10 1.08 1.07 1.08 1.10 1.12 1.08 1.06
0.68 0.70 0.63 0.38 0.30 0.38 0.39 0.44 0.52 0.53 0.67 0.82 0.85 0.83 1.11 1.42 1.42 1.67 1.83 1.73 1.68 1.66 1.74 1.68 1.64 1.64 1.49 1.24 1.37 1.32 1.09 1.45 1.74 1.82 1.92 1.89 1.72 1.58 1.24 1.02 1.05 1.06 1.08 1.10 1.09 1.09 1.10 1.09 1.07
0.67 0.58 0.35 0.31 0.31 0.39 0.47 0.50 0.54 0.51 0.56 0.72 0.85 0.79 0.97 1.32 1.53 1.75 1.87 1.75 1.64 1.65 1.71 1.67 1.69 1.72 1.46 1.26 1.43 1.26 0.88 1.26 1.70 1.82 1.90 1.82 1.61 1.32 0.99 0.96 1.01 1.08 1.09 1.07 1.06 1.04 1.03 1.04 1.05
0.45 0.47 0.28 0.24 0.28 0.37 0.49 0.55 0.54 0.55 0.56 0.62 0.77 0.80 0.91 1.33 1.41 1.57 1.83 1.81 1.77 1.67 1.71 1.71 1.74 1.71 1.39 1.26 1.41 1.24 0.87 1.01 1.59 1.79 1.89 1.77 1.31 1.10 0.97 0.99 1.02 1.09 1.09 1.03 1.01 0.98 0.94 0.91 0.90
0.40 0.34 0.25 0.26 0.28 0.32 0.44 0.57 0.52 0.53 0.53 0.57 0.77 0.73 0.86 1.13 1.30 1.60 1.69 1.87 1.81 1.74 1.74 1.74 1.76 1.72 1.45 1.29 1.38 1.11 0.87 0.91 1.33 1.57 1.61 1.37 1.19 1.09 0.98 1.02 1.01 1.04 1.04 1.00 0.97 0.96 0.93 0.90 0.86
0.50 0.40 0.29 0.29 0.26 0.27 0.43 0.51 0.58 0.59 0.57 0.67 0.76 0.72 0.75 0.99 1.29 1.50 1.60 1.77 1.90 1.78 1.82 1.75 1.80 1.71 1.48 1.49 1.37 1.12 0.89 0.91 1.03 1.32 1.33 1.24 1.10 1.04 1.04 1.04 1.03 1.01 1.01 1.00 0.98 0.95 0.92 0.88 0.83
0.54 0.34 0.26 0.26 0.26 0.27 0.40 0.44 0.56 0.64 0.64 0.70 0.75 0.80 0.91 1.11 1.19 1.22 1.51 1.54 1.62 1.70 1.84 1.80 1.81 1.75 1.40 1.55 1.39 1.17 0.99 0.90 1.01 1.09 1.17 1.10 1.08 1.04 1.02 1.07 1.05 1.04 1.02 1.00 0.97 0.93 0.88 0.83 0.81
0.34 0.27 0.28 0.32 0.31 0.32 0.38 0.46 0.50 0.60 0.62 0.66 0.75 0.86 0.99 1.04 1.06 1.03 1.20 1.35 1.44 1.54 1.81 1.83 1.81 1.70 1.34 1.47 1.41 1.31 1.15 1.03 0.97 1.02 1.10 1.09 1.09 1.08 1.08 1.08 1.08 1.08 1.05 1.02 0.99 0.94 0.87 0.81 0.80
0.33 0.24 0.32 0.34 0.39 0.42 0.41 0.43 0.51 0.58 0.58 0.67 0.68 0.79 1.00 1.02 1.02 1.05 1.15 1.32 1.39 1.50 1.69 1.85 1.82 1.69 1.21 1.15 1.49 1.41 1.27 1.19 1.09 1.00 0.99 1.04 1.09 1.10 1.08 1.10 1.08 1.08 1.04 1.00 0.97 0.91 0.86 0.85 0.85
0.36 0.40 0.33 0.32 0.43 0.44 0.41 0.47 0.51 0.59 0.54 0.73 0.81 0.92 1.03 1.07 1.05 1.03 1.04 1.22 1.32 1.44 1.66 1.82 1.84 1.57 1.21 1.13 1.39 1.50 1.40 1.27 1.19 1.08 1.03 1.05 1.07 1.07 1.06 1.06 1.07 1.06 1.03 0.98 0.96 0.90 0.88 0.89 0.92
0.35 0.33 0.43 0.39 0.41 0.46 0.51 0.46 0.46 0.51 0.62 0.67 0.80 0.85 0.97 1.09 1.10 1.12 1.11 1.14 1.23 1.45 1.53 1.68 1.83 1.56 1.30 1.11 1.17 1.42 1.46 1.40 1.33 1.23 1.18 1.16 1.08 1.04 1.06 1.06 1.06 1.05 1.04 0.99 0.95 0.94 0.94 0.98 1.06
0.34 0.38 0.39 0.45 0.42 0.43 0.41 0.43 0.53 0.48 0.65 0.69 0.79 0.81 1.00 1.07 1.10 1.11 1.13 1.14 1.16 1.30 1.45 1.63 1.85 1.60 1.38 1.15 1.07 1.16 1.36 1.53 1.48 1.43 1.31 1.28 1.22 1.15 1.10 1.12 1.11 1.11 1.05 1.02 1.03 1.08 1.09 1.09 1.12
0.37 0.33 0.41 0.40 0.41 0.40 0.43 0.39 0.44 0.59 0.67 0.70 0.76 0.80 0.95 1.07 1.11 1.06 1.18 1.17 1.19 1.26 1.43 1.47 1.64 1.62 1.50 1.34 1.24 1.19 1.25 1.33 1.49 1.54 1.56 1.45 1.38 1.25 1.25 1.26 1.22 1.19 1.16 1.03 1.06 1.10 1.17 1.16 1.21
0.35 0.38 0.30 0.37 0.40 0.39 0.44 0.24 0.43 0.64 0.65 0.63 0.69 0.78 0.88 1.11 1.14 1.15 1.19 1.17 1.24 1.27 1.35 1.46 1.57 1.53 1.57 1.53 1.50 1.37 1.34 1.36 1.39 1.44 1.54 1.53 1.55 1.48 1.27 1.22 1.22 1.27 1.21 1.14 1.11 1.14 1.12 1.12 1.17
0.36 0.30 0.31 0.34 0.38 0.38 0.39 0.32 0.50 0.60 0.60 0.60 0.66 0.75 0.85 1.16 1.20 1.19 1.20 1.23 1.26 1.32 1.41 1.42 1.49 1.47 1.50 1.51 1.51 1.55 1.52 1.50 1.44 1.45 1.43 1.42 1.42 1.41 1.34 1.37 1.38 1.39 1.31 1.25 1.17 1.14 1.14 1.12 1.16
0.32 0.32 0.32 0.29 0.35 0.35 0.37 0.38 0.58 0.64 0.61 0.64 0.72 0.78 0.83 1.04 1.16 1.22 1.23 1.31 1.32 1.33 1.43 1.44 1.47 1.53 1.48 1.50 1.51 1.53 1.56 1.54 1.56 1.53 1.53 1.51 1.50 1.51 1.50 1.50 1.49 1.46 1.35 1.27 1.22 1.14 1.17 1.22 1.23
0.41 0.38 0.34 0.35 0.43 0.36 0.39 0.43 0.55 0.63 0.63 0.65 0.70 0.78 0.90 1.05 1.24 1.34 1.30 1.33 1.36 1.34 1.35 1.38 1.40 1.43 1.43 1.41 1.39 1.42 1.36 1.49 1.51 1.53 1.58 1.57 1.59 1.60 1.58 1.57 1.59 1.55 1.44 1.33 1.22 1.22 1.20 1.23 1.27
0.42 0.37 0.39 0.47 0.51 0.43 0.45 0.46 0.53 0.64 0.67 0.69 0.72 0.79 0.89 1.00 1.09 1.20 1.34 1.35 1.32 1.38 1.40 1.41 1.45 1.48 1.48 1.48 1.43 1.44 1.45 1.52 1.48 1.54 1.56 1.59 1.58 1.61 1.59 1.61 1.69 1.61 1.53 1.43 1.31 1.29 1.29 1.26 1.30
0.40 0.38 0.40 0.41 0.48 0.50 0.47 0.44 0.52 0.60 0.73 0.78 0.80 0.88 0.96 1.00 1.02 1.09 1.19 1.23 1.35 1.41 1.43 1.43 1.52 1.41 1.41 1.39 1.45 1.48 1.55 1.49 1.38 1.47 1.52 1.58 1.59 1.59 1.62 1.59 1.65 1.71 1.66 1.58 1.53 1.44 1.35 1.26 1.34
0.34 0.48 0.46 0.44 0.42 0.32 0.44 0.29 0.46 0.57 0.63 0.74 0.82 0.85 0.90 0.97 1.01 1.08 1.12 1.17 1.20 1.27 1.33 1.41 1.42 1.41 1.45 1.50 1.46 1.40 1.34 1.34 1.45 1.49 1.50 1.58 1.63 1.63 1.62 1.61 1.66 1.71 1.70 1.66 1.66 1.65 1.49 1.42 1.31
0.42 0.54 0.49 0.47 0.42 0.41 0.39 0.36 0.43 0.59 0.57 0.68 0.76 0.83 0.88 0.90 0.96 0.95 0.98 1.00 1.06 1.09 1.09 1.22 1.36 1.39 1.41 1.42 1.48 1.41 1.41 1.42 1.50 1.43 1.40 1.54 1.63 1.56 1.55 1.54 1.61 1.66 1.70 1.69 1.64 1.60 1.52 1.50 1.41
0.56 0.48 0.48 0.47 0.42 0.32 0.41 0.40 0.39 0.46 0.52 0.67 0.75 0.80 0.84 0.87 0.90 0.93 0.95 0.97 0.97 0.99 1.00 1.03 1.06 1.17 1.32 1.39 1.41 1.40 1.39 1.43 1.35 1.42 1.39 1.43 1.48 1.50 1.53 1.55 1.58 1.56 1.58 1.57 1.56 1.57 1.54 1.45 1.39
0.51 0.42 0.30 0.28 0.29 0.28 0.44 0.38 0.41 0.51 0.56 0.60 0.69 0.75 0.84 0.88 0.87 0.88 0.90 0.91 0.92 0.92 0.93 0.99 0.99 0.98 1.09 1.20 1.26 1.31 1.32 1.33 1.31 1.30 1.27 1.32 1.34 1.37 1.42 1.48 1.54 1.54 1.49 1.51 1.53 1.51 1.48 1.45 1.37
0.46 0.40 0.29 0.21 0.26 0.30 0.41 0.33 0.42 0.55 0.62 0.70 0.75 0.77 0.79 0.83 0.86 0.90 0.88 0.90 0.91 0.92 0.91 0.90 0.89 0.91 0.94 0.98 1.04 1.16 1.26 1.26 1.28 1.28 1.28 1.28 1.31 1.34 1.41 1.43 1.45 1.47 1.49 1.49 1.51 1.48 1.41 1.41 1.35
0.42 0.36 0.42 0.35 0.37 0.30 0.35 0.40 0.48 0.55 0.60 0.67 0.71 0.75 0.76 0.78 0.78 0.81 0.82 0.84 0.85 0.86 0.86 0.86 0.86 0.87 0.89 0.91 0.93 0.95 0.99 1.03 1.06 1.10 1.15 1.18 1.21 1.23 1.31 1.38 1.38 1.38 1.41 1.46 1.42 1.34 1.29 1.29 1.25
0.45 0.47 0.34 0.35 0.24 0.22 0.29 0.31 0.34 0.43 0.49 0.58 0.64 0.68 0.74 0.77 0.75 0.73 0.75 0.78 0.79 0.81 0.82 0.82 0.83 0.82 0.83 0.87 0.91 0.93 0.94 0.96 1.01 1.04 1.04 1.09 1.13 1.17 1.20 1.22 1.27 1.23 1.26 1.33 1.30 1.27 1.23 1.12 1.05
0.38 0.36 0.36 0.36 0.34 0.25 0.23 0.29 0.43 0.45 0.49 0.51 0.56 0.60 0.63 0.65 0.66 0.68 0.68 0.68 0.69 0.72 0.72 0.71 0.70 0.69 0.70 0.73 0.76 0.77 0.79 0.83 0.88 0.92 0.96 1.01 1.05 1.08 1.09 1.14 1.18 1.16 1.13 1.12 1.09 1.06 1.02 0.92 0.93
0.44 0.35 0.33 0.28 0.26 0.30 0.27 0.29 0.47 0.48 0.51 0.52 0.52 0.54 0.56 0.57 0.57 0.58 0.58 0.59 0.59 0.59 0.59 0.60 0.62 0.61 0.62 0.62 0.61 0.61 0.64 0.64 0.63 0.63 0.67 0.74 0.80 0.90 0.98 1.06 1.12 1.10 1.09 1.07 1.02 0.95 0.89 0.89 0.88

GFSSGP_prec_pwat_081.txt.gz
Precipitable_Water
0.95 1.01 0.98 0.82 0.44 0.39 0.29 0.34 0.42 0.42 0.44 0.62 0.77 0.77 0.77 0.77 0.84 0.81 1.58 1.60 1.60 1.59 1.68 1.65 1.67 1.57 1.47 1.36 1.29 1.15 1.21 1.22 1.11 1.21 1.16 1.26 1.39 1.65 1.57 1.65 1.46 1.18 1.28 1.26 1.06 1.07 1.11 1.12 1.08
0.90 0.90 0.86 0.66 0.39 0.27 0.28 0.36 0.39 0.43 0.56 0.66 0.80 0.84 0.90 0.82 1.23 1.35 1.46 1.61 1.68 1.65 1.72 1.67 1.69 1.61 1.43 1.36 1.22 1.18 1.26 1.29 0.94 1.13 1.17 1.33 1.45 1.61 1.69 1.66 1.23 1.21 1.25 1.17 1.07 1.12 1.11 1.15 1.09
0.81 0.86 0.61 0.45 0.42 0.28 0.26 0.39 0.41 0.49 0.61 0.65 0.78 0.88 1.07 0.98 1.29 1.37 1.62 1.66 1.67 1.78 1.72 1.73 1.74 1.62 1.40 1.35 1.19 1.27 1.29 1.39 1.01 1.24 1.31 1.40 1.58 1.66 1.71 1.40 1.16 1.22 1.19 1.10 1.12 1.10 1.09 1.10 1.08
0.67 0.68 0.63 0.39 0.29 0.38 0.36 0.37 0.44 0.49 0.59 0.65 0.78 0.79 1.05 1.26 1.24 1.46 1.67 1.74 1.71 1.81 1.78 1.80 1.74 1.56 1.41 1.34 1.19 1.25 1.40 1.65 1.52 1.56 1.58 1.72 1.87 1.75 1.58 1.20 1.17 1.17 1.10 1.12 1.15 1.18 1.09 1.08 1.06
0.71 0.57 0.35 0.32 0.31 0.40 0.43 0.46 0.44 0.47 0.52 0.59 0.68 0.79 0.90 1.17 1.34 1.49 1.67 1.76 1.74 1.82 1.85 1.86 1.74 1.66 1.55 1.37 1.26 1.25 1.33 1.69 1.78 1.74 1.83 2.01 1.89 1.65 1.30 1.14 1.14 1.09 1.12 1.12 1.12 1.13 1.12 1.09 1.07
0.53 0.49 0.31 0.25 0.29 0.37 0.39 0.46 0.47 0.45 0.55 0.52 0.67 0.69 0.84 1.19 1.18 1.34 1.62 1.76 1.82 1.85 1.86 1.91 1.73 1.75 1.68 1.44 1.32 1.28 1.11 1.61 1.77 1.87 1.97 1.99 1.83 1.48 1.07 1.09 1.08 1.09 1.10 1.09 1.06 1.03 1.02 1.02 1.01
0.43 0.39 0.27 0.28 0.28 0.31 0.38 0.43 0.43 0.46 0.48 0.52 0.61 0.59 0.74 1.15 1.14 1.29 1.46 1.84 1.92 1.89 1.88 1.84 1.77 1.81 1.74 1.52 1.36 1.33 0.91 1.40 1.77 1.87 1.95 1.91 1.73 1.19 1.00 1.01 1.09 1.12 1.07 1.04 1.02 0.96 0.92 0.91 0.89
0.50 0.41 0.32 0.30 0.26 0.28 0.37 0.42 0.46 0.46 0.46 0.62 0.62 0.52 0.61 0.99 1.16 1.18 1.36 1.55 1.78 1.80 1.84 1.87 1.83 1.81 1.74 1.64 1.42 1.34 0.92 1.07 1.69 1.83 1.89 1.81 1.42 1.05 0.99 0.99 1.10 1.11 1.06 1.01 0.98 0.96 0.94 0.89 0.85
0.54 0.38 0.29 0.29 0.29 0.31 0.37 0.37 0.46 0.52 0.53 0.59 0.62 0.65 0.77 0.98 1.22 1.14 1.15 1.31 1.58 1.67 1.73 1.90 1.86 1.81 1.76 1.65 1.46 1.30 0.95 0.93 1.41 1.68 1.70 1.49 1.20 1.04 1.03 1.03 1.04 1.06 1.04 1.02 1.00 0.96 0.92 0.87 0.84
0.38 0.30 0.29 0.35 0.36 0.34 0.37 0.36 0.39 0.48 0.49 0.56 0.61 0.72 0.80 1.04 1.16 1.05 1.11 1.20 1.28 1.40 1.51 1.75 1.82 1.84 1.81 1.63 1.64 1.26 0.99 0.95 1.02 1.40 1.46 1.24 1.08 1.06 1.06 1.10 1.03 1.04 1.02 1.00 0.99 0.95 0.88 0.81 0.82
0.40 0.28 0.32 0.36 0.38 0.39 0.40 0.39 0.43 0.45 0.43 0.54 0.57 0.66 0.83 0.91 0.98 1.05 1.04 1.17 1.25 1.32 1.42 1.63 1.67 1.75 1.82 1.63 1.67 1.35 1.03 0.94 1.07 1.17 1.17 1.13 1.07 1.09 1.13 1.08 1.04 1.04 1.02 0.99 0.98 0.94 0.87 0.82 0.84
0.37 0.42 0.42 0.36 0.37 0.42 0.40 0.44 0.40 0.45 0.47 0.53 0.63 0.71 0.89 0.96 0.97 1.07 1.02 1.06 1.13 1.25 1.31 1.44 1.60 1.69 1.87 1.69 1.62 1.52 1.12 1.04 0.99 1.05 1.09 1.07 1.08 1.07 1.06 1.05 1.03 1.05 1.00 1.01 0.98 0.96 0.90 0.89 0.87
0.35 0.39 0.40 0.43 0.47 0.38 0.41 0.41 0.42 0.45 0.50 0.55 0.66 0.78 0.85 0.85 1.06 1.09 1.14 1.13 1.15 1.17 1.30 1.43 1.46 1.67 1.85 1.56 1.56 1.54 1.41 1.21 1.11 1.03 1.03 1.06 1.05 1.02 1.05 1.06 1.07 1.07 1.04 1.02 0.99 0.97 0.92 0.89 0.93
0.34 0.35 0.37 0.41 0.40 0.46 0.37 0.37 0.43 0.44 0.50 0.56 0.64 0.67 0.84 0.81 1.05 1.14 1.11 1.10 1.14 1.19 1.25 1.43 1.51 1.76 1.86 1.50 1.43 1.57 1.55 1.44 1.28 1.12 1.05 1.05 1.05 1.05 1.05 1.05 1.05 1.04 1.05 1.04 1.03 1.02 1.00 0.99 1.07
0.37 0.29 0.30 0.30 0.40 0.39 0.47 0.35 0.34 0.39 0.56 0.54 0.52 0.68 0.69 0.79 1.02 1.14 1.12 1.13 1.23 1.24 1.30 1.42 1.51 1.71 1.78 1.40 1.27 1.54 1.63 1.57 1.42 1.31 1.19 1.21 1.21 1.14 1.09 1.09 1.08 1.12 1.14 1.08 1.08 1.06 1.14 1.14 1.14
0.33 0.33 0.24 0.27 0.34 0.38 0.43 0.26 0.27 0.41 0.49 0.51 0.59 0.64 0.61 0.70 0.96 1.17 1.18 1.20 1.24 1.25 1.22 1.42 1.45 1.54 1.70 1.38 1.24 1.26 1.50 1.58 1.54 1.44 1.42 1.32 1.30 1.26 1.21 1.21 1.23 1.28 1.24 1.21 1.05 1.05 1.08 1.13 1.16
0.33 0.23 0.28 0.28 0.38 0.39 0.39 0.25 0.35 0.44 0.43 0.52 0.60 0.64 0.67 0.80 0.94 1.13 1.23 1.21 1.24 1.24 1.29 1.32 1.44 1.44 1.55 1.52 1.38 1.26 1.23 1.32 1.41 1.52 1.50 1.53 1.49 1.46 1.37 1.23 1.27 1.30 1.31 1.25 1.15 1.14 1.14 1.10 1.11
0.27 0.32 0.34 0.32 0.38 0.39 0.34 0.31 0.43 0.51 0.55 0.50 0.61 0.67 0.75 0.86 0.88 1.09 1.29 1.26 1.27 1.27 1.32 1.35 1.43 1.49 1.52 1.53 1.44 1.48 1.38 1.34 1.38 1.41 1.44 1.48 1.50 1.50 1.39 1.33 1.37 1.41 1.38 1.29 1.28 1.20 1.19 1.14 1.16
0.38 0.35 0.34 0.40 0.44 0.38 0.32 0.34 0.38 0.53 0.55 0.61 0.58 0.67 0.78 0.83 0.93 1.06 1.32 1.28 1.24 1.31 1.37 1.45 1.46 1.48 1.44 1.44 1.44 1.39 1.36 1.43 1.46 1.53 1.56 1.55 1.55 1.54 1.52 1.54 1.52 1.53 1.50 1.41 1.39 1.32 1.21 1.15 1.25
0.38 0.35 0.34 0.41 0.42 0.40 0.32 0.35 0.39 0.48 0.58 0.65 0.66 0.68 0.76 0.84 0.95 1.13 1.29 1.34 1.31 1.35 1.37 1.45 1.46 1.47 1.47 1.48 1.45 1.43 1.48 1.51 1.54 1.61 1.59 1.60 1.58 1.55 1.56 1.60 1.57 1.58 1.54 1.51 1.51 1.38 1.26 1.23 1.31
0.39 0.35 0.38 0.40 0.37 0.43 0.37 0.35 0.40 0.49 0.60 0.68 0.71 0.76 0.84 0.87 0.93 1.07 1.17 1.28 1.34 1.32 1.33 1.41 1.44 1.47 1.45 1.51 1.49 1.44 1.48 1.49 1.47 1.50 1.51 1.53 1.55 1.55 1.56 1.58 1.58 1.55 1.57 1.53 1.58 1.60 1.44 1.25 1.34
0.33 0.45 0.46 0.43 0.37 0.29 0.40 0.24 0.38 0.46 0.50 0.58 0.69 0.74 0.80 0.91 1.01 1.05 1.09 1.21 1.22 1.23 1.33 1.40 1.46 1.46 1.34 1.43 1.42 1.41 1.38 1.33 1.43 1.47 1.50 1.51 1.54 1.57 1.57 1.59 1.61 1.55 1.55 1.51 1.53 1.56 1.69 1.54 1.38
0.43 0.50 0.46 0.47 0.39 0.36 0.34 0.32 0.40 0.52 0.48 0.61 0.73 0.78 0.90 0.97 1.01 0.99 1.08 1.13 1.20 1.29 1.32 1.36 1.32 1.35 1.40 1.42 1.34 1.33 1.32 1.34 1.41 1.41 1.44 1.43 1.44 1.51 1.48 1.48 1.55 1.57 1.55 1.51 1.54 1.52 1.55 1.64 1.50
0.55 0.49 0.48 0.48 0.44 0.30 0.34 0.34 0.34 0.44 0.52 0.59 0.71 0.76 0.86 0.89 0.94 1.00 1.07 1.09 1.11 1.18 1.16 1.18 1.22 1.35 1.41 1.42 1.46 1.41 1.38 1.40 1.37 1.33 1.31 1.31 1.35 1.36 1.41 1.41 1.37 1.58 1.50 1.45 1.44 1.47 1.56 1.51 1.53
0.52 0.42 0.30 0.30 0.31 0.27 0.42 0.34 0.39 0.53 0.59 0.63 0.67 0.78 0.85 0.87 0.90 0.95 0.98 0.97 1.00 1.03 1.06 1.09 1.12 1.13 1.20 1.27 1.31 1.36 1.34 1.38 1.33 1.34 1.32 1.30 1.30 1.30 1.31 1.36 1.42 1.46 1.48 1.44 1.39 1.47 1.48 1.49 1.43
0.48 0.42 0.33 0.24 0.26 0.30 0.42 0.32 0.41 0.60 0.68 0.73 0.74 0.82 0.83 0.84 0.88 0.90 0.94 0.98 0.95 0.96 0.97 0.98 0.97 0.97 0.99 1.03 1.10 1.18 1.25 1.30 1.34 1.36 1.35 1.31 1.31 1.35 1.38 1.38 1.41 1.42 1.43 1.39 1.44 1.44 1.46 1.46 1.40
0.44 0.38 0.46 0.36 0.36 0.30 0.36 0.44 0.54 0.62 0.64 0.69 0.71 0.76 0.78 0.83 0.86 0.88 0.91 0.89 0.91 0.91 0.91 0.92 0.92 0.92 0.94 0.95 0.96 0.98 1.03 1.11 1.16 1.22 1.30 1.33 1.33 1.34 1.36 1.38 1.36 1.40 1.40 1.39 1.36 1.37 1.38 1.40 1.36
0.47 0.48 0.37 0.38 0.27 0.24 0.31 0.34 0.36 0.49 0.56 0.63 0.66 0.69 0.73 0.79 0.81 0.83 0.81 0.83 0.85 0.87 0.88 0.87 0.85 0.85 0.87 0.89 0.90 0.93 0.93 0.95 0.97 1.01 1.04 1.08 1.14 1.19 1.20 1.22 1.26 1.30 1.32 1.34 1.30 1.29 1.35 1.25 1.26
0.44 0.37 0.37 0.36 0.34 0.25 0.24 0.31 0.47 0.48 0.53 0.58 0.64 0.70 0.74 0.75 0.73 0.71 0.72 0.73 0.74 0.76 0.77 0.77 0.76 0.75 0.74 0.75 0.75 0.78 0.79 0.83 0.87 0.90 0.94 0.99 1.04 1.07 1.10 1.11 1.12 1.16 1.20 1.25 1.23 1.24 1.18 1.13 1.11
0.47 0.38 0.38 0.31 0.27 0.30 0.29 0.30 0.48 0.50 0.52 0.54 0.56 0.59 0.62 0.65 0.67 0.67 0.67 0.68 0.67 0.66 0.63 0.62 0.63 0.62 0.62 0.63 0.64 0.63 0.64 0.66 0.67 0.67 0.68 0.70 0.71 0.78 0.86 0.93 0.98 1.04 1.12 1.14 1.16 1.08 1.04 1.01 0.95

GFSSGP_prec_pwat_084.txt.gz
Precipitable_Water
0.86 0.96 0.95 0.77 0.47 0.41 0.30 0.33 0.45 0.44 0.45 0.48 0.60 0.61 0.66 0.76 0.77 0.67 1.49 1.59 1.76 1.72 1.78 1.72 1.65 1.59 1.59 1.47 1.33 1.21 1.05 0.97 1.13 1.25 1.20 1.27 1.36 1.51 1.48 1.48 1.36 1.20 1.22 1.22 1.18 1.13 1.16 1.07 0.98
0.84 0.85 0.82 0.68 0.36 0.29 0.26 0.32 0.33 0.38 0.47 0.54 0.59 0.71 0.71 0.80 1.16 1.27 1.35 1.54 1.73 1.75 1.83 1.72 1.74 1.61 1.57 1.49 1.34 1.18 1.14 1.13 1.14 1.26 1.29 1.21 1.37 1.53 1.52 1.54 1.25 1.37 1.27 1.14 1.11 1.13 1.17 1.06 1.00
0.73 0.80 0.60 0.47 0.39 0.28 0.29 0.37 0.40 0.46 0.52 0.54 0.68 0.82 0.81 0.90 1.18 1.32 1.62 1.62 1.66 1.78 1.79 1.74 1.81 1.74 1.55 1.51 1.33 1.19 1.27 1.24 1.09 1.29 1.28 1.30 1.48 1.56 1.66 1.53 1.27 1.33 1.23 1.12 1.09 1.10 1.17 1.09 0.98
0.59 0.60 0.59 0.43 0.30 0.36 0.36 0.42 0.48 0.49 0.51 0.58 0.66 0.65 0.94 1.15 1.18 1.33 1.72 1.68 1.68 1.81 1.84 1.80 1.80 1.82 1.55 1.47 1.32 1.25 1.29 1.30 0.98 1.28 1.31 1.41 1.56 1.58 1.65 1.34 1.24 1.27 1.17 1.10 1.09 1.09 1.11 1.07 1.00
0.69 0.56 0.33 0.30 0.32 0.42 0.48 0.51 0.47 0.45 0.46 0.54 0.59 0.60 0.75 1.06 1.21 1.40 1.67 1.64 1.63 1.72 1.78 1.85 1.85 1.84 1.57 1.48 1.30 1.27 1.38 1.47 1.15 1.39 1.48 1.52 1.68 1.75 1.62 1.20 1.23 1.19 1.17 1.14 1.20 1.08 1.07 1.07 1.01
0.53 0.50 0.32 0.27 0.30 0.37 0.44 0.51 0.48 0.45 0.45 0.49 0.59 0.62 0.71 1.05 1.12 1.30 1.54 1.53 1.59 1.61 1.71 1.86 1.92 1.87 1.62 1.61 1.32 1.28 1.38 1.66 1.46 1.63 1.65 1.83 1.89 1.87 1.46 1.18 1.18 1.17 1.13 1.15 1.15 1.14 1.10 1.08 1.03
0.49 0.43 0.30 0.31 0.33 0.37 0.39 0.48 0.44 0.44 0.43 0.45 0.58 0.54 0.67 0.93 1.09 1.14 1.41 1.50 1.53 1.71 1.68 1.93 1.96 1.86 1.75 1.69 1.45 1.41 1.28 1.61 1.76 1.69 1.83 2.00 1.93 1.81 1.37 1.17 1.12 1.13 1.12 1.11 1.07 1.06 1.02 0.97 0.96
0.48 0.46 0.36 0.37 0.32 0.29 0.38 0.43 0.46 0.46 0.43 0.53 0.57 0.53 0.57 0.78 1.06 1.21 1.22 1.29 1.41 1.60 1.62 1.70 2.03 1.88 1.84 1.78 1.56 1.50 1.08 1.47 1.77 1.86 1.95 1.95 1.83 1.61 1.29 1.14 1.11 1.08 1.10 1.06 1.01 0.96 0.93 0.90 0.86
0.55 0.38 0.32 0.33 0.32 0.34 0.40 0.38 0.43 0.47 0.45 0.49 0.52 0.58 0.65 0.91 1.11 1.09 1.15 1.11 1.16 1.36 1.69 1.77 1.75 1.80 1.84 1.83 1.66 1.56 1.29 1.24 1.74 1.88 1.90 1.86 1.77 1.44 1.17 1.08 1.11 1.09 1.07 1.01 0.98 0.95 0.92 0.88 0.83
0.39 0.31 0.31 0.36 0.39 0.37 0.38 0.38 0.39 0.40 0.42 0.45 0.53 0.60 0.72 0.93 0.97 0.98 0.99 0.98 1.07 1.14 1.33 1.69 1.69 1.64 1.74 1.75 1.77 1.55 1.42 1.07 1.48 1.79 1.83 1.78 1.64 1.29 1.07 1.06 1.07 1.09 1.04 0.99 0.98 0.94 0.90 0.85 0.81
0.44 0.31 0.35 0.36 0.40 0.42 0.40 0.39 0.43 0.42 0.38 0.44 0.53 0.56 0.57 0.73 0.82 0.92 0.95 0.96 0.98 1.15 1.30 1.45 1.54 1.60 1.66 1.72 1.84 1.61 1.39 1.04 1.12 1.62 1.74 1.71 1.44 1.22 1.15 1.05 1.00 0.99 0.97 0.96 0.95 0.92 0.87 0.81 0.85
0.35 0.41 0.42 0.42 0.45 0.42 0.38 0.41 0.42 0.45 0.44 0.49 0.55 0.58 0.66 0.69 0.83 1.14 1.07 0.94 0.96 1.01 1.20 1.28 1.39 1.46 1.55 1.71 1.70 1.76 1.40 1.01 0.92 1.19 1.60 1.61 1.31 1.11 1.07 1.04 0.96 0.92 0.93 0.93 0.93 0.91 0.86 0.87 0.87
0.31 0.34 0.37 0.41 0.43 0.42 0.45 0.41 0.40 0.41 0.50 0.55 0.59 0.55 0.64 0.74 0.77 0.91 1.21 1.06 1.03 1.03 1.08 1.29 1.41 1.38 1.52 1.67 1.75 1.86 1.50 1.05 1.00 1.09 1.23 1.36 1.18 1.01 1.05 1.00 0.93 0.97 0.97 1.01 1.00 0.98 0.94 0.91 0.89
0.32 0.33 0.34 0.36 0.37 0.40 0.39 0.41 0.44 0.38 0.48 0.52 0.54 0.55 0.56 0.67 0.70 0.86 1.14 1.06 1.02 1.07 1.13 1.32 1.41 1.45 1.51 1.58 1.81 1.80 1.64 1.25 1.07 1.11 1.20 1.24 1.10 1.04 0.99 0.98 0.96 1.00 1.02 1.00 1.00 0.96 0.94 0.92 0.96
0.34 0.28 0.31 0.31 0.27 0.29 0.41 0.32 0.37 0.41 0.38 0.45 0.47 0.55 0.56 0.62 0.75 0.93 1.16 1.08 1.10 1.13 1.22 1.29 1.37 1.41 1.51 1.53 1.82 1.81 1.64 1.51 1.19 1.10 1.14 1.11 1.08 1.02 0.98 0.97 0.99 0.99 1.01 1.00 1.00 0.99 1.01 1.04 1.15
0.28 0.29 0.20 0.28 0.34 0.34 0.31 0.23 0.35 0.42 0.39 0.37 0.44 0.53 0.57 0.56 0.73 0.94 1.04 1.11 1.13 1.24 1.26 1.32 1.37 1.35 1.53 1.63 1.74 1.72 1.66 1.64 1.44 1.18 1.10 1.16 1.09 1.03 0.99 0.99 1.00 1.05 1.10 1.09 1.04 1.02 1.01 1.14 1.17
0.29 0.22 0.25 0.30 0.41 0.37 0.34 0.21 0.30 0.41 0.43 0.34 0.43 0.50 0.57 0.60 0.64 0.79 0.97 1.11 1.16 1.30 1.30 1.30 1.35 1.34 1.41 1.43 1.62 1.69 1.71 1.67 1.64 1.52 1.29 1.22 1.19 1.15 1.15 1.18 1.22 1.28 1.25 1.21 1.14 1.05 1.08 1.16 1.12
0.23 0.27 0.32 0.32 0.41 0.44 0.33 0.28 0.32 0.47 0.47 0.40 0.38 0.47 0.60 0.60 0.72 0.86 0.97 1.08 1.33 1.36 1.36 1.35 1.35 1.38 1.47 1.43 1.46 1.48 1.55 1.67 1.69 1.64 1.53 1.43 1.37 1.36 1.36 1.28 1.26 1.31 1.28 1.24 1.23 1.20 1.22 1.26 1.19
0.33 0.30 0.29 0.35 0.42 0.43 0.40 0.35 0.33 0.55 0.50 0.52 0.51 0.57 0.55 0.63 0.79 0.91 1.03 1.10 1.21 1.40 1.35 1.37 1.38 1.34 1.43 1.48 1.42 1.39 1.27 1.33 1.48 1.51 1.59 1.51 1.50 1.50 1.50 1.40 1.32 1.38 1.37 1.38 1.34 1.37 1.28 1.26 1.23
0.37 0.31 0.31 0.37 0.45 0.42 0.43 0.33 0.37 0.44 0.50 0.51 0.55 0.56 0.60 0.82 0.86 0.95 0.98 1.05 1.16 1.32 1.34 1.42 1.40 1.41 1.39 1.52 1.49 1.45 1.42 1.39 1.40 1.48 1.49 1.53 1.52 1.51 1.53 1.52 1.50 1.51 1.46 1.44 1.44 1.45 1.36 1.36 1.34
0.37 0.34 0.36 0.36 0.43 0.45 0.37 0.30 0.34 0.46 0.54 0.54 0.57 0.68 0.74 0.82 0.88 0.89 0.97 1.09 1.18 1.29 1.36 1.44 1.47 1.46 1.47 1.54 1.51 1.50 1.44 1.47 1.41 1.46 1.49 1.54 1.58 1.55 1.55 1.53 1.51 1.51 1.52 1.46 1.49 1.49 1.48 1.35 1.42
0.32 0.45 0.45 0.38 0.31 0.23 0.38 0.20 0.35 0.44 0.40 0.46 0.59 0.66 0.72 0.84 0.96 0.97 0.97 1.04 1.21 1.28 1.34 1.43 1.47 1.49 1.49 1.50 1.45 1.43 1.34 1.28 1.43 1.49 1.52 1.56 1.55 1.56 1.55 1.53 1.51 1.49 1.52 1.46 1.45 1.52 1.48 1.47 1.39
0.41 0.52 0.45 0.44 0.37 0.37 0.32 0.32 0.31 0.41 0.37 0.47 0.64 0.70 0.77 0.86 0.93 0.94 1.01 1.13 1.15 1.23 1.29 1.32 1.41 1.46 1.43 1.41 1.41 1.36 1.31 1.39 1.43 1.40 1.43 1.46 1.49 1.53 1.49 1.49 1.44 1.44 1.46 1.39 1.36 1.41 1.47 1.50 1.43
0.56 0.50 0.48 0.46 0.38 0.26 0.33 0.34 0.33 0.39 0.45 0.52 0.62 0.69 0.79 0.87 0.96 0.98 1.03 1.07 1.14 1.23 1.28 1.31 1.33 1.31 1.33 1.32 1.36 1.38 1.31 1.32 1.26 1.29 1.32 1.35 1.38 1.43 1.44 1.47 1.41 1.37 1.42 1.39 1.39 1.43 1.44 1.44 1.42
0.52 0.44 0.31 0.29 0.30 0.26 0.40 0.33 0.37 0.48 0.56 0.60 0.66 0.72 0.82 0.91 0.94 0.97 0.99 1.03 1.08 1.11 1.16 1.16 1.20 1.24 1.31 1.34 1.38 1.41 1.37 1.40 1.29 1.27 1.31 1.31 1.26 1.28 1.34 1.38 1.36 1.24 1.37 1.43 1.42 1.36 1.42 1.48 1.41
0.46 0.44 0.32 0.24 0.26 0.29 0.41 0.30 0.38 0.56 0.66 0.70 0.72 0.76 0.81 0.87 0.91 0.94 0.97 0.98 1.00 1.01 1.03 1.04 1.08 1.08 1.11 1.13 1.20 1.27 1.31 1.31 1.32 1.34 1.35 1.33 1.30 1.31 1.34 1.32 1.30 1.26 1.38 1.36 1.34 1.40 1.45 1.47 1.39
0.44 0.41 0.50 0.39 0.39 0.31 0.36 0.42 0.53 0.60 0.63 0.68 0.71 0.75 0.77 0.83 0.87 0.89 0.92 0.94 0.94 0.94 0.94 0.96 0.96 0.96 0.98 0.99 1.01 1.04 1.11 1.18 1.21 1.27 1.32 1.36 1.37 1.38 1.38 1.38 1.36 1.36 1.35 1.39 1.40 1.40 1.40 1.41 1.39
0.49 0.50 0.37 0.41 0.28 0.25 0.33 0.36 0.38 0.50 0.56 0.64 0.66 0.70 0.75 0.81 0.84 0.85 0.88 0.90 0.91 0.91 0.92 0.92 0.91 0.88 0.89 0.90 0.91 0.93 0.95 0.97 1.00 1.05 1.09 1.19 1.23 1.27 1.30 1.30 1.30 1.29 1.28 1.33 1.36 1.33 1.32 1.29 1.34
0.41 0.38 0.38 0.39 0.36 0.28 0.26 0.31 0.51 0.55 0.60 0.62 0.66 0.70 0.71 0.77 0.77 0.77 0.78 0.77 0.78 0.79 0.80 0.80 0.80 0.79 0.79 0.79 0.80 0.81 0.83 0.87 0.90 0.90 0.93 0.95 0.99 1.05 1.06 1.10 1.10 1.12 1.14 1.18 1.22 1.24 1.25 1.20 1.28
0.46 0.38 0.37 0.30 0.29 0.33 0.31 0.32 0.53 0.55 0.59 0.61 0.63 0.68 0.69 0.70 0.72 0.72 0.71 0.71 0.70 0.70 0.71 0.70 0.69 0.65 0.64 0.63 0.62 0.62 0.63 0.64 0.64 0.67 0.70 0.71 0.69 0.74 0.77 0.81 0.86 0.90 0.98 1.04 1.05 1.09 1.21 1.20 1.18

GFSSGP_prec_pwat_087.txt.gz
Precipitable_Water
0.78 0.87 0.92 0.77 0.41 0.38 0.31 0.34 0.42 0.38 0.41 0.49 0.53 0.55 0.61 0.77 0.64 0.55 1.39 1.55 1.65 1.69 1.74 1.65 1.59 1.51 1.51 1.50 1.42 1.28 1.28 1.35 1.27 1.36 1.22 1.32 1.43 1.48 1.56 1.48 1.27 1.14 1.21 1.26 1.35 1.19 1.04 0.93 0.84
0.77 0.83 0.77 0.60 0.30 0.26 0.28 0.33 0.33 0.35 0.49 0.54 0.54 0.61 0.72 0.74 1.06 1.14 1.28 1.60 1.69 1.72 1.78 1.71 1.66 1.60 1.57 1.57 1.49 1.31 1.18 1.18 1.23 1.28 1.29 1.25 1.41 1.50 1.52 1.46 1.20 1.18 1.25 1.25 1.19 1.07 0.98 0.95 0.82
0.71 0.84 0.53 0.39 0.34 0.24 0.25 0.35 0.32 0.40 0.46 0.51 0.52 0.72 0.82 0.90 1.16 1.23 1.48 1.58 1.62 1.67 1.75 1.80 1.76 1.70 1.64 1.59 1.50 1.34 1.18 1.08 1.19 1.23 1.34 1.27 1.41 1.47 1.43 1.46 1.29 1.23 1.24 1.22 1.13 1.12 1.02 0.96 0.85
0.61 0.63 0.53 0.35 0.26 0.32 0.29 0.34 0.41 0.47 0.49 0.53 0.58 0.57 0.88 1.17 1.16 1.32 1.51 1.62 1.66 1.68 1.76 1.81 1.78 1.77 1.70 1.65 1.51 1.33 1.32 1.30 1.23 1.31 1.39 1.30 1.46 1.50 1.53 1.52 1.34 1.25 1.19 1.13 1.08 1.15 1.05 0.96 0.88
0.69 0.57 0.31 0.30 0.29 0.35 0.40 0.44 0.44 0.48 0.53 0.50 0.54 0.60 0.70 1.04 1.25 1.32 1.39 1.52 1.61 1.70 1.83 1.83 1.79 1.84 1.83 1.71 1.50 1.34 1.36 1.46 1.05 1.33 1.40 1.31 1.52 1.63 1.60 1.47 1.24 1.23 1.19 1.15 1.10 1.10 1.05 0.98 0.89
0.48 0.49 0.30 0.25 0.28 0.30 0.32 0.42 0.44 0.47 0.52 0.51 0.51 0.59 0.72 1.03 1.06 1.23 1.37 1.38 1.59 1.64 1.85 1.94 1.83 1.81 1.87 1.73 1.56 1.35 1.38 1.58 1.09 1.40 1.37 1.45 1.57 1.67 1.63 1.34 1.25 1.21 1.24 1.21 1.10 1.06 1.05 1.01 0.93
0.46 0.40 0.29 0.30 0.32 0.33 0.33 0.37 0.40 0.44 0.47 0.49 0.55 0.49 0.78 0.93 1.02 1.12 1.24 1.36 1.56 1.63 1.84 1.90 1.84 1.80 1.84 1.77 1.69 1.42 1.33 1.60 1.34 1.45 1.54 1.61 1.71 1.72 1.70 1.29 1.23 1.27 1.24 1.19 1.14 1.10 1.09 1.03 0.97
0.49 0.47 0.36 0.35 0.31 0.31 0.40 0.43 0.43 0.42 0.40 0.53 0.57 0.48 0.56 0.90 1.10 1.11 1.15 1.21 1.36 1.58 1.72 1.83 1.78 1.67 1.65 1.75 1.82 1.62 1.40 1.53 1.79 1.59 1.69 1.74 1.84 1.83 1.72 1.32 1.26 1.22 1.18 1.11 1.06 1.04 0.99 0.93 0.90
0.46 0.31 0.30 0.33 0.31 0.33 0.39 0.39 0.45 0.48 0.42 0.45 0.53 0.54 0.67 0.90 1.06 1.01 1.01 1.10 1.20 1.34 1.45 1.64 1.76 1.79 1.64 1.68 1.69 1.67 1.63 1.34 1.71 1.82 1.74 1.84 1.89 1.87 1.63 1.40 1.32 1.19 1.11 1.04 1.00 0.95 0.90 0.86 0.82
0.31 0.26 0.27 0.37 0.38 0.36 0.39 0.37 0.40 0.43 0.42 0.42 0.45 0.57 0.78 0.86 0.94 0.93 0.92 0.91 1.03 1.12 1.28 1.41 1.56 1.73 1.76 1.66 1.69 1.63 1.72 1.53 1.50 1.93 1.88 1.89 1.87 1.78 1.54 1.37 1.31 1.15 1.08 1.01 0.95 0.92 0.89 0.86 0.81
0.34 0.23 0.29 0.32 0.37 0.42 0.40 0.38 0.41 0.38 0.38 0.46 0.46 0.53 0.71 0.78 0.83 0.86 0.85 0.85 0.97 1.10 1.17 1.25 1.32 1.41 1.44 1.71 1.67 1.62 1.63 1.71 1.43 1.72 1.89 1.90 1.84 1.73 1.39 1.30 1.24 1.13 1.07 0.96 0.93 0.91 0.87 0.82 0.80
0.27 0.34 0.36 0.36 0.39 0.39 0.39 0.42 0.37 0.39 0.39 0.47 0.52 0.56 0.62 0.76 0.83 0.86 0.87 0.89 0.94 1.04 1.10 1.19 1.22 1.16 1.37 1.59 1.56 1.55 1.56 1.64 1.53 1.42 1.89 1.83 1.76 1.61 1.24 1.14 1.15 1.10 1.02 0.91 0.89 0.85 0.82 0.81 0.85
0.26 0.29 0.33 0.37 0.36 0.36 0.39 0.37 0.39 0.37 0.46 0.47 0.51 0.55 0.60 0.66 0.72 0.82 0.93 0.94 0.95 1.02 1.11 1.11 1.12 1.13 1.28 1.37 1.53 1.52 1.59 1.62 1.61 1.29 1.52 1.83 1.75 1.51 1.20 1.09 1.07 1.02 0.92 0.88 0.87 0.86 0.82 0.83 0.85
0.30 0.29 0.29 0.32 0.29 0.29 0.29 0.28 0.34 0.39 0.42 0.45 0.45 0.52 0.58 0.62 0.70 0.75 0.78 0.82 1.00 1.06 1.12 1.15 1.09 1.17 1.22 1.43 1.47 1.55 1.57 1.75 1.57 1.36 1.21 1.59 1.74 1.53 1.19 1.11 1.02 0.90 0.88 0.93 0.95 0.93 0.93 0.90 0.89
0.32 0.25 0.27 0.23 0.25 0.25 0.28 0.22 0.24 0.32 0.39 0.38 0.42 0.47 0.54 0.58 0.66 0.65 0.74 0.82 0.96 1.10 1.22 1.16 1.10 1.28 1.23 1.38 1.49 1.53 1.68 1.76 1.53 1.30 1.11 1.22 1.54 1.54 1.19 1.04 0.91 0.92 0.97 0.96 0.98 0.96 0.95 0.93 0.94
0.25 0.26 0.17 0.22 0.29 0.33 0.34 0.17 0.23 0.28 0.32 0.32 0.35 0.43 0.51 0.57 0.64 0.65 0.70 0.80 0.96 1.12 1.20 1.21 1.22 1.27 1.25 1.39 1.45 1.47 1.82 1.70 1.55 1.38 1.22 1.19 1.30 1.40 1.09 0.97 0.97 1.00 0.99 0.97 0.95 0.94 0.93 0.97 1.02
0.26 0.16 0.18 0.23 0.36 0.39 0.38 0.27 0.33 0.29 0.27 0.32 0.34 0.32 0.47 0.53 0.57 0.65 0.71 0.81 1.02 1.07 1.21 1.24 1.27 1.27 1.31 1.46 1.48 1.48 1.73 1.70 1.64 1.44 1.30 1.24 1.33 1.30 1.06 1.00 1.01 1.01 0.98 1.00 1.00 1.00 0.99 1.01 1.07
0.18 0.21 0.24 0.26 0.33 0.36 0.36 0.34 0.38 0.37 0.42 0.38 0.40 0.36 0.42 0.47 0.59 0.77 0.81 0.88 1.03 1.09 1.21 1.30 1.34 1.34 1.37 1.42 1.46 1.41 1.59 1.73 1.76 1.57 1.32 1.20 1.18 1.08 1.04 1.05 1.07 1.14 1.15 1.14 1.14 1.06 1.06 1.05 1.10
0.30 0.28 0.25 0.28 0.36 0.38 0.37 0.36 0.34 0.36 0.43 0.44 0.40 0.44 0.43 0.49 0.67 0.80 0.85 0.91 0.99 1.12 1.18 1.24 1.32 1.38 1.41 1.38 1.37 1.42 1.43 1.62 1.69 1.66 1.49 1.28 1.25 1.19 1.17 1.20 1.22 1.25 1.21 1.19 1.19 1.19 1.14 1.14 1.23
0.35 0.32 0.30 0.35 0.40 0.42 0.41 0.36 0.38 0.41 0.51 0.52 0.52 0.52 0.51 0.59 0.71 0.78 0.84 0.87 0.94 1.07 1.20 1.27 1.31 1.38 1.43 1.40 1.38 1.40 1.46 1.53 1.68 1.68 1.68 1.63 1.45 1.40 1.38 1.31 1.27 1.31 1.27 1.28 1.32 1.32 1.28 1.29 1.34
0.35 0.33 0.34 0.33 0.38 0.43 0.39 0.34 0.32 0.41 0.52 0.56 0.60 0.64 0.61 0.66 0.65 0.80 0.89 0.90 0.95 1.02 1.15 1.23 1.33 1.44 1.46 1.52 1.51 1.49 1.45 1.49 1.48 1.51 1.54 1.64 1.61 1.52 1.48 1.47 1.42 1.40 1.43 1.37 1.41 1.42 1.38 1.28 1.38
0.33 0.47 0.43 0.35 0.31 0.22 0.36 0.17 0.27 0.35 0.42 0.54 0.57 0.61 0.62 0.72 0.84 0.91 1.02 0.97 0.98 1.07 1.20 1.27 1.42 1.49 1.47 1.49 1.48 1.47 1.40 1.30 1.39 1.46 1.53 1.55 1.60 1.58 1.58 1.56 1.52 1.50 1.48 1.42 1.42 1.46 1.42 1.40 1.29
0.41 0.52 0.46 0.41 0.34 0.33 0.29 0.29 0.28 0.38 0.37 0.44 0.51 0.61 0.68 0.77 0.82 0.91 0.98 0.99 1.03 1.08 1.17 1.28 1.36 1.42 1.48 1.46 1.49 1.43 1.37 1.45 1.44 1.46 1.49 1.50 1.54 1.55 1.55 1.53 1.54 1.49 1.50 1.46 1.44 1.41 1.35 1.33 1.25
0.55 0.49 0.48 0.45 0.39 0.26 0.28 0.31 0.29 0.32 0.35 0.40 0.51 0.63 0.73 0.79 0.85 0.93 1.04 1.06 1.07 1.15 1.17 1.27 1.28 1.32 1.41 1.43 1.38 1.38 1.37 1.38 1.36 1.37 1.35 1.36 1.42 1.45 1.43 1.45 1.46 1.49 1.49 1.45 1.43 1.44 1.42 1.39 1.35
0.52 0.42 0.30 0.27 0.26 0.26 0.38 0.33 0.35 0.46 0.52 0.52 0.58 0.66 0.73 0.81 0.90 0.95 0.96 1.02 1.05 1.09 1.15 1.21 1.24 1.23 1.29 1.30 1.34 1.36 1.35 1.33 1.29 1.25 1.29 1.27 1.28 1.26 1.33 1.38 1.40 1.44 1.47 1.45 1.46 1.44 1.41 1.41 1.35
0.47 0.44 0.32 0.23 0.24 0.28 0.39 0.30 0.37 0.53 0.60 0.64 0.71 0.75 0.80 0.83 0.90 0.92 0.95 0.99 1.01 1.01 1.04 1.07 1.10 1.11 1.17 1.18 1.23 1.29 1.33 1.36 1.35 1.34 1.31 1.28 1.27 1.30 1.34 1.33 1.35 1.36 1.36 1.39 1.38 1.43 1.41 1.38 1.42
0.47 0.40 0.51 0.38 0.38 0.31 0.34 0.42 0.51 0.57 0.58 0.63 0.68 0.71 0.75 0.81 0.86 0.89 0.94 0.97 0.97 0.95 0.96 0.97 0.98 0.98 1.00 1.02 1.05 1.09 1.17 1.23 1.25 1.29 1.34 1.38 1.42 1.40 1.41 1.41 1.39 1.42 1.41 1.40 1.39 1.38 1.32 1.36 1.38
0.50 0.51 0.36 0.40 0.27 0.24 0.32 0.36 0.37 0.48 0.54 0.62 0.65 0.69 0.74 0.80 0.84 0.87 0.87 0.91 0.92 0.91 0.92 0.91 0.91 0.90 0.92 0.93 0.94 0.94 0.97 1.02 1.10 1.16 1.18 1.22 1.27 1.30 1.32 1.36 1.40 1.41 1.40 1.40 1.39 1.33 1.33 1.36 1.36
0.42 0.39 0.41 0.40 0.36 0.28 0.26 0.32 0.54 0.54 0.59 0.61 0.65 0.70 0.74 0.77 0.79 0.81 0.81 0.81 0.81 0.81 0.80 0.80 0.79 0.78 0.79 0.81 0.82 0.83 0.84 0.88 0.90 0.92 0.96 0.97 0.98 1.00 1.05 1.07 1.09 1.11 1.15 1.18 1.19 1.21 1.25 1.27 1.27
0.45 0.38 0.39 0.31 0.29 0.32 0.31 0.32 0.58 0.61 0.62 0.64 0.63 0.66 0.69 0.74 0.73 0.70 0.71 0.71 0.70 0.70 0.71 0.71 0.71 0.70 0.69 0.68 0.66 0.64 0.64 0.65 0.65 0.66 0.68 0.71 0.72 0.75 0.76 0.81 0.83 0.88 0.93 1.01 1.04 1.06 1.11 1.14 1.16

GFSSGP_prec_pwat_090.txt.gz
Precipitable_Water
0.68 0.83 0.91 0.82 0.43 0.39 0.27 0.27 0.39 0.38 0.35 0.40 0.52 0.46 0.47 0.67 0.58 0.50 1.33 1.49 1.59 1.67 1.69 1.64 1.61 1.60 1.57 1.52 1.53 1.56 1.53 1.46 1.41 1.35 1.31 1.34 1.37 1.30 1.40 1.38 1.28 1.30 1.45 1.51 1.44 1.09 0.87 0.84 0.84
0.79 0.84 0.74 0.59 0.29 0.24 0.23 0.35 0.31 0.34 0.49 0.54 0.50 0.53 0.58 0.64 1.00 1.08 1.19 1.54 1.62 1.68 1.72 1.63 1.59 1.56 1.55 1.54 1.50 1.47 1.46 1.45 1.46 1.37 1.34 1.33 1.43 1.41 1.41 1.40 1.25 1.25 1.38 1.45 1.33 1.03 0.85 0.82 0.94
0.77 0.83 0.46 0.35 0.30 0.21 0.21 0.31 0.31 0.35 0.47 0.51 0.48 0.62 0.70 0.74 1.11 1.19 1.40 1.54 1.63 1.65 1.71 1.69 1.62 1.60 1.59 1.60 1.56 1.44 1.36 1.37 1.37 1.30 1.44 1.33 1.49 1.46 1.48 1.42 1.30 1.15 1.22 1.35 1.25 0.99 0.85 0.87 0.98
0.64 0.63 0.50 0.31 0.23 0.31 0.27 0.35 0.39 0.39 0.46 0.51 0.53 0.47 0.88 1.09 1.09 1.33 1.47 1.53 1.60 1.64 1.70 1.69 1.70 1.65 1.65 1.63 1.63 1.51 1.30 1.17 1.21 1.33 1.30 1.42 1.46 1.47 1.41 1.39 1.34 1.20 1.23 1.28 1.20 1.00 0.91 0.91 0.95
0.65 0.52 0.27 0.27 0.25 0.33 0.38 0.40 0.40 0.35 0.43 0.46 0.52 0.46 0.60 1.03 1.30 1.33 1.37 1.47 1.50 1.62 1.75 1.80 1.77 1.81 1.82 1.72 1.66 1.50 1.40 1.36 1.28 1.32 1.35 1.51 1.40 1.55 1.41 1.48 1.41 1.20 1.24 1.24 1.27 1.05 0.93 0.87 0.95
0.36 0.44 0.27 0.23 0.25 0.29 0.30 0.34 0.40 0.39 0.42 0.47 0.46 0.49 0.60 1.06 1.24 1.35 1.40 1.39 1.47 1.54 1.70 1.83 1.87 1.85 1.89 1.83 1.73 1.55 1.44 1.45 1.53 1.25 1.42 1.54 1.42 1.63 1.52 1.54 1.38 1.20 1.21 1.23 1.23 1.08 0.96 0.88 0.92
0.31 0.27 0.22 0.29 0.30 0.31 0.29 0.31 0.34 0.40 0.40 0.42 0.49 0.43 0.57 0.79 1.23 1.36 1.45 1.52 1.45 1.48 1.58 1.73 1.79 1.80 1.82 1.84 1.77 1.64 1.48 1.49 1.65 1.10 1.45 1.57 1.48 1.66 1.66 1.57 1.32 1.23 1.20 1.20 1.17 1.07 1.01 0.92 0.90
0.36 0.32 0.24 0.26 0.24 0.28 0.33 0.38 0.38 0.40 0.41 0.51 0.51 0.43 0.46 0.74 1.07 1.28 1.37 1.40 1.37 1.40 1.49 1.58 1.79 1.79 1.73 1.71 1.64 1.59 1.51 1.49 1.69 1.36 1.50 1.51 1.59 1.72 1.71 1.66 1.32 1.30 1.33 1.34 1.12 1.06 1.06 0.98 0.91
0.39 0.23 0.17 0.20 0.22 0.25 0.37 0.33 0.41 0.45 0.39 0.49 0.54 0.53 0.80 0.95 1.03 1.07 1.14 1.19 1.22 1.26 1.37 1.49 1.63 1.77 1.75 1.68 1.60 1.55 1.49 1.38 1.57 1.63 1.55 1.60 1.70 1.76 1.71 1.69 1.37 1.35 1.30 1.23 1.14 1.07 1.01 0.93 0.86
0.29 0.20 0.20 0.29 0.29 0.26 0.29 0.33 0.35 0.38 0.41 0.40 0.50 0.56 0.64 0.87 1.08 0.94 0.90 0.94 1.01 1.05 1.16 1.36 1.47 1.59 1.74 1.74 1.64 1.57 1.51 1.42 1.42 1.74 1.70 1.71 1.77 1.76 1.75 1.72 1.42 1.43 1.32 1.19 1.10 1.02 0.91 0.85 0.81
0.29 0.20 0.26 0.28 0.29 0.30 0.29 0.28 0.35 0.34 0.33 0.42 0.44 0.52 0.57 0.63 0.87 0.99 0.98 0.96 0.97 1.06 1.15 1.32 1.40 1.46 1.51 1.60 1.67 1.65 1.58 1.46 1.40 1.47 1.81 1.82 1.78 1.80 1.87 1.70 1.44 1.42 1.35 1.18 1.01 0.94 0.89 0.82 0.78
0.26 0.32 0.31 0.31 0.33 0.32 0.28 0.32 0.28 0.32 0.35 0.45 0.48 0.54 0.57 0.60 0.82 0.92 0.95 1.06 0.96 0.99 1.06 1.17 1.25 1.30 1.35 1.34 1.35 1.39 1.38 1.44 1.40 1.44 1.69 1.83 1.80 1.81 1.95 1.62 1.39 1.34 1.25 1.12 0.95 0.88 0.85 0.81 0.79
0.25 0.26 0.29 0.31 0.31 0.29 0.29 0.26 0.27 0.27 0.34 0.40 0.47 0.49 0.52 0.57 0.64 0.89 1.01 1.03 1.03 0.97 1.02 1.09 1.14 1.15 1.13 1.14 1.18 1.21 1.19 1.37 1.43 1.39 1.57 1.75 1.74 1.78 1.82 1.63 1.37 1.27 1.21 1.09 0.95 0.86 0.81 0.78 0.81
0.28 0.28 0.28 0.30 0.27 0.26 0.24 0.22 0.25 0.24 0.30 0.33 0.36 0.43 0.49 0.53 0.60 0.78 0.88 0.87 0.90 0.94 0.95 1.03 1.05 1.08 1.09 1.10 1.10 1.15 1.31 1.29 1.43 1.45 1.43 1.67 1.74 1.85 1.87 1.68 1.31 1.23 1.19 1.07 0.97 0.85 0.81 0.79 0.82
0.31 0.23 0.25 0.23 0.22 0.22 0.23 0.17 0.18 0.22 0.25 0.23 0.28 0.37 0.45 0.51 0.58 0.62 0.72 0.79 0.85 0.89 0.93 0.97 1.03 1.10 1.14 1.16 1.14 1.12 1.23 1.33 1.46 1.46 1.51 1.52 1.73 1.87 1.73 1.50 1.26 1.14 1.16 1.02 0.96 0.91 0.91 0.87 0.89
0.23 0.24 0.16 0.20 0.25 0.27 0.28 0.15 0.27 0.35 0.34 0.28 0.23 0.30 0.39 0.48 0.56 0.61 0.68 0.77 0.86 0.89 0.89 0.94 1.11 1.13 1.16 1.19 1.19 1.17 1.24 1.44 1.48 1.58 1.63 1.52 1.54 1.72 1.78 1.54 1.23 1.10 1.03 0.98 0.97 0.96 0.93 0.92 0.90
0.26 0.16 0.17 0.21 0.29 0.30 0.34 0.24 0.33 0.39 0.39 0.32 0.25 0.25 0.33 0.41 0.52 0.59 0.68 0.81 0.88 0.89 0.89 0.97 1.11 1.12 1.16 1.25 1.29 1.30 1.26 1.51 1.56 1.68 1.74 1.61 1.40 1.46 1.60 1.67 1.29 1.09 1.05 0.99 0.95 0.95 0.93 0.90 0.93
0.16 0.17 0.21 0.22 0.30 0.32 0.29 0.27 0.35 0.40 0.40 0.35 0.31 0.34 0.35 0.35 0.44 0.60 0.76 0.85 0.92 0.88 0.89 1.00 1.06 1.15 1.22 1.28 1.31 1.41 1.35 1.49 1.50 1.64 1.64 1.54 1.32 1.18 1.28 1.59 1.36 1.14 1.06 0.99 0.95 0.92 0.96 0.97 0.99
0.26 0.25 0.25 0.28 0.36 0.34 0.31 0.32 0.37 0.40 0.37 0.37 0.36 0.40 0.38 0.39 0.42 0.67 0.80 0.87 0.85 0.82 0.93 1.03 1.06 1.17 1.23 1.25 1.20 1.27 1.33 1.43 1.44 1.52 1.61 1.63 1.39 1.29 1.31 1.38 1.27 1.10 1.01 0.95 0.97 0.99 0.99 1.00 1.07
0.32 0.30 0.30 0.35 0.40 0.39 0.36 0.33 0.38 0.40 0.35 0.43 0.44 0.46 0.47 0.51 0.54 0.66 0.75 0.83 0.84 0.87 1.02 1.10 1.09 1.15 1.23 1.26 1.29 1.33 1.45 1.51 1.53 1.54 1.58 1.53 1.42 1.37 1.36 1.34 1.21 1.11 1.05 1.08 1.11 1.11 1.05 1.06 1.14
0.33 0.32 0.34 0.33 0.37 0.38 0.35 0.29 0.32 0.37 0.44 0.50 0.53 0.53 0.55 0.56 0.55 0.59 0.73 0.84 0.91 0.97 1.03 1.09 1.13 1.17 1.24 1.26 1.32 1.38 1.44 1.51 1.58 1.58 1.58 1.59 1.51 1.41 1.35 1.24 1.18 1.22 1.22 1.16 1.16 1.18 1.17 1.13 1.26
0.30 0.41 0.42 0.37 0.31 0.20 0.35 0.17 0.29 0.35 0.41 0.49 0.55 0.62 0.65 0.65 0.66 0.72 0.75 0.84 0.95 1.03 1.09 1.10 1.13 1.26 1.30 1.34 1.32 1.33 1.33 1.34 1.45 1.48 1.54 1.53 1.51 1.49 1.46 1.40 1.37 1.35 1.34 1.27 1.28 1.38 1.35 1.34 1.25
0.36 0.49 0.46 0.42 0.34 0.32 0.30 0.27 0.24 0.35 0.33 0.44 0.54 0.62 0.66 0.69 0.75 0.80 0.83 0.83 1.07 1.11 1.11 1.13 1.19 1.26 1.31 1.35 1.40 1.40 1.38 1.44 1.47 1.50 1.50 1.53 1.59 1.58 1.57 1.57 1.55 1.50 1.49 1.50 1.50 1.47 1.44 1.41 1.29
0.49 0.46 0.47 0.46 0.40 0.26 0.30 0.28 0.28 0.30 0.33 0.40 0.49 0.57 0.65 0.71 0.79 0.86 0.94 1.02 1.04 1.08 1.11 1.14 1.20 1.23 1.28 1.40 1.39 1.39 1.39 1.40 1.40 1.43 1.45 1.45 1.48 1.51 1.53 1.51 1.48 1.54 1.51 1.52 1.49 1.50 1.47 1.42 1.41
0.49 0.41 0.29 0.27 0.26 0.25 0.38 0.30 0.32 0.42 0.45 0.45 0.48 0.57 0.67 0.75 0.82 0.85 0.92 0.95 1.00 1.04 1.10 1.14 1.15 1.12 1.25 1.31 1.32 1.34 1.35 1.37 1.36 1.37 1.36 1.35 1.39 1.40 1.42 1.42 1.43 1.43 1.49 1.49 1.47 1.43 1.40 1.42 1.40
0.46 0.43 0.31 0.23 0.24 0.27 0.40 0.30 0.36 0.51 0.57 0.61 0.63 0.68 0.72 0.76 0.80 0.86 0.92 0.96 0.99 1.01 1.04 1.08 1.08 1.09 1.13 1.17 1.21 1.25 1.27 1.31 1.33 1.37 1.39 1.37 1.38 1.39 1.40 1.40 1.46 1.43 1.42 1.43 1.44 1.41 1.41 1.46 1.41
0.47 0.39 0.51 0.37 0.37 0.30 0.34 0.40 0.49 0.54 0.55 0.59 0.64 0.69 0.71 0.75 0.80 0.85 0.90 0.94 0.96 0.97 0.98 1.01 1.01 1.02 1.03 1.05 1.07 1.09 1.18 1.23 1.22 1.25 1.28 1.35 1.40 1.41 1.41 1.43 1.43 1.42 1.38 1.41 1.41 1.33 1.33 1.39 1.40
0.52 0.55 0.38 0.40 0.27 0.24 0.31 0.35 0.36 0.47 0.52 0.59 0.62 0.66 0.70 0.76 0.79 0.84 0.88 0.91 0.91 0.93 0.91 0.90 0.91 0.91 0.93 0.94 0.95 0.96 0.98 1.04 1.12 1.20 1.20 1.20 1.23 1.26 1.30 1.35 1.39 1.42 1.43 1.42 1.41 1.37 1.38 1.37 1.36
0.45 0.43 0.43 0.41 0.38 0.29 0.26 0.31 0.52 0.53 0.57 0.58 0.63 0.68 0.72 0.74 0.77 0.81 0.84 0.87 0.82 0.77 0.76 0.75 0.74 0.74 0.75 0.77 0.78 0.78 0.78 0.81 0.87 0.92 0.97 1.01 1.04 1.07 1.08 1.11 1.14 1.18 1.22 1.28 1.29 1.29 1.29 1.26 1.26
0.46 0.39 0.39 0.31 0.29 0.32 0.32 0.33 0.59 0.60 0.63 0.65 0.65 0.68 0.73 0.76 0.76 0.77 0.74 0.73 0.71 0.70 0.70 0.69 0.69 0.68 0.69 0.71 0.69 0.67 0.68 0.67 0.65 0.65 0.67 0.72 0.74 0.81 0.86 0.91 0.96 0.99 1.02 1.08 1.09 1.12 1.16 1.16 1.15

GFSSGP_prec_pwat_093.txt.gz
Precipitable_Water
0.66 0.86 0.94 0.78 0.37 0.35 0.23 0.23 0.39 0.36 0.37 0.45 0.46 0.39 0.43 0.46 0.45 0.42 1.23 1.46 1.55 1.61 1.64 1.63 1.61 1.64 1.67 1.66 1.62 1.55 1.48 1.46 1.40 1.34 1.33 1.36 1.35 1.31 1.32 1.35 1.35 1.40 1.49 1.53 1.36 1.08 0.99 0.92 0.98
0.80 0.80 0.80 0.64 0.28 0.22 0.19 0.32 0.30 0.40 0.53 0.52 0.47 0.48 0.51 0.51 0.87 0.96 1.08 1.45 1.57 1.65 1.66 1.66 1.62 1.62 1.60 1.58 1.63 1.63 1.59 1.54 1.52 1.46 1.31 1.39 1.37 1.31 1.38 1.37 1.36 1.42 1.46 1.48 1.24 1.03 0.92 0.87 0.91
0.79 0.80 0.50 0.34 0.28 0.20 0.19 0.30 0.31 0.38 0.47 0.50 0.45 0.51 0.65 0.70 1.01 1.07 1.33 1.54 1.62 1.65 1.70 1.65 1.62 1.59 1.53 1.51 1.54 1.62 1.62 1.53 1.49 1.49 1.39 1.40 1.48 1.41 1.36 1.32 1.34 1.42 1.47 1.41 1.15 0.98 0.93 0.95 1.01
0.71 0.65 0.50 0.30 0.23 0.27 0.26 0.32 0.38 0.36 0.41 0.47 0.49 0.44 0.59 0.96 1.12 1.29 1.44 1.59 1.58 1.63 1.68 1.66 1.62 1.57 1.53 1.51 1.47 1.47 1.57 1.51 1.44 1.42 1.39 1.46 1.47 1.58 1.48 1.39 1.34 1.32 1.33 1.30 1.14 0.97 0.94 0.98 1.00
0.59 0.50 0.30 0.27 0.26 0.34 0.35 0.36 0.38 0.31 0.37 0.39 0.45 0.41 0.49 0.86 1.23 1.42 1.41 1.50 1.54 1.59 1.67 1.65 1.61 1.59 1.61 1.63 1.61 1.57 1.48 1.36 1.32 1.29 1.35 1.42 1.47 1.60 1.58 1.43 1.35 1.21 1.23 1.24 1.13 0.99 0.95 0.95 0.99
0.29 0.34 0.18 0.18 0.24 0.31 0.33 0.34 0.36 0.35 0.34 0.40 0.39 0.40 0.49 0.87 0.99 1.22 1.41 1.41 1.53 1.68 1.67 1.64 1.64 1.65 1.69 1.74 1.73 1.68 1.57 1.48 1.37 1.37 1.35 1.35 1.57 1.46 1.58 1.48 1.42 1.29 1.20 1.27 1.17 1.03 0.92 0.94 0.99
0.25 0.21 0.15 0.20 0.22 0.24 0.30 0.35 0.31 0.31 0.34 0.35 0.45 0.38 0.45 0.65 0.97 1.28 1.35 1.49 1.46 1.70 1.74 1.66 1.66 1.70 1.74 1.74 1.78 1.75 1.66 1.65 1.57 1.56 1.41 1.44 1.56 1.59 1.55 1.63 1.48 1.31 1.26 1.26 1.27 1.08 0.92 0.91 0.97
0.34 0.25 0.18 0.20 0.17 0.18 0.27 0.30 0.38 0.35 0.31 0.44 0.46 0.40 0.46 0.67 0.97 1.22 1.33 1.38 1.38 1.59 1.66 1.72 1.79 1.70 1.68 1.66 1.67 1.63 1.57 1.55 1.57 1.69 1.33 1.44 1.55 1.61 1.58 1.65 1.57 1.30 1.24 1.27 1.29 1.14 0.96 0.90 0.95
0.37 0.18 0.13 0.17 0.18 0.20 0.29 0.26 0.32 0.40 0.38 0.39 0.46 0.46 0.55 0.74 0.95 1.13 1.18 1.19 1.24 1.37 1.46 1.53 1.56 1.73 1.76 1.76 1.71 1.63 1.54 1.44 1.46 1.63 1.41 1.54 1.60 1.58 1.56 1.66 1.60 1.36 1.28 1.27 1.24 1.17 1.05 0.93 0.93
0.26 0.17 0.16 0.25 0.27 0.24 0.26 0.26 0.27 0.27 0.29 0.36 0.40 0.51 0.54 0.58 0.69 0.84 1.05 1.07 1.11 1.19 1.31 1.39 1.42 1.49 1.59 1.69 1.75 1.70 1.61 1.49 1.37 1.52 1.59 1.63 1.60 1.57 1.62 1.68 1.66 1.41 1.40 1.46 1.27 1.15 1.07 0.96 0.88
0.27 0.17 0.24 0.25 0.28 0.30 0.27 0.25 0.27 0.23 0.20 0.26 0.34 0.42 0.52 0.54 0.58 0.76 0.95 1.13 1.17 1.22 1.27 1.35 1.35 1.39 1.40 1.45 1.54 1.62 1.66 1.57 1.44 1.41 1.48 1.64 1.68 1.64 1.68 1.69 1.69 1.54 1.45 1.46 1.39 1.20 1.00 0.87 0.81
0.22 0.28 0.29 0.30 0.31 0.28 0.24 0.28 0.23 0.24 0.24 0.30 0.30 0.40 0.47 0.53 0.55 0.64 0.80 1.00 1.17 1.16 1.18 1.24 1.30 1.31 1.34 1.39 1.44 1.50 1.49 1.55 1.45 1.36 1.44 1.49 1.69 1.70 1.71 1.69 1.73 1.62 1.46 1.41 1.37 1.20 0.99 0.83 0.79
0.23 0.26 0.28 0.29 0.28 0.25 0.26 0.23 0.23 0.21 0.27 0.30 0.31 0.32 0.40 0.48 0.55 0.62 0.73 1.00 1.10 1.08 1.09 1.10 1.17 1.17 1.23 1.27 1.28 1.23 1.23 1.26 1.30 1.37 1.38 1.45 1.60 1.72 1.75 1.74 1.74 1.79 1.45 1.40 1.29 1.13 1.00 0.87 0.79
0.28 0.28 0.26 0.27 0.25 0.25 0.22 0.19 0.23 0.24 0.25 0.22 0.23 0.26 0.30 0.40 0.50 0.57 0.68 0.85 1.01 1.04 1.05 1.12 1.11 1.09 1.13 1.14 1.14 1.12 1.10 1.12 1.15 1.27 1.34 1.30 1.42 1.55 1.83 1.76 1.74 1.83 1.52 1.42 1.28 1.09 0.96 0.91 0.82
0.31 0.23 0.24 0.22 0.21 0.21 0.23 0.16 0.18 0.21 0.24 0.23 0.23 0.23 0.26 0.29 0.42 0.51 0.62 0.70 0.80 0.91 1.02 1.02 1.06 1.10 1.04 0.98 1.06 1.09 1.12 1.11 1.10 1.13 1.22 1.25 1.35 1.45 1.53 1.80 1.85 1.59 1.59 1.51 1.26 1.13 1.00 0.93 0.88
0.25 0.24 0.16 0.20 0.25 0.26 0.26 0.13 0.22 0.30 0.33 0.30 0.31 0.32 0.29 0.29 0.33 0.46 0.58 0.66 0.72 0.80 0.89 1.01 1.03 1.04 1.03 1.00 1.00 1.03 1.07 1.13 1.16 1.15 1.15 1.29 1.37 1.42 1.51 1.60 1.77 1.69 1.57 1.47 1.28 1.08 0.96 0.91 0.88
0.23 0.15 0.17 0.19 0.28 0.29 0.29 0.20 0.27 0.35 0.35 0.34 0.37 0.36 0.28 0.24 0.28 0.38 0.55 0.63 0.69 0.82 0.91 0.96 0.97 0.96 0.96 0.99 1.06 1.10 1.15 1.19 1.19 1.27 1.27 1.27 1.43 1.45 1.51 1.55 1.74 1.63 1.47 1.46 1.28 1.06 0.99 0.92 0.93
0.15 0.17 0.19 0.20 0.27 0.31 0.28 0.24 0.29 0.36 0.39 0.39 0.38 0.35 0.31 0.30 0.30 0.36 0.49 0.65 0.77 0.87 0.94 0.99 0.97 0.94 0.94 1.00 1.12 1.17 1.20 1.24 1.30 1.31 1.34 1.39 1.40 1.57 1.58 1.63 1.64 1.53 1.43 1.29 1.23 1.06 1.06 1.01 0.96
0.25 0.24 0.24 0.29 0.36 0.32 0.30 0.29 0.32 0.38 0.40 0.40 0.35 0.41 0.38 0.38 0.34 0.37 0.52 0.70 0.91 0.96 0.96 0.99 0.94 0.89 0.96 1.00 1.09 1.11 1.12 1.20 1.28 1.36 1.41 1.51 1.59 1.69 1.69 1.66 1.56 1.54 1.38 1.24 1.08 1.11 1.07 1.00 0.98
0.30 0.28 0.27 0.34 0.41 0.38 0.33 0.30 0.37 0.40 0.42 0.40 0.42 0.45 0.48 0.51 0.52 0.50 0.57 0.77 0.86 0.89 0.96 0.98 0.96 0.93 1.03 1.13 1.13 1.16 1.20 1.23 1.29 1.43 1.41 1.57 1.62 1.69 1.65 1.57 1.53 1.45 1.35 1.18 1.17 1.16 1.06 0.97 1.01
0.31 0.29 0.31 0.30 0.36 0.38 0.32 0.27 0.33 0.41 0.45 0.48 0.55 0.60 0.59 0.55 0.56 0.60 0.63 0.72 0.77 0.79 0.84 0.89 0.93 0.99 1.10 1.18 1.19 1.18 1.26 1.31 1.28 1.40 1.41 1.47 1.55 1.60 1.60 1.48 1.40 1.42 1.35 1.23 1.21 1.14 1.03 0.91 1.02
0.28 0.39 0.39 0.37 0.35 0.24 0.36 0.16 0.29 0.35 0.39 0.50 0.55 0.61 0.61 0.65 0.66 0.65 0.66 0.69 0.72 0.79 0.90 0.94 1.00 1.06 1.12 1.19 1.14 1.14 1.12 1.12 1.22 1.30 1.51 1.52 1.57 1.57 1.55 1.52 1.48 1.45 1.47 1.27 1.14 1.14 1.14 1.13 1.04
0.36 0.45 0.43 0.44 0.39 0.34 0.32 0.26 0.29 0.36 0.34 0.44 0.51 0.61 0.65 0.72 0.73 0.73 0.74 0.76 0.83 0.91 0.94 1.05 1.09 1.11 1.14 1.16 1.19 1.17 1.17 1.23 1.27 1.33 1.50 1.54 1.53 1.52 1.52 1.47 1.46 1.43 1.44 1.36 1.25 1.24 1.25 1.28 1.23
0.48 0.45 0.45 0.46 0.40 0.26 0.32 0.27 0.25 0.31 0.34 0.43 0.52 0.58 0.62 0.67 0.71 0.78 0.85 0.91 0.90 0.97 1.01 1.05 1.09 1.12 1.19 1.19 1.21 1.31 1.22 1.34 1.30 1.34 1.41 1.49 1.51 1.49 1.51 1.51 1.47 1.40 1.35 1.35 1.39 1.41 1.40 1.40 1.40
0.49 0.40 0.27 0.25 0.26 0.23 0.38 0.29 0.28 0.40 0.45 0.46 0.47 0.54 0.61 0.68 0.73 0.77 0.82 0.87 0.92 0.95 0.99 1.03 1.05 1.06 1.14 1.18 1.24 1.28 1.30 1.34 1.34 1.33 1.36 1.41 1.43 1.43 1.43 1.45 1.40 1.37 1.41 1.43 1.50 1.48 1.43 1.43 1.37
0.46 0.43 0.30 0.21 0.24 0.27 0.40 0.30 0.35 0.49 0.54 0.56 0.56 0.59 0.63 0.70 0.74 0.78 0.86 0.90 0.92 0.97 1.02 1.03 1.05 1.03 1.06 1.10 1.14 1.17 1.22 1.27 1.28 1.29 1.33 1.36 1.37 1.38 1.45 1.43 1.43 1.42 1.46 1.44 1.47 1.42 1.47 1.45 1.41
0.47 0.40 0.50 0.36 0.37 0.31 0.34 0.41 0.49 0.54 0.54 0.58 0.60 0.65 0.69 0.73 0.77 0.80 0.85 0.90 0.93 0.95 0.98 1.00 1.00 1.01 1.01 1.03 1.08 1.11 1.18 1.19 1.18 1.25 1.27 1.29 1.35 1.37 1.39 1.42 1.37 1.42 1.43 1.43 1.40 1.38 1.38 1.39 1.37
0.53 0.57 0.37 0.39 0.26 0.24 0.31 0.35 0.36 0.47 0.51 0.57 0.60 0.63 0.68 0.73 0.77 0.80 0.85 0.87 0.89 0.88 0.86 0.87 0.89 0.89 0.91 0.91 0.93 0.94 0.96 0.98 1.09 1.17 1.15 1.16 1.19 1.23 1.27 1.31 1.35 1.35 1.40 1.43 1.40 1.38 1.39 1.35 1.33
0.44 0.42 0.44 0.43 0.39 0.29 0.26 0.32 0.53 0.52 0.55 0.56 0.61 0.65 0.69 0.72 0.76 0.80 0.82 0.79 0.77 0.76 0.74 0.73 0.72 0.73 0.74 0.74 0.74 0.75 0.76 0.75 0.77 0.84 0.94 1.01 1.05 1.07 1.09 1.13 1.17 1.18 1.18 1.28 1.33 1.34 1.31 1.30 1.33
0.42 0.36 0.39 0.31 0.29 0.35 0.34 0.34 0.59 0.60 0.60 0.63 0.64 0.68 0.72 0.74 0.77 0.77 0.76 0.75 0.70 0.69 0.68 0.67 0.68 0.68 0.69 0.70 0.69 0.66 0.66 0.68 0.69 0.69 0.69 0.69 0.69 0.75 0.81 0.88 0.94 0.98 1.02 1.02 1.06 1.11 1.18 1.18 1.16

GFSSGP_prec_pwat_096.txt.gz
Precipitable_Water
0.65 0.83 0.88 0.71 0.30 0.30 0.20 0.20 0.38 0.36 0.37 0.45 0.46 0.38 0.37 0.43 0.38 0.34 1.16 1.39 1.45 1.55 1.67 1.69 1.61 1.72 1.74 1.65 1.66 1.57 1.50 1.49 1.45 1.38 1.36 1.30 1.29 1.26 1.27 1.29 1.30 1.24 1.46 1.50 1.36 1.19 1.07 1.09 0.93
0.75 0.82 0.77 0.56 0.26 0.17 0.17 0.30 0.27 0.42 0.48 0.50 0.48 0.44 0.46 0.47 0.78 0.89 1.06 1.45 1.56 1.62 1.69 1.68 1.61 1.66 1.69 1.65 1.63 1.59 1.59 1.59 1.55 1.47 1.49 1.39 1.34 1.28 1.35 1.36 1.39 1.44 1.54 1.46 1.19 1.05 1.04 1.00 0.90
0.79 0.85 0.51 0.36 0.27 0.18 0.18 0.29 0.33 0.40 0.47 0.47 0.42 0.47 0.58 0.68 0.95 1.06 1.27 1.49 1.58 1.62 1.66 1.63 1.62 1.63 1.67 1.63 1.59 1.55 1.58 1.62 1.61 1.59 1.49 1.48 1.43 1.36 1.35 1.41 1.45 1.49 1.56 1.42 1.07 0.99 1.01 0.96 0.93
0.67 0.63 0.54 0.28 0.22 0.26 0.26 0.33 0.38 0.36 0.40 0.43 0.43 0.39 0.49 0.91 0.99 1.32 1.45 1.54 1.60 1.64 1.71 1.68 1.65 1.62 1.58 1.56 1.58 1.56 1.55 1.55 1.56 1.55 1.54 1.59 1.50 1.52 1.46 1.36 1.41 1.46 1.52 1.41 1.03 1.01 1.05 1.00 0.98
0.59 0.42 0.22 0.21 0.25 0.33 0.35 0.37 0.39 0.35 0.34 0.36 0.37 0.36 0.42 0.80 0.89 1.35 1.47 1.55 1.55 1.63 1.68 1.71 1.66 1.62 1.55 1.50 1.50 1.53 1.58 1.59 1.54 1.49 1.45 1.47 1.50 1.53 1.59 1.51 1.42 1.46 1.46 1.35 1.05 1.01 1.09 1.05 0.98
0.29 0.29 0.14 0.13 0.16 0.24 0.31 0.37 0.36 0.35 0.35 0.34 0.35 0.35 0.44 0.69 0.71 0.97 1.38 1.42 1.59 1.62 1.66 1.66 1.72 1.66 1.58 1.57 1.56 1.58 1.59 1.58 1.58 1.46 1.40 1.40 1.45 1.52 1.59 1.54 1.50 1.45 1.40 1.27 1.07 1.01 1.09 1.05 1.00
0.22 0.17 0.13 0.16 0.17 0.20 0.23 0.31 0.30 0.33 0.32 0.33 0.39 0.34 0.42 0.52 0.73 1.05 1.25 1.39 1.51 1.61 1.65 1.70 1.70 1.69 1.64 1.65 1.67 1.69 1.71 1.67 1.57 1.45 1.50 1.48 1.50 1.57 1.59 1.58 1.49 1.42 1.31 1.28 1.11 1.03 1.08 1.06 1.00
0.31 0.22 0.17 0.18 0.15 0.16 0.27 0.29 0.31 0.30 0.32 0.41 0.41 0.34 0.38 0.51 0.69 0.84 1.22 1.28 1.36 1.47 1.57 1.68 1.72 1.79 1.67 1.63 1.64 1.64 1.59 1.60 1.58 1.61 1.58 1.59 1.54 1.56 1.66 1.57 1.61 1.52 1.43 1.35 1.26 1.10 1.04 1.07 1.01
0.37 0.16 0.12 0.15 0.17 0.19 0.29 0.24 0.31 0.34 0.28 0.33 0.39 0.42 0.47 0.54 0.61 0.67 0.85 1.13 1.21 1.32 1.43 1.56 1.64 1.75 1.80 1.82 1.76 1.73 1.62 1.54 1.51 1.58 1.68 1.57 1.53 1.56 1.66 1.63 1.60 1.55 1.47 1.31 1.41 1.22 1.05 1.04 1.03
0.25 0.15 0.14 0.25 0.27 0.23 0.26 0.25 0.25 0.24 0.22 0.23 0.26 0.34 0.43 0.51 0.53 0.56 0.68 0.87 1.06 1.16 1.26 1.41 1.44 1.56 1.61 1.68 1.71 1.69 1.68 1.57 1.50 1.53 1.56 1.47 1.42 1.60 1.67 1.66 1.62 1.60 1.55 1.32 1.38 1.33 1.14 1.03 0.99
0.26 0.16 0.24 0.25 0.28 0.30 0.26 0.24 0.27 0.23 0.18 0.21 0.22 0.26 0.32 0.38 0.49 0.51 0.59 0.76 0.92 1.20 1.27 1.31 1.39 1.51 1.51 1.52 1.51 1.52 1.53 1.57 1.54 1.48 1.48 1.53 1.55 1.63 1.69 1.69 1.60 1.65 1.64 1.42 1.37 1.37 1.29 1.12 0.93
0.20 0.28 0.27 0.28 0.29 0.27 0.23 0.26 0.22 0.22 0.21 0.27 0.28 0.29 0.29 0.29 0.37 0.46 0.56 0.66 0.82 1.08 1.22 1.34 1.36 1.38 1.47 1.46 1.41 1.40 1.42 1.48 1.49 1.51 1.46 1.39 1.49 1.49 1.58 1.68 1.63 1.68 1.71 1.51 1.48 1.34 1.27 1.17 1.01
0.23 0.25 0.27 0.28 0.27 0.25 0.25 0.21 0.21 0.21 0.25 0.25 0.25 0.26 0.26 0.27 0.27 0.38 0.48 0.61 0.78 1.02 1.21 1.27 1.32 1.30 1.35 1.37 1.35 1.34 1.30 1.32 1.36 1.39 1.42 1.37 1.34 1.39 1.49 1.58 1.68 1.71 1.75 1.69 1.50 1.44 1.31 1.17 0.99
0.26 0.25 0.24 0.25 0.22 0.23 0.20 0.19 0.22 0.22 0.24 0.22 0.22 0.21 0.22 0.23 0.25 0.27 0.39 0.48 0.67 0.92 1.12 1.21 1.24 1.26 1.29 1.23 1.25 1.24 1.27 1.21 1.21 1.21 1.22 1.29 1.30 1.37 1.40 1.49 1.61 1.73 1.78 1.77 1.58 1.39 1.36 1.17 1.01
0.27 0.20 0.22 0.21 0.22 0.22 0.25 0.17 0.18 0.24 0.25 0.23 0.26 0.28 0.29 0.30 0.31 0.29 0.31 0.43 0.57 0.76 0.91 1.04 1.13 1.19 1.18 1.13 1.14 1.12 1.05 1.04 1.07 1.11 1.14 1.18 1.26 1.30 1.45 1.43 1.45 1.63 1.79 1.75 1.66 1.44 1.36 1.22 1.04
0.24 0.23 0.15 0.20 0.24 0.27 0.26 0.14 0.20 0.27 0.29 0.27 0.29 0.30 0.32 0.35 0.36 0.33 0.29 0.38 0.52 0.66 0.74 0.84 0.93 1.05 1.08 1.10 1.11 1.12 1.09 1.07 1.10 1.14 1.17 1.15 1.20 1.22 1.30 1.39 1.47 1.47 1.64 1.79 1.67 1.49 1.45 1.23 1.10
0.23 0.16 0.17 0.19 0.30 0.30 0.29 0.19 0.27 0.34 0.31 0.29 0.31 0.34 0.36 0.38 0.37 0.35 0.32 0.30 0.49 0.61 0.66 0.76 0.91 1.00 1.03 1.06 1.08 1.07 1.08 1.05 1.07 1.14 1.21 1.23 1.23 1.21 1.21 1.21 1.38 1.48 1.48 1.60 1.63 1.53 1.45 1.29 1.10
0.17 0.18 0.21 0.22 0.28 0.30 0.28 0.25 0.30 0.36 0.35 0.33 0.35 0.37 0.38 0.37 0.37 0.36 0.34 0.29 0.43 0.60 0.69 0.81 0.92 1.00 1.05 1.06 1.06 1.05 1.01 0.99 1.08 1.13 1.18 1.23 1.25 1.27 1.30 1.23 1.31 1.41 1.41 1.41 1.45 1.47 1.40 1.33 1.17
0.25 0.23 0.22 0.27 0.34 0.31 0.30 0.26 0.26 0.33 0.37 0.37 0.39 0.38 0.41 0.43 0.49 0.47 0.41 0.33 0.46 0.69 0.80 0.85 0.90 0.99 1.01 0.94 0.90 0.89 0.86 0.93 1.08 1.17 1.20 1.27 1.30 1.30 1.32 1.32 1.32 1.41 1.42 1.38 1.44 1.48 1.38 1.26 1.15
0.27 0.24 0.24 0.31 0.36 0.33 0.31 0.26 0.32 0.38 0.40 0.45 0.48 0.49 0.50 0.57 0.61 0.61 0.47 0.42 0.57 0.76 0.92 0.93 0.94 0.98 1.00 0.97 0.98 1.00 0.95 1.00 1.10 1.18 1.23 1.29 1.34 1.36 1.43 1.44 1.32 1.41 1.41 1.43 1.41 1.37 1.30 1.25 1.20
0.28 0.25 0.27 0.28 0.35 0.39 0.35 0.25 0.31 0.38 0.48 0.51 0.53 0.60 0.64 0.64 0.67 0.67 0.63 0.64 0.66 0.77 0.88 0.91 0.98 0.99 1.00 1.01 1.04 1.03 1.06 1.09 1.08 1.11 1.21 1.28 1.36 1.39 1.46 1.63 1.51 1.44 1.53 1.44 1.42 1.38 1.30 1.12 1.11
0.23 0.36 0.36 0.35 0.34 0.27 0.41 0.22 0.30 0.37 0.38 0.45 0.53 0.58 0.66 0.67 0.74 0.76 0.79 0.74 0.69 0.79 0.91 0.95 0.96 0.92 0.90 0.96 0.96 0.98 0.98 0.96 1.05 1.09 1.16 1.27 1.37 1.42 1.43 1.51 1.55 1.61 1.55 1.41 1.36 1.37 1.25 1.17 1.06
0.30 0.40 0.39 0.39 0.35 0.36 0.35 0.30 0.27 0.39 0.33 0.40 0.50 0.57 0.63 0.72 0.74 0.75 0.75 0.80 0.80 0.82 0.87 0.89 0.88 0.90 0.96 0.98 1.04 1.03 1.05 1.12 1.11 1.10 1.16 1.22 1.29 1.40 1.46 1.52 1.52 1.48 1.49 1.51 1.46 1.33 1.22 1.27 1.23
0.45 0.42 0.41 0.41 0.37 0.26 0.32 0.32 0.27 0.32 0.39 0.43 0.50 0.56 0.63 0.66 0.72 0.74 0.79 0.79 0.77 0.81 0.82 0.84 0.92 0.96 1.04 1.04 1.06 1.09 1.11 1.09 1.11 1.27 1.29 1.29 1.36 1.43 1.54 1.52 1.50 1.50 1.50 1.50 1.50 1.46 1.36 1.26 1.20
0.46 0.40 0.26 0.23 0.25 0.24 0.38 0.32 0.31 0.43 0.47 0.49 0.49 0.52 0.58 0.64 0.68 0.72 0.78 0.79 0.82 0.84 0.87 0.93 0.94 0.98 1.05 1.15 1.16 1.17 1.15 1.19 1.19 1.22 1.26 1.26 1.33 1.39 1.43 1.47 1.45 1.43 1.45 1.44 1.42 1.41 1.36 1.34 1.29
0.46 0.43 0.31 0.21 0.23 0.27 0.41 0.30 0.37 0.52 0.56 0.56 0.56 0.56 0.60 0.65 0.71 0.74 0.79 0.84 0.87 0.89 0.92 0.95 0.95 0.95 0.99 1.00 1.04 1.10 1.13 1.14 1.15 1.19 1.24 1.24 1.28 1.29 1.44 1.42 1.44 1.45 1.45 1.45 1.44 1.38 1.37 1.38 1.39
0.47 0.39 0.50 0.36 0.38 0.31 0.34 0.42 0.51 0.57 0.55 0.56 0.58 0.60 0.64 0.70 0.74 0.77 0.81 0.85 0.87 0.90 0.93 0.96 0.97 0.98 0.95 0.95 0.99 1.00 1.09 1.11 1.12 1.17 1.20 1.21 1.25 1.29 1.33 1.36 1.38 1.40 1.40 1.37 1.36 1.31 1.31 1.36 1.39
0.51 0.56 0.37 0.39 0.26 0.24 0.32 0.34 0.37 0.47 0.51 0.56 0.59 0.61 0.66 0.70 0.73 0.77 0.80 0.82 0.84 0.85 0.87 0.89 0.88 0.84 0.83 0.81 0.83 0.86 0.86 0.92 0.97 1.04 1.07 1.11 1.14 1.20 1.21 1.23 1.28 1.33 1.32 1.35 1.37 1.36 1.39 1.37 1.36
0.41 0.38 0.43 0.44 0.38 0.28 0.26 0.33 0.53 0.52 0.56 0.56 0.59 0.63 0.66 0.70 0.73 0.76 0.78 0.79 0.78 0.77 0.74 0.73 0.76 0.76 0.75 0.74 0.73 0.73 0.75 0.76 0.75 0.73 0.75 0.80 0.89 0.97 1.01 1.06 1.09 1.13 1.19 1.21 1.20 1.25 1.30 1.32 1.31
0.42 0.38 0.39 0.32 0.30 0.35 0.34 0.35 0.60 0.60 0.62 0.62 0.61 0.65 0.69 0.72 0.74 0.76 0.75 0.72 0.70 0.68 0.68 0.68 0.68 0.67 0.67 0.65 0.62 0.60 0.60 0.61 0.61 0.63 0.66 0.71 0.72 0.73 0.73 0.74 0.77 0.84 0.92 1.00 1.04 1.04 1.09 1.18 1.21

GFSSGP_prec_pwat_099.txt.gz
Precipitable_Water
0.68 0.84 0.87 0.65 0.25 0.25 0.17 0.18 0.37 0.33 0.35 0.44 0.45 0.41 0.40 0.43 0.39 0.33 1.20 1.40 1.48 1.53 1.70 1.71 1.65 1.64 1.60 1.72 1.69 1.63 1.55 1.50 1.51 1.48 1.42 1.41 1.38 1.31 1.25 1.20 1.17 1.26 1.43 1.41 1.37 1.25 1.21 1.09 1.03
0.73 0.82 0.75 0.48 0.21 0.15 0.16 0.29 0.25 0.38 0.43 0.48 0.45 0.42 0.46 0.45 0.85 0.94 1.09 1.41 1.57 1.62 1.72 1.75 1.68 1.69 1.70 1.75 1.66 1.62 1.55 1.53 1.53 1.51 1.51 1.46 1.39 1.32 1.29 1.29 1.22 1.34 1.50 1.48 1.33 1.09 1.14 1.03 0.94
0.82 0.83 0.47 0.32 0.23 0.16 0.17 0.29 0.34 0.43 0.46 0.43 0.40 0.45 0.52 0.66 0.88 1.11 1.33 1.45 1.58 1.62 1.70 1.70 1.69 1.72 1.73 1.69 1.61 1.56 1.54 1.57 1.59 1.58 1.57 1.55 1.52 1.40 1.40 1.39 1.34 1.57 1.62 1.47 1.18 1.05 1.08 1.00 0.87
0.73 0.66 0.50 0.29 0.22 0.27 0.26 0.32 0.37 0.35 0.40 0.41 0.43 0.37 0.55 0.71 0.67 0.98 1.36 1.49 1.57 1.63 1.70 1.67 1.64 1.64 1.69 1.70 1.62 1.57 1.53 1.52 1.53 1.56 1.56 1.62 1.66 1.53 1.50 1.48 1.59 1.52 1.52 1.51 1.15 1.00 1.03 1.04 0.98
0.62 0.42 0.22 0.20 0.22 0.30 0.35 0.41 0.40 0.34 0.34 0.34 0.36 0.35 0.38 0.71 0.75 0.95 1.24 1.45 1.48 1.66 1.72 1.69 1.66 1.61 1.64 1.67 1.63 1.59 1.57 1.60 1.59 1.57 1.54 1.55 1.57 1.63 1.54 1.56 1.56 1.55 1.49 1.49 1.19 0.99 1.02 1.07 1.06
0.31 0.27 0.12 0.10 0.13 0.21 0.27 0.35 0.39 0.35 0.36 0.37 0.34 0.32 0.37 0.65 0.60 0.78 1.15 1.36 1.42 1.50 1.75 1.84 1.75 1.68 1.63 1.62 1.62 1.60 1.58 1.63 1.68 1.67 1.59 1.49 1.44 1.58 1.64 1.58 1.62 1.61 1.61 1.47 1.30 1.03 1.05 1.11 1.09
0.22 0.16 0.12 0.12 0.13 0.16 0.21 0.30 0.25 0.27 0.29 0.30 0.39 0.33 0.39 0.48 0.55 0.69 0.92 1.31 1.36 1.41 1.53 1.75 1.82 1.76 1.67 1.63 1.65 1.63 1.61 1.57 1.60 1.67 1.61 1.53 1.54 1.50 1.64 1.69 1.62 1.62 1.64 1.50 1.28 1.08 1.10 1.13 1.13
0.27 0.19 0.15 0.16 0.15 0.15 0.26 0.28 0.29 0.27 0.26 0.36 0.35 0.28 0.35 0.48 0.55 0.61 0.72 1.02 1.26 1.35 1.46 1.60 1.75 1.77 1.69 1.65 1.65 1.65 1.63 1.62 1.60 1.51 1.46 1.53 1.58 1.57 1.61 1.66 1.64 1.64 1.58 1.55 1.34 1.10 1.11 1.15 1.15
0.34 0.13 0.11 0.14 0.17 0.19 0.28 0.24 0.30 0.33 0.27 0.29 0.32 0.31 0.36 0.46 0.56 0.55 0.59 0.78 1.00 1.21 1.30 1.45 1.59 1.70 1.74 1.76 1.78 1.75 1.68 1.63 1.62 1.59 1.60 1.54 1.57 1.62 1.61 1.65 1.64 1.57 1.60 1.57 1.46 1.19 1.12 1.15 1.15
0.22 0.12 0.12 0.23 0.25 0.22 0.25 0.25 0.25 0.23 0.22 0.22 0.23 0.27 0.31 0.34 0.38 0.45 0.51 0.60 0.77 0.92 1.19 1.30 1.39 1.49 1.62 1.75 1.76 1.79 1.73 1.64 1.62 1.63 1.64 1.66 1.65 1.61 1.59 1.60 1.65 1.65 1.62 1.60 1.51 1.44 1.22 1.13 1.16
0.25 0.14 0.22 0.24 0.28 0.27 0.24 0.22 0.27 0.22 0.19 0.21 0.21 0.24 0.28 0.28 0.28 0.33 0.43 0.52 0.64 0.82 1.04 1.25 1.31 1.37 1.48 1.56 1.63 1.66 1.61 1.55 1.50 1.52 1.62 1.55 1.54 1.47 1.48 1.59 1.68 1.69 1.63 1.62 1.57 1.54 1.45 1.20 1.11
0.18 0.25 0.26 0.27 0.28 0.26 0.21 0.24 0.19 0.20 0.20 0.23 0.23 0.25 0.26 0.25 0.25 0.27 0.32 0.40 0.50 0.65 0.87 1.17 1.31 1.34 1.39 1.48 1.49 1.51 1.51 1.48 1.45 1.40 1.41 1.50 1.48 1.50 1.56 1.57 1.63 1.67 1.63 1.58 1.62 1.44 1.49 1.35 1.19
0.23 0.24 0.26 0.27 0.24 0.23 0.23 0.19 0.19 0.20 0.22 0.25 0.24 0.25 0.23 0.23 0.23 0.23 0.26 0.34 0.41 0.51 0.71 1.05 1.27 1.33 1.32 1.33 1.34 1.38 1.42 1.42 1.42 1.40 1.37 1.37 1.40 1.39 1.45 1.51 1.59 1.58 1.63 1.61 1.65 1.59 1.42 1.35 1.29
0.25 0.24 0.22 0.22 0.21 0.22 0.20 0.20 0.22 0.20 0.23 0.24 0.24 0.23 0.25 0.27 0.28 0.28 0.27 0.28 0.36 0.43 0.58 0.89 1.20 1.31 1.30 1.26 1.29 1.31 1.40 1.39 1.38 1.36 1.35 1.34 1.37 1.36 1.37 1.39 1.48 1.58 1.58 1.61 1.64 1.67 1.62 1.43 1.33
0.26 0.18 0.20 0.20 0.22 0.22 0.25 0.17 0.17 0.23 0.27 0.25 0.28 0.29 0.29 0.30 0.32 0.30 0.32 0.29 0.32 0.41 0.49 0.68 0.94 1.21 1.26 1.22 1.27 1.30 1.37 1.40 1.33 1.28 1.23 1.16 1.15 1.21 1.26 1.32 1.36 1.44 1.59 1.60 1.62 1.69 1.72 1.58 1.41
0.22 0.21 0.15 0.20 0.25 0.28 0.28 0.16 0.22 0.32 0.33 0.31 0.32 0.31 0.31 0.33 0.35 0.38 0.39 0.36 0.30 0.37 0.45 0.60 0.79 0.91 1.03 1.19 1.21 1.20 1.25 1.29 1.23 1.16 1.14 1.13 1.14 1.16 1.23 1.23 1.31 1.38 1.42 1.60 1.58 1.60 1.59 1.68 1.39
0.22 0.16 0.19 0.22 0.31 0.32 0.31 0.23 0.33 0.37 0.34 0.32 0.33 0.33 0.35 0.35 0.38 0.41 0.41 0.38 0.33 0.31 0.43 0.57 0.69 0.74 0.82 0.94 1.13 1.15 1.15 1.16 1.12 1.11 1.13 1.14 1.15 1.13 1.19 1.23 1.25 1.34 1.35 1.39 1.45 1.50 1.56 1.49 1.46
0.19 0.20 0.23 0.22 0.29 0.32 0.29 0.26 0.31 0.34 0.33 0.32 0.33 0.36 0.38 0.39 0.41 0.47 0.47 0.44 0.37 0.34 0.42 0.56 0.67 0.75 0.88 0.99 1.05 1.11 1.08 1.07 1.08 1.07 1.07 1.08 1.10 1.16 1.19 1.21 1.24 1.27 1.24 1.24 1.31 1.30 1.41 1.47 1.41
0.27 0.25 0.23 0.27 0.32 0.29 0.27 0.26 0.28 0.34 0.36 0.35 0.40 0.43 0.47 0.50 0.58 0.62 0.63 0.58 0.47 0.38 0.43 0.61 0.71 0.83 0.95 0.96 0.91 0.93 0.91 0.95 0.97 1.00 1.03 1.03 1.11 1.17 1.21 1.23 1.24 1.26 1.22 1.19 1.23 1.25 1.24 1.27 1.38
0.28 0.24 0.23 0.27 0.34 0.32 0.31 0.29 0.33 0.39 0.42 0.42 0.44 0.47 0.51 0.55 0.60 0.66 0.70 0.61 0.52 0.48 0.57 0.77 0.84 0.92 0.96 0.96 0.95 0.95 0.95 0.96 0.98 1.02 1.03 1.06 1.13 1.20 1.23 1.25 1.24 1.25 1.27 1.28 1.28 1.25 1.23 1.25 1.30
0.27 0.23 0.24 0.25 0.32 0.37 0.34 0.28 0.31 0.42 0.47 0.43 0.49 0.53 0.57 0.62 0.64 0.70 0.72 0.61 0.54 0.63 0.76 0.84 0.94 0.94 0.99 1.03 1.00 0.94 0.97 0.98 0.97 1.00 1.02 1.06 1.15 1.19 1.25 1.29 1.32 1.30 1.36 1.39 1.32 1.30 1.24 1.20 1.29
0.20 0.31 0.32 0.32 0.30 0.22 0.38 0.20 0.31 0.37 0.39 0.39 0.46 0.53 0.58 0.67 0.70 0.74 0.78 0.67 0.68 0.76 0.83 0.93 0.95 0.99 0.96 0.95 0.90 0.87 0.84 0.84 0.95 0.99 1.01 1.04 1.13 1.17 1.22 1.30 1.36 1.38 1.44 1.44 1.45 1.42 1.37 1.32 1.21
0.26 0.36 0.36 0.36 0.33 0.31 0.32 0.28 0.29 0.39 0.33 0.38 0.47 0.54 0.58 0.66 0.71 0.73 0.78 0.81 0.82 0.80 0.86 0.92 0.91 0.91 0.92 0.92 0.91 0.90 0.92 0.99 1.03 1.07 1.08 1.14 1.17 1.21 1.26 1.26 1.30 1.35 1.41 1.43 1.43 1.44 1.40 1.38 1.31
0.40 0.39 0.41 0.39 0.34 0.23 0.31 0.31 0.28 0.32 0.36 0.43 0.52 0.54 0.57 0.64 0.68 0.73 0.77 0.82 0.83 0.82 0.82 0.85 0.85 0.86 0.89 0.90 0.92 0.96 1.01 1.02 1.03 1.04 1.07 1.10 1.18 1.28 1.32 1.33 1.32 1.40 1.43 1.42 1.46 1.39 1.36 1.36 1.35
0.45 0.38 0.24 0.21 0.22 0.22 0.36 0.33 0.34 0.45 0.50 0.50 0.50 0.52 0.56 0.61 0.66 0.69 0.71 0.75 0.77 0.77 0.79 0.80 0.78 0.78 0.82 0.96 1.06 1.09 1.10 1.10 1.09 1.08 1.10 1.11 1.12 1.26 1.32 1.39 1.41 1.44 1.48 1.48 1.49 1.45 1.41 1.35 1.27
0.44 0.40 0.28 0.19 0.21 0.25 0.40 0.30 0.39 0.56 0.61 0.60 0.59 0.58 0.59 0.62 0.67 0.72 0.74 0.78 0.82 0.83 0.84 0.86 0.85 0.82 0.85 0.98 0.99 1.06 1.11 1.11 1.11 1.10 1.10 1.13 1.17 1.21 1.31 1.34 1.41 1.42 1.43 1.41 1.42 1.41 1.39 1.33 1.31
0.44 0.36 0.47 0.34 0.35 0.30 0.34 0.42 0.52 0.57 0.56 0.58 0.59 0.61 0.61 0.65 0.70 0.73 0.77 0.80 0.83 0.85 0.86 0.90 0.91 0.89 0.91 0.92 0.89 0.88 0.93 0.97 1.00 1.02 1.06 1.10 1.17 1.21 1.24 1.29 1.30 1.35 1.35 1.37 1.40 1.38 1.35 1.34 1.29
0.45 0.50 0.35 0.36 0.24 0.23 0.31 0.35 0.37 0.48 0.51 0.55 0.57 0.59 0.63 0.67 0.70 0.73 0.77 0.80 0.82 0.84 0.86 0.89 0.89 0.83 0.80 0.77 0.78 0.82 0.86 0.85 0.81 0.82 0.86 0.92 1.01 1.08 1.15 1.18 1.20 1.23 1.26 1.29 1.29 1.28 1.30 1.31 1.32
0.40 0.38 0.39 0.41 0.38 0.28 0.26 0.32 0.53 0.52 0.55 0.55 0.59 0.62 0.65 0.67 0.70 0.74 0.76 0.77 0.78 0.79 0.77 0.78 0.76 0.76 0.69 0.67 0.69 0.65 0.66 0.70 0.69 0.68 0.70 0.72 0.75 0.77 0.81 0.90 0.96 1.02 1.07 1.13 1.16 1.18 1.17 1.17 1.24
0.39 0.36 0.37 0.29 0.30 0.35 0.34 0.33 0.60 0.61 0.61 0.62 0.62 0.65 0.69 0.70 0.72 0.72 0.72 0.71 0.68 0.66 0.66 0.65 0.65 0.62 0.59 0.53 0.51 0.50 0.49 0.48 0.48 0.47 0.47 0.49 0.49 0.53 0.58 0.62 0.66 0.69 0.73 0.80 0.86 0.94 1.01 1.03 1.06

GFSSGP_prec_pwat_102.txt.gz
Precipitable_Water
0.71 0.82 0.85 0.65 0.29 0.25 0.18 0.19 0.33 0.31 0.33 0.42 0.42 0.41 0.38 0.42 0.40 0.42 1.25 1.32 1.45 1.51 1.64 1.70 1.64 1.67 1.69 1.57 1.60 1.57 1.57 1.57 1.56 1.57 1.55 1.50 1.45 1.39 1.33 1.27 1.16 1.33 1.54 1.52 1.46 1.42 1.33 1.21 1.09
0.75 0.81 0.73 0.49 0.24 0.16 0.17 0.28 0.28 0.38 0.40 0.43 0.42 0.41 0.44 0.52 0.88 0.96 1.10 1.36 1.49 1.60 1.70 1.76 1.63 1.65 1.73 1.67 1.66 1.59 1.56 1.52 1.53 1.55 1.57 1.56 1.52 1.37 1.29 1.22 1.17 1.33 1.56 1.51 1.41 1.27 1.16 1.12 1.12
0.81 0.80 0.52 0.34 0.22 0.17 0.19 0.30 0.37 0.40 0.42 0.40 0.39 0.43 0.50 0.63 0.71 0.83 1.20 1.38 1.53 1.62 1.75 1.79 1.70 1.64 1.68 1.74 1.73 1.64 1.55 1.46 1.47 1.50 1.54 1.53 1.58 1.50 1.39 1.35 1.24 1.38 1.66 1.63 1.38 1.15 1.09 1.07 1.05
0.76 0.66 0.46 0.30 0.22 0.29 0.28 0.34 0.38 0.38 0.41 0.43 0.42 0.37 0.57 0.69 0.64 0.83 1.11 1.33 1.47 1.59 1.72 1.81 1.69 1.72 1.73 1.77 1.73 1.69 1.58 1.53 1.51 1.52 1.53 1.53 1.65 1.57 1.55 1.55 1.50 1.60 1.66 1.59 1.46 1.11 1.07 1.00 0.97
0.69 0.50 0.30 0.26 0.26 0.31 0.37 0.43 0.42 0.35 0.35 0.36 0.40 0.35 0.41 0.62 0.69 0.75 1.01 1.29 1.34 1.48 1.63 1.74 1.76 1.65 1.69 1.73 1.76 1.69 1.61 1.59 1.57 1.59 1.58 1.57 1.56 1.57 1.58 1.65 1.62 1.66 1.60 1.50 1.45 1.09 1.05 1.03 1.06
0.36 0.31 0.16 0.15 0.18 0.25 0.31 0.38 0.39 0.37 0.38 0.38 0.36 0.36 0.42 0.63 0.57 0.61 0.79 1.15 1.39 1.42 1.57 1.64 1.72 1.80 1.70 1.69 1.71 1.66 1.69 1.70 1.69 1.69 1.68 1.66 1.57 1.51 1.58 1.66 1.66 1.66 1.62 1.59 1.44 1.18 1.06 1.06 1.13
0.24 0.17 0.13 0.13 0.14 0.17 0.23 0.30 0.26 0.28 0.29 0.31 0.38 0.33 0.42 0.53 0.54 0.59 0.66 0.94 1.32 1.39 1.46 1.59 1.68 1.73 1.85 1.78 1.74 1.70 1.68 1.68 1.66 1.65 1.67 1.66 1.63 1.59 1.58 1.66 1.66 1.73 1.72 1.65 1.57 1.35 1.08 1.12 1.15
0.28 0.19 0.14 0.15 0.15 0.16 0.26 0.28 0.30 0.27 0.26 0.33 0.32 0.24 0.29 0.47 0.53 0.58 0.62 0.72 0.99 1.33 1.34 1.44 1.56 1.68 1.76 1.83 1.71 1.61 1.56 1.57 1.57 1.58 1.62 1.62 1.57 1.55 1.55 1.62 1.69 1.70 1.77 1.68 1.60 1.44 1.22 1.14 1.19
0.32 0.14 0.13 0.15 0.16 0.19 0.27 0.24 0.30 0.32 0.26 0.26 0.28 0.28 0.31 0.36 0.44 0.47 0.52 0.59 0.75 0.92 1.23 1.33 1.43 1.56 1.69 1.76 1.74 1.70 1.68 1.68 1.65 1.65 1.56 1.51 1.53 1.59 1.58 1.54 1.63 1.65 1.67 1.71 1.62 1.53 1.28 1.17 1.22
0.21 0.13 0.14 0.21 0.23 0.21 0.24 0.25 0.25 0.22 0.22 0.21 0.22 0.25 0.27 0.29 0.29 0.34 0.40 0.44 0.54 0.72 0.89 1.22 1.32 1.41 1.53 1.61 1.68 1.77 1.78 1.75 1.73 1.72 1.64 1.58 1.56 1.61 1.63 1.66 1.61 1.61 1.65 1.62 1.65 1.62 1.35 1.19 1.22
0.23 0.15 0.20 0.23 0.26 0.25 0.22 0.22 0.26 0.21 0.18 0.20 0.19 0.20 0.23 0.26 0.25 0.24 0.28 0.40 0.44 0.54 0.73 0.90 1.27 1.34 1.37 1.43 1.58 1.62 1.67 1.66 1.62 1.66 1.64 1.67 1.66 1.63 1.58 1.55 1.55 1.57 1.61 1.66 1.65 1.63 1.56 1.32 1.18
0.18 0.23 0.24 0.25 0.27 0.24 0.21 0.23 0.19 0.20 0.18 0.21 0.22 0.23 0.24 0.24 0.24 0.24 0.24 0.25 0.36 0.44 0.56 0.75 1.00 1.32 1.34 1.38 1.40 1.42 1.52 1.54 1.55 1.53 1.53 1.47 1.56 1.57 1.51 1.55 1.64 1.62 1.62 1.61 1.64 1.61 1.62 1.54 1.34
0.21 0.23 0.25 0.26 0.25 0.23 0.23 0.19 0.19 0.18 0.21 0.23 0.24 0.24 0.25 0.25 0.25 0.26 0.28 0.28 0.28 0.36 0.47 0.60 0.80 1.14 1.31 1.37 1.39 1.37 1.38 1.41 1.43 1.53 1.49 1.41 1.40 1.44 1.52 1.56 1.55 1.59 1.70 1.64 1.57 1.58 1.56 1.55 1.50
0.24 0.23 0.21 0.22 0.22 0.22 0.19 0.19 0.21 0.19 0.24 0.24 0.26 0.26 0.27 0.28 0.29 0.30 0.30 0.29 0.28 0.29 0.38 0.49 0.66 0.98 1.23 1.26 1.34 1.34 1.34 1.35 1.35 1.38 1.35 1.44 1.44 1.42 1.42 1.41 1.49 1.49 1.60 1.59 1.61 1.59 1.59 1.57 1.55
0.25 0.18 0.20 0.21 0.22 0.22 0.25 0.19 0.18 0.23 0.30 0.30 0.31 0.32 0.33 0.33 0.34 0.33 0.34 0.33 0.35 0.34 0.34 0.40 0.51 0.76 1.08 1.21 1.25 1.28 1.31 1.33 1.28 1.33 1.37 1.40 1.38 1.31 1.27 1.24 1.29 1.35 1.48 1.60 1.57 1.60 1.63 1.61 1.62
0.21 0.20 0.15 0.19 0.24 0.27 0.27 0.17 0.25 0.31 0.34 0.31 0.33 0.34 0.35 0.35 0.38 0.41 0.42 0.41 0.42 0.40 0.37 0.37 0.45 0.60 0.89 1.15 1.18 1.19 1.22 1.29 1.32 1.35 1.34 1.30 1.32 1.23 1.17 1.17 1.18 1.23 1.31 1.41 1.49 1.51 1.48 1.51 1.54
0.21 0.16 0.17 0.21 0.29 0.30 0.30 0.23 0.32 0.37 0.34 0.32 0.33 0.34 0.35 0.37 0.43 0.49 0.52 0.49 0.47 0.44 0.41 0.36 0.42 0.53 0.75 0.97 1.04 1.13 1.16 1.16 1.18 1.19 1.19 1.20 1.23 1.22 1.18 1.18 1.22 1.23 1.21 1.20 1.30 1.40 1.41 1.38 1.49
0.19 0.20 0.22 0.22 0.30 0.31 0.29 0.26 0.32 0.37 0.35 0.36 0.39 0.41 0.43 0.46 0.50 0.56 0.60 0.64 0.62 0.55 0.47 0.41 0.40 0.52 0.68 0.83 0.92 0.99 1.03 1.07 1.11 1.13 1.14 1.14 1.16 1.20 1.19 1.15 1.14 1.17 1.15 1.15 1.18 1.28 1.40 1.39 1.35
0.27 0.26 0.25 0.29 0.34 0.30 0.28 0.27 0.31 0.38 0.39 0.41 0.42 0.43 0.46 0.49 0.58 0.61 0.64 0.67 0.71 0.64 0.56 0.48 0.37 0.51 0.73 0.81 0.88 0.92 0.91 0.98 1.00 1.02 1.07 1.10 1.09 1.06 1.08 1.07 1.10 1.16 1.14 1.14 1.18 1.19 1.16 1.20 1.33
0.31 0.28 0.26 0.29 0.34 0.31 0.29 0.26 0.34 0.37 0.42 0.44 0.44 0.44 0.48 0.54 0.59 0.63 0.66 0.71 0.75 0.73 0.67 0.61 0.51 0.67 0.85 0.92 0.99 1.03 1.02 1.00 0.99 1.00 0.99 1.02 1.06 1.07 1.06 1.06 1.06 1.11 1.16 1.19 1.20 1.20 1.15 1.18 1.26
0.29 0.25 0.24 0.25 0.31 0.35 0.31 0.25 0.28 0.38 0.46 0.47 0.51 0.49 0.52 0.57 0.59 0.65 0.69 0.75 0.77 0.69 0.68 0.65 0.71 0.89 0.97 1.04 1.08 1.06 1.01 0.95 0.90 0.90 0.91 0.94 1.01 1.09 1.08 1.08 1.08 1.12 1.22 1.21 1.25 1.25 1.20 1.13 1.27
0.22 0.29 0.28 0.29 0.27 0.21 0.35 0.18 0.30 0.36 0.40 0.45 0.48 0.50 0.51 0.57 0.63 0.68 0.72 0.77 0.75 0.69 0.75 0.79 0.87 0.91 0.99 1.04 1.02 0.96 0.86 0.83 0.89 0.87 0.91 0.95 1.05 1.08 1.10 1.11 1.13 1.16 1.21 1.25 1.29 1.34 1.31 1.31 1.24
0.26 0.33 0.33 0.33 0.31 0.30 0.30 0.26 0.31 0.37 0.37 0.43 0.46 0.55 0.57 0.60 0.64 0.66 0.71 0.77 0.81 0.80 0.81 0.86 0.90 0.96 1.01 1.01 0.96 0.94 0.90 0.91 0.92 0.90 0.94 1.02 1.07 1.12 1.17 1.14 1.19 1.20 1.22 1.26 1.28 1.30 1.34 1.37 1.34
0.38 0.36 0.38 0.38 0.33 0.22 0.30 0.31 0.31 0.34 0.43 0.49 0.52 0.55 0.57 0.58 0.61 0.67 0.74 0.79 0.78 0.81 0.81 0.85 0.88 0.90 0.97 0.97 0.95 0.89 0.86 0.86 0.86 0.92 0.98 1.04 1.08 1.11 1.17 1.23 1.25 1.31 1.32 1.33 1.28 1.33 1.37 1.35 1.35
0.40 0.35 0.25 0.22 0.22 0.22 0.34 0.31 0.34 0.46 0.55 0.56 0.54 0.55 0.55 0.58 0.62 0.66 0.69 0.72 0.77 0.77 0.77 0.77 0.80 0.84 0.86 0.85 0.84 0.86 0.92 0.89 0.96 0.98 1.01 1.05 1.03 1.09 1.15 1.24 1.27 1.35 1.35 1.35 1.41 1.38 1.37 1.35 1.31
0.41 0.38 0.27 0.19 0.20 0.24 0.36 0.29 0.37 0.55 0.60 0.60 0.62 0.63 0.63 0.61 0.65 0.70 0.74 0.77 0.81 0.83 0.80 0.76 0.73 0.72 0.75 0.74 0.81 0.89 1.01 1.04 1.07 1.07 1.08 1.05 1.08 1.13 1.16 1.21 1.28 1.33 1.34 1.37 1.39 1.37 1.38 1.38 1.35
0.42 0.35 0.45 0.32 0.33 0.28 0.32 0.41 0.52 0.57 0.56 0.59 0.59 0.62 0.63 0.66 0.67 0.70 0.75 0.78 0.80 0.82 0.85 0.85 0.84 0.84 0.83 0.81 0.84 0.91 0.92 0.87 0.89 0.92 0.91 0.96 0.98 1.04 1.13 1.19 1.21 1.25 1.27 1.29 1.31 1.31 1.32 1.36 1.33
0.43 0.48 0.33 0.36 0.24 0.22 0.29 0.33 0.36 0.47 0.51 0.56 0.57 0.59 0.63 0.66 0.68 0.71 0.75 0.77 0.80 0.82 0.85 0.86 0.86 0.79 0.81 0.83 0.77 0.75 0.82 0.85 0.80 0.75 0.74 0.72 0.74 0.85 0.94 0.99 1.06 1.07 1.14 1.18 1.23 1.23 1.25 1.25 1.26
0.41 0.38 0.39 0.39 0.36 0.27 0.25 0.31 0.51 0.52 0.56 0.57 0.59 0.62 0.64 0.66 0.69 0.72 0.75 0.76 0.76 0.78 0.76 0.76 0.73 0.69 0.62 0.62 0.61 0.58 0.57 0.62 0.61 0.58 0.56 0.58 0.60 0.59 0.62 0.69 0.77 0.86 0.91 1.01 1.04 1.08 1.11 1.13 1.14
0.39 0.33 0.33 0.26 0.26 0.31 0.31 0.31 0.56 0.57 0.59 0.60 0.60 0.63 0.66 0.69 0.70 0.72 0.72 0.71 0.67 0.65 0.62 0.62 0.61 0.53 0.51 0.49 0.47 0.46 0.44 0.43 0.41 0.42 0.41 0.40 0.40 0.43 0.42 0.43 0.46 0.48 0.57 0.61 0.67 0.72 0.78 0.84 0.93

GFSSGP_prec_pwat_105.txt.gz
Precipitable_Water
0.73 0.81 0.85 0.66 0.35 0.27 0.21 0.22 0.33 0.30 0.32 0.42 0.43 0.39 0.40 0.43 0.42 0.53 1.33 1.21 1.34 1.47 1.63 1.69 1.64 1.66 1.59 1.56 1.60 1.59 1.58 1.58 1.58 1.60 1.60 1.58 1.55 1.44 1.33 1.24 1.15 1.31 1.59 1.72 1.50 1.50 1.44 1.31 1.15
0.76 0.80 0.75 0.54 0.30 0.20 0.20 0.31 0.30 0.39 0.43 0.43 0.40 0.40 0.39 0.54 0.85 0.97 1.08 1.20 1.37 1.50 1.60 1.72 1.72 1.68 1.65 1.64 1.61 1.64 1.61 1.58 1.56 1.56 1.60 1.59 1.57 1.60 1.38 1.29 1.16 1.34 1.58 1.75 1.57 1.45 1.29 1.22 1.12
0.79 0.81 0.52 0.37 0.23 0.20 0.25 0.33 0.42 0.41 0.40 0.41 0.39 0.44 0.57 0.66 0.70 0.77 1.03 1.27 1.40 1.51 1.68 1.72 1.81 1.71 1.67 1.67 1.67 1.68 1.63 1.61 1.50 1.50 1.53 1.57 1.56 1.56 1.43 1.35 1.24 1.33 1.57 1.72 1.56 1.28 1.17 1.10 1.14
0.71 0.62 0.53 0.30 0.22 0.30 0.31 0.37 0.43 0.39 0.40 0.41 0.41 0.38 0.56 0.69 0.64 0.69 0.90 1.20 1.40 1.51 1.67 1.74 1.79 1.77 1.69 1.70 1.76 1.75 1.70 1.60 1.51 1.47 1.50 1.51 1.54 1.61 1.50 1.51 1.52 1.44 1.62 1.72 1.58 1.23 1.13 1.06 1.07
0.75 0.58 0.34 0.26 0.28 0.33 0.39 0.44 0.40 0.35 0.38 0.38 0.40 0.38 0.46 0.58 0.64 0.66 0.72 1.02 1.27 1.44 1.63 1.70 1.67 1.68 1.74 1.74 1.80 1.81 1.76 1.69 1.63 1.60 1.58 1.62 1.57 1.56 1.51 1.62 1.62 1.55 1.66 1.68 1.57 1.35 1.14 1.03 0.97
0.46 0.47 0.29 0.26 0.29 0.34 0.38 0.43 0.40 0.37 0.39 0.38 0.36 0.37 0.45 0.60 0.56 0.59 0.64 0.78 1.22 1.35 1.50 1.61 1.62 1.61 1.59 1.70 1.68 1.72 1.74 1.72 1.71 1.69 1.66 1.68 1.68 1.59 1.56 1.58 1.64 1.65 1.66 1.62 1.59 1.44 1.11 1.10 1.04
0.37 0.26 0.22 0.22 0.22 0.24 0.29 0.34 0.29 0.32 0.34 0.35 0.39 0.32 0.50 0.57 0.55 0.59 0.60 0.67 0.87 1.31 1.41 1.55 1.63 1.60 1.61 1.61 1.71 1.73 1.72 1.71 1.67 1.65 1.65 1.66 1.68 1.63 1.63 1.66 1.64 1.69 1.74 1.70 1.61 1.53 1.30 1.13 1.11
0.35 0.24 0.18 0.17 0.16 0.20 0.27 0.28 0.29 0.26 0.26 0.36 0.32 0.24 0.28 0.50 0.47 0.51 0.56 0.61 0.70 0.94 1.26 1.40 1.54 1.65 1.69 1.69 1.66 1.69 1.74 1.68 1.65 1.61 1.61 1.64 1.63 1.63 1.53 1.56 1.62 1.65 1.72 1.79 1.73 1.62 1.48 1.23 1.17
0.34 0.18 0.17 0.20 0.17 0.22 0.27 0.25 0.30 0.31 0.25 0.26 0.27 0.26 0.29 0.33 0.31 0.37 0.42 0.49 0.57 0.69 0.92 1.13 1.41 1.52 1.61 1.68 1.73 1.68 1.66 1.66 1.65 1.63 1.57 1.57 1.57 1.55 1.52 1.52 1.57 1.58 1.63 1.72 1.78 1.69 1.60 1.41 1.21
0.22 0.17 0.20 0.25 0.27 0.25 0.26 0.25 0.25 0.23 0.22 0.21 0.23 0.26 0.28 0.28 0.27 0.26 0.29 0.34 0.42 0.50 0.63 0.81 1.08 1.39 1.50 1.58 1.66 1.67 1.64 1.69 1.69 1.70 1.71 1.68 1.61 1.56 1.61 1.62 1.60 1.62 1.60 1.60 1.66 1.66 1.65 1.58 1.27
0.24 0.20 0.23 0.24 0.27 0.24 0.22 0.21 0.24 0.21 0.17 0.20 0.20 0.21 0.23 0.25 0.25 0.25 0.25 0.27 0.32 0.40 0.46 0.63 0.78 1.07 1.33 1.45 1.54 1.55 1.58 1.60 1.57 1.62 1.69 1.68 1.72 1.72 1.68 1.66 1.67 1.67 1.65 1.61 1.61 1.62 1.63 1.57 1.28
0.20 0.23 0.23 0.26 0.26 0.23 0.20 0.21 0.18 0.18 0.17 0.22 0.22 0.23 0.23 0.23 0.24 0.26 0.26 0.26 0.26 0.28 0.36 0.46 0.64 0.80 1.14 1.31 1.40 1.47 1.50 1.49 1.47 1.48 1.57 1.58 1.50 1.58 1.69 1.65 1.63 1.64 1.58 1.56 1.60 1.64 1.65 1.60 1.49
0.19 0.22 0.24 0.26 0.24 0.21 0.20 0.17 0.18 0.16 0.20 0.22 0.22 0.22 0.23 0.24 0.25 0.27 0.28 0.30 0.30 0.29 0.31 0.37 0.50 0.64 0.93 1.20 1.27 1.33 1.37 1.42 1.42 1.35 1.36 1.45 1.47 1.50 1.49 1.55 1.64 1.70 1.66 1.69 1.68 1.70 1.64 1.63 1.61
0.24 0.23 0.21 0.21 0.20 0.20 0.17 0.17 0.19 0.19 0.23 0.24 0.27 0.27 0.29 0.30 0.32 0.32 0.33 0.33 0.33 0.33 0.33 0.36 0.39 0.50 0.71 1.09 1.23 1.27 1.35 1.34 1.37 1.35 1.33 1.33 1.30 1.35 1.36 1.39 1.44 1.42 1.65 1.70 1.61 1.58 1.62 1.58 1.66
0.23 0.17 0.19 0.20 0.21 0.20 0.22 0.17 0.19 0.23 0.24 0.28 0.31 0.32 0.33 0.35 0.37 0.36 0.38 0.39 0.39 0.39 0.40 0.39 0.41 0.43 0.54 0.80 1.14 1.28 1.32 1.37 1.32 1.34 1.34 1.32 1.29 1.29 1.28 1.35 1.33 1.38 1.37 1.41 1.52 1.64 1.60 1.56 1.64
0.21 0.19 0.16 0.22 0.22 0.26 0.25 0.15 0.25 0.27 0.32 0.31 0.33 0.34 0.35 0.37 0.39 0.43 0.47 0.48 0.48 0.45 0.44 0.45 0.45 0.43 0.43 0.60 1.00 1.24 1.30 1.31 1.30 1.26 1.27 1.28 1.33 1.33 1.26 1.22 1.19 1.21 1.32 1.31 1.29 1.29 1.36 1.51 1.56
0.22 0.20 0.18 0.21 0.27 0.27 0.27 0.21 0.30 0.37 0.36 0.33 0.36 0.40 0.42 0.45 0.51 0.57 0.61 0.64 0.64 0.63 0.55 0.49 0.48 0.45 0.44 0.52 0.80 1.18 1.25 1.27 1.30 1.28 1.23 1.23 1.22 1.25 1.21 1.15 1.16 1.19 1.25 1.26 1.27 1.27 1.31 1.25 1.32
0.22 0.21 0.21 0.21 0.29 0.29 0.28 0.26 0.32 0.37 0.37 0.37 0.41 0.43 0.45 0.47 0.51 0.59 0.64 0.68 0.67 0.68 0.68 0.65 0.56 0.50 0.45 0.48 0.68 0.96 1.13 1.23 1.20 1.17 1.16 1.14 1.11 1.09 1.11 1.12 1.14 1.18 1.20 1.22 1.19 1.18 1.23 1.23 1.16
0.25 0.24 0.24 0.28 0.34 0.32 0.30 0.29 0.31 0.36 0.38 0.40 0.43 0.45 0.46 0.48 0.58 0.66 0.68 0.71 0.72 0.73 0.72 0.74 0.63 0.55 0.49 0.43 0.58 0.78 0.94 1.05 1.12 1.16 1.15 1.13 1.11 1.09 1.07 1.06 1.07 1.09 1.04 1.07 1.14 1.17 1.15 1.13 1.19
0.30 0.28 0.30 0.33 0.36 0.33 0.30 0.28 0.34 0.37 0.39 0.42 0.44 0.46 0.47 0.48 0.54 0.61 0.66 0.70 0.73 0.74 0.74 0.71 0.78 0.70 0.56 0.50 0.74 0.87 0.98 1.11 1.17 1.17 1.14 1.13 1.09 1.05 1.02 1.00 0.97 1.01 1.00 1.01 1.02 1.06 1.07 1.13 1.20
0.32 0.30 0.30 0.29 0.33 0.35 0.32 0.27 0.30 0.35 0.42 0.46 0.48 0.53 0.54 0.54 0.52 0.57 0.62 0.68 0.74 0.75 0.75 0.75 0.77 0.84 0.85 0.81 0.90 0.97 1.04 1.11 1.10 1.11 1.05 1.05 1.05 1.03 1.00 0.98 0.97 0.99 1.04 0.98 0.99 1.05 1.08 1.09 1.23
0.28 0.33 0.31 0.29 0.26 0.20 0.33 0.18 0.29 0.36 0.37 0.45 0.50 0.53 0.56 0.55 0.59 0.61 0.63 0.67 0.73 0.80 0.84 0.81 0.83 0.83 0.84 0.90 0.89 0.96 0.94 1.00 1.05 1.06 1.05 1.03 1.05 1.00 1.00 0.99 1.00 1.00 1.02 1.01 1.03 1.10 1.16 1.17 1.15
0.30 0.34 0.31 0.31 0.27 0.28 0.29 0.25 0.31 0.38 0.35 0.43 0.52 0.57 0.57 0.56 0.57 0.58 0.61 0.67 0.76 0.81 0.83 0.87 0.90 0.87 0.87 0.91 0.93 0.97 1.02 1.08 1.09 1.07 1.01 0.98 0.99 0.96 0.93 0.97 1.01 1.05 1.07 1.07 1.09 1.16 1.21 1.24 1.25
0.37 0.33 0.33 0.35 0.32 0.21 0.29 0.29 0.28 0.36 0.40 0.47 0.55 0.59 0.58 0.56 0.55 0.60 0.66 0.71 0.75 0.81 0.80 0.80 0.86 0.90 0.96 1.00 1.00 0.97 0.96 0.99 0.96 0.92 0.89 0.91 0.93 0.91 0.98 1.04 1.05 1.09 1.13 1.13 1.22 1.27 1.27 1.31 1.26
0.36 0.31 0.24 0.22 0.21 0.22 0.34 0.29 0.31 0.43 0.52 0.54 0.53 0.57 0.60 0.61 0.58 0.61 0.67 0.73 0.77 0.81 0.78 0.77 0.78 0.81 0.88 0.89 0.93 0.97 0.96 0.94 0.91 0.88 0.85 0.85 0.91 0.93 1.01 1.08 1.08 1.09 1.13 1.19 1.25 1.30 1.32 1.33 1.30
0.38 0.37 0.27 0.18 0.20 0.24 0.34 0.27 0.36 0.54 0.60 0.61 0.60 0.61 0.62 0.63 0.66 0.67 0.69 0.76 0.79 0.82 0.84 0.78 0.74 0.73 0.76 0.80 0.78 0.81 0.82 0.81 0.77 0.82 0.93 0.94 0.98 0.98 1.03 1.05 1.13 1.11 1.16 1.20 1.26 1.28 1.30 1.34 1.32
0.40 0.34 0.44 0.30 0.31 0.26 0.31 0.39 0.50 0.56 0.57 0.58 0.57 0.59 0.60 0.63 0.65 0.68 0.73 0.77 0.79 0.81 0.83 0.85 0.83 0.80 0.75 0.70 0.70 0.71 0.74 0.76 0.83 0.89 0.84 0.79 0.79 0.84 0.92 0.91 0.94 1.03 1.05 1.12 1.16 1.19 1.20 1.24 1.23
0.42 0.47 0.33 0.35 0.23 0.22 0.30 0.33 0.36 0.45 0.50 0.56 0.56 0.58 0.61 0.64 0.67 0.72 0.74 0.75 0.78 0.82 0.82 0.82 0.79 0.74 0.77 0.79 0.72 0.71 0.73 0.77 0.78 0.75 0.68 0.66 0.67 0.69 0.64 0.64 0.71 0.80 0.93 0.99 1.06 1.09 1.10 1.11 1.15
0.39 0.36 0.37 0.37 0.33 0.26 0.24 0.31 0.46 0.47 0.51 0.52 0.55 0.58 0.60 0.64 0.67 0.71 0.74 0.75 0.76 0.76 0.72 0.69 0.64 0.61 0.56 0.54 0.54 0.54 0.52 0.53 0.54 0.53 0.52 0.51 0.51 0.50 0.51 0.52 0.51 0.55 0.61 0.64 0.72 0.83 0.94 0.95 0.99
0.40 0.34 0.31 0.24 0.25 0.27 0.25 0.25 0.44 0.47 0.50 0.53 0.54 0.58 0.63 0.66 0.68 0.70 0.67 0.62 0.58 0.53 0.52 0.53 0.53 0.43 0.43 0.43 0.43 0.43 0.45 0.42 0.41 0.39 0.39 0.40 0.39 0.36 0.35 0.36 0.40 0.39 0.41 0.48 0.48 0.50 0.53 0.59 0.61

GFSSGP_prec_pwat_108.txt.gz
Precipitable_Water
0.74 0.77 0.84 0.68 0.35 0.31 0.22 0.24 0.33 0.30 0.31 0.43 0.45 0.39 0.39 0.62 0.62 0.53 1.35 1.26 1.34 1.42 1.58 1.62 1.64 1.61 1.58 1.60 1.62 1.61 1.56 1.60 1.61 1.63 1.65 1.66 1.62 1.55 1.37 1.21 1.13 1.26 1.49 1.74 1.60 1.54 1.49 1.31 1.13
0.78 0.78 0.77 0.58 0.32 0.22 0.21 0.33 0.32 0.38 0.43 0.43 0.38 0.40 0.41 0.58 0.79 0.93 1.03 1.18 1.34 1.46 1.57 1.64 1.68 1.64 1.68 1.63 1.60 1.66 1.63 1.61 1.58 1.57 1.60 1.67 1.65 1.59 1.49 1.33 1.17 1.26 1.62 1.81 1.74 1.59 1.39 1.24 1.10
0.80 0.86 0.57 0.44 0.26 0.23 0.29 0.36 0.44 0.43 0.44 0.41 0.38 0.44 0.56 0.60 0.75 0.74 0.84 1.17 1.36 1.45 1.59 1.63 1.70 1.71 1.68 1.71 1.66 1.67 1.71 1.68 1.62 1.57 1.51 1.54 1.57 1.61 1.52 1.41 1.28 1.29 1.54 1.70 1.70 1.49 1.27 1.14 1.05
0.71 0.67 0.58 0.33 0.24 0.31 0.35 0.44 0.47 0.41 0.38 0.40 0.42 0.40 0.57 0.71 0.69 0.65 0.74 1.03 1.31 1.44 1.60 1.71 1.75 1.73 1.71 1.66 1.67 1.67 1.71 1.69 1.68 1.56 1.49 1.46 1.48 1.58 1.56 1.45 1.42 1.34 1.48 1.66 1.70 1.53 1.23 1.14 1.06
0.72 0.55 0.32 0.25 0.28 0.36 0.42 0.43 0.42 0.39 0.40 0.39 0.40 0.37 0.48 0.59 0.62 0.63 0.64 0.76 1.10 1.38 1.55 1.66 1.74 1.74 1.71 1.66 1.70 1.75 1.76 1.76 1.70 1.62 1.56 1.56 1.53 1.56 1.54 1.53 1.58 1.55 1.55 1.67 1.71 1.61 1.19 1.13 1.05
0.52 0.52 0.31 0.27 0.29 0.37 0.41 0.44 0.39 0.37 0.38 0.37 0.37 0.37 0.49 0.60 0.58 0.58 0.61 0.64 0.80 1.18 1.44 1.55 1.66 1.62 1.65 1.64 1.70 1.74 1.74 1.73 1.73 1.70 1.66 1.63 1.65 1.64 1.60 1.56 1.56 1.59 1.58 1.67 1.65 1.60 1.38 1.13 1.02
0.49 0.37 0.31 0.31 0.32 0.33 0.37 0.38 0.33 0.35 0.35 0.36 0.40 0.32 0.54 0.56 0.52 0.53 0.58 0.62 0.65 0.84 1.18 1.42 1.50 1.55 1.58 1.56 1.54 1.61 1.66 1.71 1.69 1.64 1.64 1.63 1.66 1.67 1.67 1.63 1.60 1.65 1.66 1.70 1.70 1.63 1.53 1.25 1.15
0.44 0.32 0.26 0.28 0.27 0.29 0.36 0.33 0.34 0.30 0.29 0.36 0.35 0.27 0.33 0.43 0.43 0.45 0.48 0.53 0.57 0.64 0.81 1.07 1.40 1.52 1.57 1.58 1.64 1.60 1.60 1.60 1.63 1.69 1.71 1.66 1.61 1.62 1.63 1.57 1.55 1.57 1.65 1.70 1.73 1.71 1.63 1.47 1.24
0.40 0.23 0.19 0.22 0.22 0.27 0.30 0.25 0.29 0.30 0.26 0.25 0.26 0.25 0.29 0.33 0.33 0.30 0.30 0.35 0.42 0.50 0.59 0.73 1.02 1.36 1.49 1.58 1.65 1.69 1.65 1.63 1.62 1.62 1.65 1.68 1.66 1.63 1.55 1.48 1.46 1.49 1.58 1.63 1.69 1.73 1.71 1.64 1.49
0.22 0.18 0.24 0.30 0.29 0.28 0.28 0.26 0.26 0.22 0.21 0.22 0.24 0.27 0.29 0.27 0.26 0.24 0.25 0.25 0.28 0.35 0.43 0.50 0.65 0.93 1.31 1.44 1.54 1.63 1.67 1.60 1.57 1.55 1.60 1.64 1.62 1.62 1.64 1.64 1.59 1.53 1.52 1.56 1.62 1.67 1.65 1.67 1.59
0.21 0.21 0.27 0.29 0.28 0.27 0.23 0.22 0.26 0.21 0.18 0.23 0.20 0.22 0.24 0.24 0.24 0.24 0.26 0.28 0.28 0.29 0.30 0.38 0.45 0.57 0.84 1.23 1.36 1.46 1.55 1.62 1.64 1.63 1.64 1.60 1.61 1.65 1.69 1.68 1.66 1.67 1.68 1.65 1.63 1.62 1.62 1.60 1.58
0.20 0.25 0.25 0.27 0.27 0.23 0.20 0.22 0.18 0.18 0.18 0.21 0.21 0.22 0.22 0.21 0.22 0.24 0.24 0.26 0.27 0.29 0.31 0.33 0.37 0.43 0.55 0.88 1.15 1.28 1.39 1.46 1.48 1.53 1.53 1.54 1.50 1.53 1.57 1.56 1.64 1.68 1.71 1.59 1.53 1.56 1.58 1.59 1.62
0.20 0.23 0.24 0.25 0.24 0.21 0.20 0.16 0.16 0.15 0.19 0.21 0.21 0.23 0.24 0.25 0.27 0.31 0.33 0.33 0.33 0.32 0.34 0.37 0.38 0.37 0.43 0.56 0.94 1.12 1.24 1.36 1.41 1.40 1.43 1.42 1.45 1.44 1.44 1.61 1.55 1.59 1.71 1.66 1.69 1.69 1.69 1.68 1.68
0.24 0.24 0.22 0.21 0.19 0.18 0.16 0.15 0.16 0.17 0.21 0.22 0.27 0.30 0.31 0.32 0.34 0.35 0.37 0.36 0.37 0.39 0.39 0.39 0.40 0.42 0.42 0.43 0.73 0.97 1.19 1.29 1.34 1.35 1.33 1.35 1.35 1.34 1.31 1.30 1.38 1.47 1.60 1.69 1.66 1.62 1.64 1.66 1.68
0.23 0.17 0.20 0.19 0.19 0.17 0.19 0.14 0.18 0.23 0.23 0.24 0.30 0.32 0.35 0.37 0.38 0.38 0.41 0.44 0.51 0.51 0.48 0.44 0.45 0.46 0.45 0.42 0.48 0.83 1.04 1.25 1.30 1.30 1.33 1.30 1.29 1.28 1.22 1.20 1.21 1.26 1.34 1.40 1.45 1.50 1.57 1.61 1.69
0.19 0.17 0.13 0.20 0.21 0.23 0.20 0.11 0.23 0.26 0.29 0.29 0.33 0.37 0.39 0.44 0.49 0.55 0.59 0.61 0.64 0.61 0.61 0.62 0.59 0.51 0.49 0.46 0.44 0.58 0.83 1.15 1.28 1.33 1.31 1.34 1.31 1.30 1.23 1.17 1.18 1.23 1.25 1.22 1.20 1.22 1.22 1.32 1.39
0.19 0.17 0.17 0.20 0.26 0.24 0.23 0.17 0.27 0.34 0.33 0.33 0.36 0.42 0.44 0.47 0.54 0.61 0.65 0.64 0.64 0.66 0.65 0.65 0.67 0.63 0.55 0.48 0.47 0.48 0.72 0.97 1.25 1.32 1.34 1.34 1.33 1.28 1.19 1.19 1.20 1.19 1.16 1.15 1.13 1.12 1.19 1.17 1.21
0.19 0.18 0.20 0.18 0.28 0.28 0.24 0.23 0.28 0.35 0.36 0.37 0.39 0.43 0.44 0.48 0.52 0.60 0.62 0.64 0.64 0.67 0.69 0.68 0.71 0.74 0.67 0.56 0.49 0.46 0.61 0.91 1.13 1.28 1.36 1.34 1.31 1.26 1.21 1.15 1.11 1.11 1.07 1.06 1.09 1.09 1.12 1.11 1.13
0.28 0.23 0.21 0.25 0.31 0.29 0.27 0.30 0.32 0.37 0.39 0.40 0.42 0.45 0.46 0.49 0.54 0.58 0.61 0.64 0.66 0.69 0.68 0.68 0.70 0.73 0.82 0.66 0.53 0.49 0.50 0.69 0.97 1.23 1.37 1.33 1.31 1.24 1.19 1.12 1.12 1.11 1.05 1.02 1.01 0.97 0.94 0.92 0.99
0.27 0.25 0.28 0.34 0.38 0.36 0.33 0.31 0.35 0.38 0.39 0.42 0.43 0.45 0.48 0.52 0.55 0.58 0.61 0.60 0.64 0.67 0.71 0.72 0.70 0.70 0.79 0.84 0.75 0.55 0.65 0.71 0.82 1.05 1.23 1.30 1.27 1.25 1.24 1.17 1.11 1.08 1.00 0.95 0.93 0.89 0.84 0.89 0.99
0.31 0.30 0.32 0.31 0.37 0.39 0.35 0.27 0.31 0.36 0.41 0.44 0.46 0.50 0.54 0.54 0.55 0.57 0.57 0.60 0.64 0.66 0.71 0.74 0.77 0.79 0.80 0.77 0.86 0.83 0.77 0.81 0.88 0.97 1.08 1.29 1.30 1.25 1.23 1.15 1.09 1.01 1.01 0.92 0.92 0.94 0.88 0.79 0.91
0.29 0.37 0.35 0.34 0.30 0.21 0.32 0.15 0.28 0.33 0.36 0.41 0.46 0.52 0.56 0.58 0.58 0.57 0.55 0.57 0.60 0.65 0.75 0.78 0.84 0.87 0.84 0.81 0.80 0.85 0.86 0.81 0.97 1.15 1.20 1.28 1.26 1.17 1.15 1.09 1.02 0.98 0.96 0.93 0.96 1.01 0.96 0.98 0.87
0.36 0.40 0.37 0.34 0.27 0.25 0.27 0.22 0.27 0.35 0.34 0.40 0.49 0.55 0.58 0.58 0.58 0.52 0.55 0.60 0.66 0.71 0.75 0.80 0.80 0.85 0.93 0.92 0.91 0.88 0.89 0.99 1.06 1.12 1.10 1.13 1.13 1.13 1.12 1.03 0.98 0.93 0.90 0.89 0.93 0.96 1.00 1.04 1.04
0.41 0.35 0.33 0.32 0.29 0.19 0.27 0.25 0.24 0.32 0.38 0.44 0.52 0.56 0.57 0.58 0.59 0.60 0.61 0.66 0.70 0.79 0.80 0.80 0.76 0.79 0.85 0.88 0.93 0.95 0.95 0.95 0.96 0.94 0.97 0.98 0.99 0.99 0.98 1.00 0.95 0.94 0.89 0.94 0.94 0.98 1.05 1.08 1.07
0.34 0.28 0.20 0.19 0.20 0.19 0.32 0.27 0.29 0.40 0.47 0.51 0.54 0.57 0.59 0.61 0.62 0.64 0.66 0.68 0.71 0.76 0.80 0.82 0.77 0.74 0.78 0.82 0.86 0.91 0.92 0.92 0.90 0.92 0.93 0.89 0.87 0.88 0.90 0.91 0.92 0.91 0.92 0.98 1.02 0.99 1.01 1.04 1.09
0.34 0.33 0.24 0.16 0.18 0.22 0.32 0.24 0.30 0.50 0.57 0.59 0.60 0.59 0.60 0.60 0.62 0.64 0.68 0.72 0.75 0.77 0.79 0.80 0.78 0.74 0.71 0.73 0.72 0.74 0.76 0.80 0.82 0.82 0.81 0.76 0.71 0.68 0.71 0.75 0.80 0.87 0.90 0.97 1.06 1.06 1.04 1.05 1.10
0.36 0.32 0.42 0.28 0.30 0.24 0.28 0.36 0.47 0.54 0.53 0.56 0.56 0.58 0.58 0.60 0.63 0.67 0.71 0.74 0.76 0.79 0.79 0.79 0.78 0.80 0.81 0.76 0.70 0.65 0.64 0.63 0.61 0.64 0.67 0.72 0.81 0.75 0.75 0.75 0.73 0.73 0.74 0.75 0.88 0.95 0.98 1.06 1.05
0.43 0.46 0.32 0.33 0.21 0.20 0.28 0.32 0.34 0.40 0.45 0.51 0.53 0.54 0.57 0.61 0.65 0.69 0.72 0.74 0.75 0.76 0.73 0.73 0.70 0.64 0.62 0.63 0.67 0.67 0.67 0.67 0.69 0.68 0.70 0.70 0.65 0.59 0.59 0.60 0.60 0.57 0.58 0.58 0.61 0.70 0.83 0.94 1.01
0.38 0.35 0.36 0.35 0.32 0.22 0.20 0.28 0.42 0.35 0.42 0.44 0.49 0.51 0.54 0.57 0.62 0.64 0.65 0.66 0.64 0.60 0.52 0.51 0.51 0.41 0.38 0.43 0.46 0.47 0.49 0.49 0.48 0.49 0.51 0.51 0.52 0.52 0.49 0.46 0.43 0.42 0.43 0.46 0.48 0.49 0.56 0.61 0.71
0.39 0.32 0.33 0.22 0.24 0.26 0.23 0.17 0.42 0.34 0.35 0.38 0.41 0.45 0.49 0.52 0.52 0.55 0.53 0.49 0.46 0.42 0.38 0.34 0.34 0.31 0.29 0.28 0.27 0.26 0.26 0.27 0.31 0.27 0.26 0.27 0.25 0.25 0.25 0.24 0.23 0.22 0.22 0.26 0.30 0.33 0.34 0.39 0.41

GFSSGP_prec_pwat_111.txt.gz
Precipitable_Water
0.69 0.79 0.79 0.61 0.25 0.29 0.20 0.24 0.33 0.31 0.34 0.42 0.44 0.45 0.51 0.61 0.60 0.47 1.21 1.34 1.37 1.46 1.60 1.64 1.65 1.60 1.57 1.59 1.57 1.57 1.60 1.64 1.63 1.64 1.71 1.65 1.60 1.55 1.45 1.28 1.16 1.24 1.40 1.59 1.68 1.63 1.54 1.22 1.10
0.71 0.76 0.69 0.52 0.29 0.18 0.21 0.34 0.31 0.35 0.40 0.44 0.42 0.43 0.49 0.50 0.82 0.86 1.01 1.17 1.34 1.45 1.53 1.64 1.69 1.66 1.62 1.60 1.64 1.62 1.57 1.60 1.62 1.59 1.61 1.64 1.66 1.62 1.55 1.35 1.21 1.25 1.66 1.81 1.76 1.71 1.51 1.24 1.09
0.78 0.82 0.53 0.39 0.28 0.23 0.28 0.39 0.38 0.41 0.44 0.40 0.35 0.52 0.59 0.55 0.71 0.79 0.85 1.13 1.31 1.40 1.51 1.59 1.68 1.71 1.68 1.72 1.61 1.65 1.70 1.64 1.65 1.64 1.54 1.54 1.52 1.59 1.62 1.48 1.33 1.27 1.48 1.62 1.76 1.69 1.41 1.24 1.13
0.72 0.67 0.58 0.32 0.25 0.33 0.39 0.43 0.45 0.42 0.43 0.42 0.41 0.37 0.55 0.68 0.72 0.71 0.78 0.91 1.23 1.37 1.51 1.64 1.69 1.70 1.72 1.70 1.72 1.67 1.70 1.72 1.69 1.66 1.62 1.53 1.49 1.45 1.54 1.44 1.37 1.28 1.43 1.56 1.68 1.63 1.35 1.19 1.10
0.72 0.55 0.31 0.26 0.30 0.38 0.43 0.46 0.46 0.41 0.39 0.37 0.40 0.39 0.43 0.60 0.65 0.62 0.62 0.69 0.83 1.25 1.48 1.59 1.69 1.72 1.73 1.70 1.66 1.65 1.67 1.74 1.75 1.71 1.68 1.62 1.59 1.55 1.55 1.51 1.54 1.49 1.40 1.51 1.69 1.69 1.53 1.21 1.10
0.47 0.47 0.27 0.23 0.30 0.39 0.41 0.44 0.40 0.38 0.38 0.37 0.38 0.40 0.47 0.60 0.56 0.56 0.59 0.59 0.66 0.81 1.25 1.50 1.59 1.63 1.66 1.68 1.65 1.67 1.71 1.75 1.72 1.70 1.68 1.66 1.67 1.67 1.63 1.57 1.55 1.58 1.53 1.54 1.61 1.63 1.58 1.27 1.12
0.46 0.36 0.28 0.29 0.31 0.32 0.37 0.42 0.37 0.35 0.35 0.34 0.39 0.35 0.49 0.52 0.52 0.52 0.52 0.55 0.60 0.65 0.74 1.05 1.42 1.53 1.59 1.59 1.60 1.58 1.66 1.68 1.67 1.65 1.65 1.68 1.67 1.68 1.68 1.65 1.60 1.61 1.63 1.61 1.66 1.66 1.62 1.49 1.22
0.47 0.37 0.30 0.29 0.30 0.33 0.40 0.40 0.39 0.37 0.35 0.41 0.40 0.30 0.42 0.39 0.42 0.46 0.45 0.41 0.49 0.55 0.62 0.66 0.94 1.32 1.47 1.54 1.56 1.57 1.54 1.51 1.62 1.67 1.63 1.61 1.66 1.70 1.70 1.65 1.57 1.53 1.58 1.62 1.66 1.70 1.67 1.58 1.47
0.46 0.29 0.27 0.30 0.31 0.36 0.43 0.34 0.36 0.37 0.31 0.30 0.30 0.28 0.31 0.32 0.32 0.30 0.29 0.28 0.30 0.36 0.44 0.50 0.59 0.81 1.16 1.44 1.55 1.58 1.61 1.61 1.58 1.63 1.62 1.60 1.61 1.62 1.66 1.67 1.58 1.49 1.45 1.50 1.59 1.66 1.70 1.67 1.60
0.29 0.25 0.28 0.36 0.36 0.33 0.31 0.26 0.26 0.22 0.21 0.21 0.22 0.25 0.26 0.27 0.26 0.24 0.23 0.23 0.26 0.27 0.29 0.35 0.41 0.49 0.65 1.03 1.37 1.46 1.57 1.64 1.59 1.52 1.49 1.51 1.55 1.59 1.60 1.59 1.62 1.62 1.56 1.54 1.53 1.54 1.62 1.67 1.64
0.26 0.23 0.30 0.32 0.33 0.29 0.23 0.21 0.24 0.21 0.19 0.22 0.21 0.23 0.25 0.25 0.25 0.23 0.24 0.25 0.26 0.28 0.30 0.32 0.33 0.38 0.43 0.56 0.91 1.26 1.40 1.41 1.50 1.57 1.59 1.59 1.59 1.60 1.57 1.57 1.61 1.72 1.69 1.65 1.62 1.58 1.59 1.58 1.62
0.19 0.27 0.28 0.30 0.26 0.20 0.20 0.23 0.19 0.20 0.19 0.25 0.24 0.24 0.23 0.22 0.24 0.27 0.28 0.31 0.33 0.33 0.35 0.38 0.38 0.38 0.38 0.43 0.54 0.83 1.13 1.28 1.32 1.40 1.50 1.54 1.61 1.62 1.56 1.56 1.59 1.61 1.66 1.64 1.66 1.60 1.55 1.53 1.53
0.21 0.22 0.23 0.24 0.22 0.20 0.21 0.17 0.17 0.16 0.19 0.22 0.23 0.27 0.29 0.29 0.31 0.34 0.36 0.38 0.39 0.38 0.40 0.41 0.42 0.41 0.41 0.40 0.42 0.56 0.83 1.03 1.23 1.30 1.35 1.39 1.38 1.41 1.43 1.46 1.51 1.61 1.64 1.60 1.60 1.61 1.64 1.64 1.64
0.24 0.24 0.21 0.21 0.19 0.19 0.17 0.16 0.17 0.16 0.21 0.22 0.26 0.30 0.33 0.35 0.37 0.38 0.41 0.45 0.51 0.55 0.55 0.58 0.55 0.49 0.46 0.43 0.41 0.41 0.65 0.84 1.09 1.24 1.28 1.33 1.30 1.28 1.31 1.28 1.30 1.49 1.57 1.59 1.61 1.60 1.59 1.60 1.65
0.25 0.16 0.18 0.18 0.19 0.17 0.18 0.13 0.15 0.20 0.23 0.25 0.29 0.33 0.37 0.42 0.49 0.50 0.56 0.56 0.59 0.60 0.61 0.60 0.63 0.64 0.60 0.51 0.47 0.44 0.45 0.66 0.80 1.13 1.27 1.31 1.30 1.27 1.24 1.27 1.25 1.32 1.30 1.36 1.40 1.48 1.48 1.55 1.61
0.18 0.17 0.12 0.18 0.20 0.21 0.18 0.08 0.19 0.25 0.27 0.27 0.31 0.37 0.40 0.48 0.53 0.58 0.61 0.62 0.63 0.59 0.57 0.60 0.62 0.63 0.66 0.64 0.57 0.49 0.49 0.53 0.68 0.83 1.23 1.30 1.31 1.33 1.32 1.23 1.24 1.23 1.22 1.20 1.18 1.20 1.22 1.22 1.25
0.17 0.12 0.12 0.15 0.23 0.21 0.20 0.13 0.23 0.29 0.30 0.30 0.35 0.39 0.42 0.47 0.53 0.58 0.61 0.62 0.60 0.60 0.60 0.60 0.62 0.62 0.64 0.69 0.66 0.57 0.50 0.51 0.63 0.71 1.00 1.25 1.32 1.36 1.39 1.29 1.27 1.25 1.17 1.17 1.15 1.14 1.11 1.03 1.08
0.14 0.14 0.17 0.16 0.23 0.25 0.22 0.19 0.25 0.29 0.34 0.35 0.40 0.44 0.45 0.47 0.50 0.55 0.57 0.58 0.59 0.61 0.63 0.65 0.65 0.66 0.64 0.66 0.72 0.65 0.57 0.51 0.57 0.73 0.88 1.15 1.28 1.37 1.39 1.39 1.29 1.27 1.20 1.14 1.13 1.06 1.07 1.03 0.99
0.25 0.22 0.19 0.23 0.29 0.26 0.23 0.24 0.27 0.34 0.37 0.41 0.43 0.45 0.47 0.47 0.54 0.56 0.60 0.61 0.62 0.63 0.62 0.64 0.66 0.69 0.68 0.64 0.64 0.67 0.61 0.56 0.53 0.70 0.86 1.02 1.20 1.35 1.40 1.39 1.34 1.31 1.22 1.17 1.16 1.09 1.02 0.96 1.02
0.24 0.22 0.24 0.29 0.34 0.31 0.28 0.29 0.36 0.40 0.41 0.43 0.43 0.44 0.45 0.48 0.52 0.57 0.59 0.61 0.62 0.61 0.62 0.65 0.68 0.70 0.72 0.72 0.73 0.77 0.76 0.73 0.78 0.75 0.84 1.03 1.26 1.30 1.39 1.37 1.34 1.32 1.27 1.23 1.18 1.06 0.92 0.91 0.94
0.27 0.26 0.28 0.29 0.35 0.39 0.35 0.29 0.33 0.39 0.41 0.42 0.44 0.47 0.50 0.52 0.53 0.56 0.57 0.56 0.59 0.57 0.61 0.65 0.71 0.73 0.76 0.79 0.79 0.75 0.76 0.75 0.81 0.83 0.94 1.02 1.12 1.20 1.39 1.37 1.33 1.29 1.24 1.15 1.06 1.02 0.94 0.81 0.86
0.27 0.37 0.35 0.34 0.30 0.22 0.34 0.17 0.24 0.31 0.34 0.41 0.46 0.49 0.53 0.56 0.58 0.58 0.57 0.55 0.57 0.61 0.69 0.75 0.77 0.75 0.79 0.86 0.82 0.75 0.71 0.77 0.85 0.82 0.93 1.03 1.09 1.15 1.21 1.21 1.20 1.16 1.14 1.07 1.02 1.01 0.94 0.88 0.75
0.34 0.41 0.36 0.36 0.31 0.27 0.24 0.21 0.22 0.33 0.32 0.38 0.47 0.52 0.57 0.59 0.59 0.57 0.57 0.58 0.63 0.67 0.71 0.78 0.80 0.77 0.76 0.84 0.86 0.83 0.82 0.87 0.89 0.99 1.03 1.09 1.10 1.12 1.13 1.13 1.11 1.11 1.08 1.03 1.00 0.96 0.90 0.86 0.81
0.42 0.38 0.37 0.33 0.26 0.15 0.24 0.24 0.21 0.29 0.34 0.41 0.50 0.56 0.59 0.60 0.61 0.61 0.63 0.67 0.67 0.70 0.73 0.76 0.76 0.75 0.74 0.77 0.79 0.82 0.84 0.87 0.92 0.94 0.93 0.94 1.00 1.03 1.05 1.08 1.07 1.04 1.02 1.01 0.99 0.96 0.89 0.85 0.84
0.36 0.27 0.16 0.16 0.18 0.16 0.30 0.26 0.26 0.36 0.45 0.48 0.50 0.55 0.58 0.60 0.59 0.59 0.62 0.66 0.69 0.72 0.73 0.75 0.75 0.71 0.72 0.71 0.70 0.71 0.76 0.79 0.80 0.82 0.82 0.80 0.79 0.79 0.78 0.82 0.83 0.82 0.83 0.80 0.83 0.87 0.87 0.87 0.89
0.29 0.27 0.19 0.12 0.15 0.19 0.31 0.21 0.26 0.46 0.53 0.56 0.57 0.57 0.58 0.58 0.61 0.62 0.65 0.69 0.71 0.73 0.74 0.73 0.74 0.73 0.73 0.71 0.71 0.69 0.65 0.64 0.64 0.66 0.70 0.70 0.66 0.65 0.65 0.65 0.66 0.65 0.67 0.64 0.62 0.60 0.68 0.82 0.90
0.32 0.27 0.39 0.27 0.27 0.22 0.24 0.32 0.43 0.49 0.49 0.52 0.52 0.54 0.54 0.57 0.60 0.62 0.65 0.69 0.70 0.73 0.71 0.70 0.62 0.61 0.64 0.68 0.70 0.68 0.66 0.66 0.62 0.61 0.62 0.59 0.64 0.63 0.68 0.74 0.73 0.73 0.69 0.70 0.72 0.68 0.64 0.62 0.70
0.40 0.43 0.28 0.31 0.18 0.17 0.24 0.28 0.30 0.35 0.34 0.43 0.45 0.47 0.49 0.53 0.56 0.59 0.60 0.61 0.62 0.60 0.52 0.47 0.44 0.36 0.34 0.33 0.37 0.42 0.48 0.48 0.50 0.53 0.56 0.60 0.58 0.59 0.60 0.58 0.55 0.51 0.51 0.50 0.50 0.50 0.50 0.50 0.51
0.36 0.32 0.33 0.32 0.29 0.19 0.17 0.21 0.41 0.31 0.29 0.29 0.34 0.39 0.41 0.43 0.45 0.48 0.51 0.52 0.50 0.44 0.37 0.33 0.33 0.29 0.26 0.27 0.27 0.26 0.26 0.27 0.29 0.31 0.28 0.29 0.31 0.32 0.29 0.27 0.28 0.26 0.22 0.23 0.22 0.21 0.25 0.28 0.36
0.39 0.30 0.29 0.20 0.20 0.23 0.21 0.14 0.33 0.35 0.31 0.30 0.29 0.34 0.37 0.39 0.42 0.44 0.46 0.45 0.43 0.41 0.38 0.34 0.34 0.32 0.30 0.29 0.28 0.28 0.28 0.27 0.26 0.26 0.25 0.24 0.22 0.21 0.19 0.19 0.19 0.19 0.19 0.20 0.20 0.19 0.18 0.18 0.22